[[{"header":{"parameterUnit":"m.s-1","parameterCategory":1,"la1":31.0,"la2":29.5877,"lo1":-88.7671,"lo2":-86.6584,"dy":0.0162,"dx":0.0185,"nx":115,"ny":88,"refTime":"2023-05-27T12:00:00:Z","depth":0,"parameterNumber":2,"parameterNumberName":"U-component_of_WINDS"},"data":[0.0,0.0,0.0,0.0,0.0,0.0,0.0,0.0,0.0,0.0,0.0,0.0,0.0,0.0,0.0,0.0,0.0,0.0,0.0,0.0,0.0,0.0,0.0,0.0,0.0,0.0,0.0,0.0,0.0,0.0,0.0,0.0,0.0,0.0,0.0,0.0,0.0,0.0,0.0,0.0,0.0,0.0,0.0,0.0,0.0,0.0,0.0,0.0,0.0,0.0,0.0,0.0,0.0,0.0,0.0,0.0,0.0,0.0,0.0,0.0,0.0,0.0,0.0,0.0,0.0,0.0,0.0,0.0,0.0,0.0,0.0,0.0,0.0,0.0,0.0,0.0,0.0,0.0,0.0,0.0,0.0,0.0,0.0,0.0,0.0,0.0,0.0,0.0,0.0,0.0,0.0,0.0,0.0,0.0,0.0,0.0,0.0,0.0,0.0,0.0,0.0,0.0,0.0,0.0,0.0,0.0,0.0,0.0,0.0,0.0,0.0,0.0,0.0,0.0,0.0,0.0,0.0,0.0,0.0,0.0,0.0,0.0,0.0,0.0,0.0,0.0,0.0,0.0,0.0,0.0,0.0,0.0,0.0,0.0,0.0,0.0,0.0,0.0,0.0,0.0,0.0,0.0,0.0,0.0,0.0,0.0,0.0,0.0,0.0,0.0,0.0,0.0,0.0,0.0,0.0,0.0,0.0,0.0,0.0,0.0,0.0,0.0,0.0,0.0,0.0,0.0,0.0,0.0,0.0,0.0,0.0,0.0,0.0,0.0,0.0,0.0,0.0,0.0,0.0,0.0,0.0,0.0,0.0,0.0,0.0,0.0,0.0,0.0,0.0,0.0,0.0,0.0,0.0,0.0,0.0,0.0,0.0,0.0,0.0,0.0,0.0,0.0,0.0,0.0,0.0,0.0,0.0,0.0,0.0,0.0,0.0,0.0,0.0,0.0,0.0,0.0,0.0,0.0,0.0,0.0,0.0,0.0,0.0,0.0,0.0,0.0,0.0,0.0,0.0,0.0,0.0,0.0,0.0,0.0,0.0,0.0,0.0,0.0,0.0,0.0,0.0,0.0,0.0,0.0,0.0,0.0,0.0,0.0,0.0,0.0,0.0,0.0,0.0,0.0,0.0,0.0,0.0,0.0,0.0,0.0,0.0,0.0,0.0,0.0,0.0,0.0,0.0,0.0,0.0,0.0,0.0,0.0,0.0,0.0,0.0,0.0,0.0,0.0,0.0,0.0,0.0,0.0,0.0,0.0,0.0,0.0,0.0,0.0,0.0,0.0,0.0,0.0,0.0,0.0,0.0,0.0,0.0,0.0,0.0,0.0,0.0,0.0,0.0,0.0,0.0,0.0,0.0,0.0,0.0,0.0,0.0,0.0,0.0,0.0,0.0,0.0,0.0,0.0,0.0,0.0,0.0,0.0,0.0,0.0,0.0,0.0,0.0,0.0,0.0,0.0,0.0,0.0,0.0,0.0,0.0,0.0,0.0,0.0,0.0,0.0,0.0,0.0,0.0,0.0,0.0,0.0,0.0,0.0,0.0,0.0,0.0,0.0,0.0,0.0,0.0,0.0,0.0,0.0,0.0,0.0,0.0,0.0,0.0,0.0,0.0,0.0,0.0,0.0,0.0,0.0,0.0,0.0,0.0,0.0,0.0,0.0,0.0,0.0,0.0,0.0,0.0,0.0,0.0,0.0,0.0,0.0,0.0,0.0,0.0,0.0,0.0,0.0,0.0,0.0,0.0,0.0,0.0,0.0,0.0,0.0,0.0,0.0,0.0,0.0,0.0,0.0,0.0,0.0,0.0,0.0,0.0,0.0,0.0,0.0,0.0,0.0,0.0,0.0,0.0,0.0,0.0,0.0,0.0,0.0,0.0,0.0,0.0,0.0,0.0,0.0,0.0,0.0,0.0,0.0,0.0,0.0,0.0,0.0,0.0,0.0,0.0,0.0,0.0,0.0,0.0,0.0,0.0,0.0,0.0,0.0,0.0,0.0,0.0,0.0,0.0,0.0,0.0,0.0,0.0,0.0,0.0,0.0,0.0,0.0,0.0,0.0,0.0,0.0,0.0,0.0,0.0,0.0,0.0,0.0,0.0,0.0,0.0,0.0,0.0,0.0,0.0,0.0,0.0,0.0,0.0,0.0,0.0,0.0,0.0,0.0,0.0,0.0,0.0,0.0,0.0,0.0,0.0,0.0,0.0,0.0,0.0,0.0,0.0,0.0,0.0,0.0,0.0,0.0,0.0,0.0,0.0,0.0,0.0,0.0,0.0,0.0,0.0,0.0,0.0,0.0,0.0,0.0,0.0,0.0,0.0,0.0,0.0,0.0,0.0,0.0,0.0,0.0,0.0,0.0,0.0,0.0,0.0,0.0,0.0,0.0,0.0,0.0,0.0,0.0,0.0,0.0,0.0,0.0,0.0,0.0,0.0,0.0,0.0,0.0,0.0,0.0,0.0,0.0,0.0,0.0,0.0,0.0,0.0,0.0,0.0,0.0,0.0,0.0,0.0,0.0,0.0,0.0,0.0,0.0,0.0,0.0,0.0,0.0,0.0,0.0,0.0,0.0,0.0,0.0,0.0,0.0,0.0,0.0,0.0,0.0,0.0,0.0,0.0,0.0,0.0,0.0,0.0,0.0,0.0,0.0,0.0,0.0,0.0,0.0,0.0,0.0,0.0,0.0,0.0,0.0,0.0,0.0,0.0,0.0,0.0,0.0,0.0,0.0,0.0,0.0,0.0,0.0,0.0,0.0,0.0,0.0,0.0,0.0,0.0,0.0,0.0,0.0,0.0,0.0,0.0,0.0,0.0,0.0,0.0,0.0,0.0,0.0,0.0,0.0,0.0,0.0,0.0,0.0,0.0,0.0,0.0,0.0,0.0,0.0,0.0,0.0,0.0,0.0,0.0,0.0,0.0,0.0,0.0,0.0,0.0,0.0,0.0,0.0,0.0,0.0,0.0,0.0,0.0,0.0,0.0,0.0,0.0,0.0,0.0,0.0,0.0,0.0,0.0,0.0,0.0,0.0,0.0,0.0,0.0,0.0,0.0,0.0,0.0,0.0,0.0,0.0,0.0,0.0,0.0,0.0,0.0,0.0,0.0,0.0,0.0,0.0,0.0,0.0,0.0,0.0,0.0,0.0,0.0,0.0,0.0,0.0,0.0,0.0,0.0,0.0,0.0,0.0,0.0,0.0,0.0,0.0,0.0,0.0,0.0,0.0,0.0,0.0,0.0,0.0,0.0,0.0,0.0,0.0,0.0,0.0,0.0,0.0,0.0,0.0,0.0,0.0,0.0,0.0,0.0,0.0,0.0,0.0,0.0,0.0,0.0,0.0,0.0,0.0,0.0,0.0,0.0,0.0,0.0,0.0,0.0,0.0,0.0,0.0,0.0,0.0,0.0,0.0,0.0,0.0,0.0,0.0,0.0,0.0,0.0,0.0,0.0,0.0,0.0,0.0,0.0,0.0,0.0,0.0,0.0,0.0,0.0,0.0,0.0,0.0,0.0,0.0,0.0,0.0,0.0,0.0,0.0,0.0,0.0,0.0,0.0,0.0,0.0,0.0,0.0,0.0,0.0,0.0,0.0,0.0,0.0,0.0,0.0,0.0,0.0,0.0,0.0,0.0,0.0,0.0,0.0,0.0,0.0,0.0,0.0,0.0,0.0,0.0,0.0,0.0,0.0,0.0,0.0,0.0,0.0,0.0,0.0,0.0,0.0,0.0,0.0,0.0,0.0,0.0,0.0,0.0,0.0,0.0,0.0,0.0,0.0,0.0,0.0,0.0,0.0,0.0,0.0,0.0,0.0,0.0,0.0,0.0,0.0,0.0,0.0,0.0,0.0,0.0,0.0,0.0,0.0,0.0,0.0,0.0,0.0,0.0,0.0,0.0,0.0,0.0,0.0,0.0,0.0,0.0,0.0,0.0,0.0,0.0,0.0,0.0,0.0,0.0,0.0,0.0,0.0,0.0,0.0,0.0,0.0,0.0,0.0,0.0,0.0,0.0,0.0,0.0,0.0,0.0,0.0,0.0,0.0,0.0,0.0,0.0,0.0,0.0,0.0,0.0,0.0,0.0,0.0,0.0,0.0,0.0,0.0,0.0,0.0,0.0,0.0,0.0,0.0,0.0,0.0,0.0,0.0,0.0,0.0,0.0,0.0,0.0,0.0,0.0,0.0,0.0,0.0,0.0,0.0,0.0,0.0,0.0,0.0,0.0,0.0,0.0,0.0,0.0,0.0,0.0,0.0,0.0,0.0,0.0,2.4836,0.0,0.0,0.0,0.0,0.0,0.0,0.0,0.0,0.0,0.0,0.0,0.0,0.0,0.0,0.0,0.0,0.0,0.0,0.0,0.0,0.0,0.0,0.0,0.0,0.0,0.0,0.0,0.0,0.0,0.0,0.0,0.0,0.0,0.0,0.0,0.0,0.0,0.0,0.0,0.0,0.0,0.0,0.0,0.0,0.0,0.0,0.0,0.0,0.0,0.0,0.0,0.0,0.0,0.0,0.0,0.0,0.0,0.0,0.0,0.0,0.0,0.0,0.0,0.0,0.0,0.0,0.0,0.0,0.0,0.0,0.0,0.0,0.0,0.0,0.0,0.0,0.0,0.0,0.0,0.0,0.0,0.0,0.0,0.0,0.0,0.0,0.0,0.0,0.0,0.0,0.0,0.0,0.0,0.0,0.0,0.0,0.0,0.0,0.0,0.0,0.0,0.0,0.0,0.0,0.0,0.0,0.0,0.0,0.0,0.0,2.4637,2.4794,2.4978,2.4703,2.3904,0.0,0.0,0.0,0.0,0.0,0.0,0.0,0.0,0.0,0.0,0.0,0.0,0.0,0.0,0.0,0.0,0.0,0.0,0.0,0.0,0.0,0.0,0.0,0.0,0.0,0.0,0.0,0.0,0.0,0.0,0.0,0.0,0.0,0.0,0.0,0.0,0.0,0.0,0.0,0.0,0.0,0.0,0.0,0.0,0.0,0.0,0.0,0.0,0.0,0.0,0.0,0.0,0.0,0.0,0.0,0.0,0.0,0.0,0.0,0.0,0.0,0.0,0.0,0.0,0.0,0.0,0.0,0.0,0.0,0.0,0.0,0.0,0.0,0.0,0.0,0.0,0.0,0.0,0.0,0.0,0.0,0.0,0.0,0.0,0.0,0.0,0.0,0.0,0.0,0.0,0.0,0.0,0.0,0.0,0.0,0.0,0.0,0.0,0.0,0.0,0.0,0.0,0.0,0.0,0.0,0.0,0.0,0.0,0.0,0.0,0.0,0.0,2.4347,2.4191,2.3747,0.0,0.0,0.0,0.0,0.0,0.0,0.0,0.0,0.0,0.0,0.0,0.0,0.0,0.0,0.0,0.0,0.0,0.0,0.0,0.0,0.0,0.0,0.0,0.0,0.0,0.0,0.0,0.0,0.0,0.0,0.0,0.0,0.0,0.0,0.0,0.0,0.0,0.0,0.0,0.0,0.0,0.0,0.0,0.0,0.0,0.0,0.0,0.0,0.0,0.0,0.0,0.0,0.0,0.0,0.0,0.0,0.0,0.0,0.0,0.0,0.0,0.0,0.0,0.0,0.0,0.0,0.0,0.0,0.0,0.0,0.0,0.0,0.0,0.0,0.0,0.0,0.0,0.0,0.0,0.0,0.0,0.0,0.0,0.0,0.0,0.0,0.0,0.0,0.0,0.0,0.0,0.0,0.0,0.0,0.0,0.0,0.0,0.0,0.0,0.0,0.0,0.0,0.0,0.0,0.0,0.0,0.0,0.0,0.0,0.0,2.3131,2.4542,2.4172,0.0,2.5223,0.0,0.0,0.0,0.0,0.0,0.0,0.0,0.0,0.0,0.0,0.0,0.0,0.0,0.0,0.0,0.0,0.0,0.0,0.0,0.0,0.0,0.0,0.0,0.0,0.0,0.0,0.0,0.0,0.0,0.0,0.0,0.0,0.0,0.0,0.0,0.0,0.0,0.0,0.0,0.0,0.0,0.0,0.0,0.0,0.0,0.0,0.0,0.0,0.0,0.0,0.0,0.0,0.0,0.0,0.0,0.0,0.0,0.0,0.0,0.0,0.0,0.0,0.0,0.0,0.0,0.0,0.0,0.0,0.0,0.0,0.0,0.0,0.0,0.0,0.0,0.0,0.0,0.0,0.0,0.0,0.0,0.0,0.0,0.0,0.0,0.0,0.0,0.0,0.0,0.0,0.0,0.0,0.0,0.0,0.0,0.0,0.0,0.0,0.0,0.0,0.0,0.0,0.0,0.0,0.0,0.0,0.0,0.0,0.0,0.0,2.143,2.2543,2.1962,2.2256,0.0,0.0,0.0,0.0,0.0,0.0,0.0,0.0,0.0,0.0,0.0,0.0,0.0,0.0,0.0,0.0,0.0,0.0,0.0,0.0,0.0,0.0,0.0,0.0,0.0,0.0,0.0,0.0,0.0,0.0,0.0,0.0,0.0,0.0,0.0,0.0,0.0,0.0,0.0,0.0,0.0,0.0,0.0,0.0,0.0,0.0,0.0,0.0,0.0,0.0,0.0,0.0,0.0,0.0,0.0,0.0,0.0,0.0,0.0,0.0,0.0,0.0,0.0,0.0,0.0,0.0,0.0,0.0,0.0,0.0,0.0,0.0,0.0,0.0,0.0,0.0,0.0,0.0,0.0,0.0,0.0,0.0,0.0,0.0,0.0,0.0,0.0,0.0,0.0,0.0,0.0,0.0,0.0,0.0,0.0,0.0,0.0,0.0,0.0,0.0,0.0,0.0,0.0,0.0,0.0,0.0,0.0,0.0,0.0,0.0,1.9588,1.9949,2.0995,2.0675,2.1201,2.2775,0.0,0.0,0.0,0.0,0.0,0.0,0.0,0.0,0.0,0.0,0.0,0.0,0.0,0.0,0.0,0.0,0.0,0.0,0.0,0.0,0.0,0.0,0.0,0.0,0.0,0.0,0.0,0.0,0.0,0.0,0.0,0.0,0.0,0.0,0.0,0.0,0.0,0.0,0.0,0.0,0.0,0.0,0.0,0.0,0.0,0.0,0.0,0.0,0.0,0.0,0.0,0.0,0.0,0.0,0.0,0.0,0.0,0.0,0.0,0.0,0.0,0.0,0.0,0.0,0.0,0.0,0.0,0.0,0.0,0.0,0.0,0.0,0.0,0.0,0.0,0.0,0.0,0.0,0.0,0.0,0.0,0.0,0.0,0.0,0.0,0.0,0.0,0.0,0.0,0.0,0.0,0.0,0.0,0.0,0.0,0.0,0.0,0.0,0.0,0.0,0.0,0.0,0.0,0.0,0.0,0.0,0.0,0.0,1.9362,1.8508,1.8942,2.0786,2.1269,2.2428,0.0,0.0,0.0,0.0,0.0,0.0,0.0,0.0,0.0,0.0,0.0,0.0,0.0,0.0,0.0,0.0,0.0,0.0,0.0,0.0,0.0,0.0,0.0,0.0,0.0,0.0,0.0,0.0,0.0,0.0,0.0,0.0,0.0,0.0,0.0,0.0,0.0,0.0,0.0,0.0,0.0,0.0,0.0,0.0,0.0,0.0,0.0,0.0,0.0,0.0,0.0,0.0,0.0,0.0,0.0,0.0,0.0,0.0,0.0,0.0,0.0,0.0,0.0,0.0,0.0,0.0,0.0,0.0,0.0,0.0,0.0,0.0,0.0,0.0,0.0,0.0,0.0,0.0,0.0,0.0,0.0,0.0,0.0,0.0,0.0,0.0,0.0,0.0,0.0,0.0,0.0,0.0,0.0,0.0,0.0,0.0,0.0,0.0,0.0,0.0,0.0,0.0,0.0,0.0,0.0,0.0,0.0,0.0,0.0,1.6902,1.7305,1.8109,1.9399,1.9944,2.1205,0.0,0.0,0.0,0.0,0.0,0.0,0.0,0.0,0.0,0.0,0.0,0.0,0.0,0.0,0.0,0.0,0.0,0.0,0.0,0.0,0.0,0.0,0.0,0.0,0.0,0.0,0.0,0.0,0.0,0.0,0.0,0.0,0.0,0.0,0.0,0.0,0.0,0.0,0.0,0.0,0.0,0.0,0.0,0.0,0.0,0.0,0.0,0.0,0.0,0.0,0.0,0.0,0.0,0.0,0.0,0.0,0.0,0.0,0.0,0.0,0.0,0.0,0.0,0.0,0.0,0.0,0.0,0.0,0.0,0.0,0.0,0.0,0.0,0.0,0.0,0.0,0.0,0.0,0.0,0.0,0.0,0.0,0.0,0.0,0.0,0.0,0.0,0.0,0.0,0.0,0.0,0.0,0.0,0.0,0.0,0.0,0.0,0.0,0.0,0.0,0.0,0.0,0.0,0.0,0.0,0.0,0.0,0.0,0.0,1.5438,0.0,1.7742,1.8432,1.9364,2.0584,0.0,0.0,0.0,0.0,0.0,0.0,0.0,0.0,0.0,0.0,0.0,0.0,0.0,0.0,0.0,0.0,0.0,0.0,0.0,0.0,0.0,0.0,0.0,0.0,0.0,0.0,0.0,0.0,0.0,0.0,0.0,0.0,0.0,0.0,0.0,0.0,0.0,0.0,0.0,0.0,0.0,0.0,0.0,0.0,0.0,0.0,0.0,0.0,0.0,0.0,0.0,0.0,0.0,0.0,0.0,0.0,0.0,0.0,0.0,0.0,0.0,0.0,0.0,0.0,0.0,0.0,0.0,0.0,0.0,0.0,0.0,0.0,0.0,0.0,0.0,0.0,0.0,0.0,0.0,0.0,0.0,0.0,0.0,0.0,0.0,0.0,0.0,0.0,0.0,0.0,0.0,0.0,0.0,0.0,0.0,0.0,0.0,0.0,0.0,0.0,0.0,0.0,0.0,0.0,0.0,0.0,0.0,0.0,1.5428,1.5188,1.6661,1.755,1.8128,1.9494,2.0643,0.0,0.0,0.0,0.0,0.0,0.0,0.0,0.0,0.0,0.0,0.0,0.0,0.0,0.0,0.0,0.0,0.0,0.0,0.0,0.0,0.0,0.0,0.0,0.0,0.0,0.0,0.0,0.0,0.0,0.0,0.0,0.0,0.0,0.0,0.0,0.0,0.0,0.0,0.0,0.0,0.0,0.0,0.0,0.0,0.0,0.0,0.0,0.0,0.0,0.0,0.0,0.0,0.0,0.0,0.0,0.0,0.0,0.0,0.0,0.0,0.0,0.0,0.0,0.0,0.0,0.0,0.0,0.0,0.0,0.0,0.0,0.0,0.0,0.0,0.0,0.0,0.0,0.0,0.0,0.0,0.0,0.0,0.0,0.0,0.0,0.0,0.0,0.0,0.0,0.0,0.0,0.0,0.0,0.0,0.0,0.0,0.0,0.0,0.0,0.0,0.0,0.0,0.0,0.0,0.0,0.0,0.0,0.0,0.0,1.3566,1.4545,1.5551,1.6556,1.7659,1.9081,0.0,0.0,0.0,0.0,0.0,0.0,0.0,0.0,0.0,0.0,0.0,0.0,0.0,0.0,0.0,0.0,0.0,0.0,0.0,0.0,0.0,0.0,0.0,0.0,0.0,0.0,0.0,0.0,0.0,0.0,0.0,0.0,0.0,0.0,0.0,0.0,0.0,0.0,0.0,0.0,0.0,0.0,0.0,0.0,0.0,0.0,0.0,0.0,0.0,0.0,0.0,0.0,0.0,0.0,0.0,0.0,0.0,0.0,0.0,0.0,0.0,0.0,0.0,0.0,0.0,0.0,0.0,0.0,0.0,0.0,0.0,0.0,0.0,0.0,0.0,0.0,0.0,0.0,0.0,0.0,0.0,0.0,0.0,0.0,0.0,0.0,0.0,0.0,0.0,0.0,0.0,0.0,0.0,0.0,0.0,0.0,0.0,0.0,0.0,0.0,0.0,0.0,0.0,0.0,0.0,0.0,0.0,0.0,0.0,1.1605,1.342,1.4741,1.5545,1.6636,1.7872,1.9308,0.0,0.0,0.0,0.0,0.0,0.0,0.0,0.0,0.0,0.0,0.0,0.0,0.0,0.0,0.0,0.0,0.0,0.0,0.0,0.0,0.0,0.0,0.0,0.0,0.0,0.0,0.0,0.0,0.0,0.0,0.0,0.0,0.0,0.0,0.0,0.0,0.0,0.0,0.0,0.0,0.0,0.0,0.0,0.0,0.0,0.0,0.0,0.0,0.0,0.0,0.0,0.0,0.0,0.0,0.0,0.0,0.0,0.0,0.0,0.0,0.0,0.0,0.0,0.0,0.0,0.0,0.0,0.0,0.0,0.0,0.0,0.0,0.0,0.0,0.0,0.0,0.0,0.0,0.0,0.0,0.0,0.0,0.0,0.0,0.0,0.0,0.0,0.0,0.0,0.0,0.0,0.0,0.0,0.0,0.0,0.0,0.0,0.0,0.0,0.0,0.0,0.0,0.0,0.0,0.0,0.0,0.0,0.0,0.9385,1.2997,1.4803,1.4903,1.613,1.6881,0.0,0.0,0.0,0.0,0.0,0.0,0.0,0.0,0.0,0.0,0.0,0.0,0.0,0.0,0.0,0.0,0.0,0.0,0.0,0.0,0.0,0.0,0.0,0.0,0.0,0.0,0.0,0.0,0.0,0.0,0.0,0.0,0.0,0.0,0.0,0.0,0.0,0.0,0.0,0.0,0.0,0.0,0.0,0.0,0.0,0.0,0.0,0.0,0.0,0.0,0.0,0.0,0.0,0.0,0.0,0.0,0.0,0.0,0.0,0.0,0.0,0.0,0.0,0.0,0.0,0.0,0.0,0.0,0.0,0.0,0.0,0.0,0.0,0.0,0.0,0.0,0.0,0.0,0.0,0.0,0.0,0.0,0.0,0.0,0.0,0.0,0.0,0.0,0.0,0.0,0.0,0.0,0.0,0.0,0.0,0.0,0.0,0.0,0.0,0.0,0.0,0.0,0.0,0.0,0.0,0.0,0.0,0.0,0.0,0.8805,0.9625,1.1088,1.3346,1.356,1.4615,0.0,0.0,0.0,0.0,0.0,0.0,0.0,0.0,0.0,0.0,0.0,0.0,0.0,0.0,0.0,0.0,0.0,0.0,0.0,0.0,0.0,0.0,0.0,0.0,0.0,0.0,0.0,0.0,0.0,0.0,0.0,0.0,0.0,0.0,0.0,0.0,0.0,0.0,0.0,0.0,0.0,0.0,0.0,0.0,0.0,0.0,0.0,0.0,0.0,0.0,0.0,0.0,0.0,0.0,0.0,0.0,0.0,0.0,0.0,0.0,0.0,0.0,0.0,0.0,0.0,0.0,0.0,0.0,0.0,0.0,0.0,0.0,0.0,0.0,0.0,0.0,0.0,0.0,0.0,0.0,0.0,0.0,0.0,0.0,0.0,0.0,0.0,0.0,0.0,0.0,0.0,0.0,0.0,0.0,0.0,0.0,0.0,0.0,0.0,0.0,0.0,0.0,0.0,0.0,0.0,0.0,0.0,0.0,0.5717,0.6045,0.517,0.5485,0.7062,0.9587,1.1995,0.0,0.0,0.0,0.0,0.0,0.0,0.0,0.0,0.0,0.0,0.0,0.0,0.0,0.0,0.0,0.0,0.0,0.0,0.0,0.0,0.0,0.0,0.0,0.0,0.0,0.0,0.0,0.0,0.0,0.0,0.0,0.0,0.0,0.0,0.0,0.0,0.0,0.0,0.0,0.0,0.0,0.0,0.0,0.0,0.0,0.0,0.0,0.0,0.0,0.0,0.0,0.0,0.0,0.0,0.0,0.0,0.0,0.0,0.0,0.0,0.0,0.0,0.0,0.0,0.0,0.0,0.0,0.0,0.0,0.0,0.0,0.0,0.0,0.0,0.0,0.0,0.0,0.0,0.0,0.0,0.0,0.0,0.0,0.0,0.0,0.0,0.0,0.0,0.0,0.0,0.0,0.0,0.0,0.0,0.0,0.0,0.0,0.0,0.0,0.0,0.0,0.0,0.0,0.0,0.0,0.0,0.0,0.0,0.2711,0.1783,0.016,-0.1115,-0.1692,0.4619,0.8955,0.0,0.0,0.0,0.0,0.0,0.0,0.0,0.0,0.0,0.0,0.0,0.0,0.0,0.0,0.0,0.0,0.0,0.0,0.0,0.0,0.0,0.0,0.0,0.0,0.0,0.0,0.0,0.0,0.0,0.0,0.0,0.0,0.0,0.0,0.0,0.0,0.0,0.0,0.0,0.0,0.0,0.0,0.0,0.0,0.0,0.0,0.0,0.0,0.0,0.0,0.0,0.0,0.0,0.0,0.0,0.0,0.0,0.0,0.0,0.0,0.0,0.0,0.0,0.0,0.0,0.0,0.0,0.0,0.0,0.0,0.0,0.0,0.0,0.0,0.0,0.0,0.0,0.0,0.0,0.0,0.0,0.0,0.0,0.0,0.0,0.0,0.0,0.0,0.0,0.0,0.0,0.0,0.0,0.0,0.0,0.0,0.0,0.0,0.0,0.0,0.0,0.0,0.0,0.0,0.0,0.0,0.0,0.0,-0.071,-0.288,-0.5341,-0.7277,-0.8777,-0.115,0.3687,0.0,0.0,0.0,0.0,0.0,0.0,0.0,0.0,0.0,0.0,0.0,0.0,0.0,0.0,0.0,0.0,0.0,0.0,0.0,0.0,0.0,0.0,0.0,0.0,0.0,0.0,0.0,0.0,0.0,0.0,0.0,0.0,0.0,0.0,0.0,0.0,0.0,0.0,0.0,0.0,0.0,0.0,0.0,0.0,0.0,0.0,0.0,0.0,3.2541,0.0,0.0,0.0,0.0,0.0,0.0,0.0,0.0,0.0,0.0,0.0,0.0,0.0,0.0,0.0,0.0,0.0,0.0,0.0,0.0,0.0,0.0,0.0,0.0,0.0,0.0,0.0,0.0,0.0,0.0,0.0,0.0,0.0,0.0,0.0,0.0,0.0,0.0,0.0,0.0,0.0,0.0,0.0,0.0,0.0,0.0,0.0,0.0,0.0,0.0,0.0,0.0,0.0,0.0,0.0,0.0,0.0,0.0,0.0,-0.4206,-0.7351,-1.0536,-1.3548,-1.6086,-1.157,-0.6005,0.0,0.0,0.0,0.0,0.0,0.0,0.0,0.0,0.0,0.0,0.0,0.0,0.0,0.0,0.0,0.0,0.0,0.0,0.0,0.0,0.0,0.0,0.0,0.0,0.0,0.0,0.0,0.0,0.0,0.0,0.0,0.0,0.0,0.0,0.0,0.0,0.0,0.0,0.0,0.0,0.0,0.0,0.0,0.0,0.0,0.0,0.0,0.0,0.0,0.0,0.0,0.0,0.0,0.0,0.0,0.0,0.0,0.0,0.0,0.0,0.0,0.0,0.0,0.0,0.0,0.0,0.0,0.0,0.0,0.0,0.0,0.0,0.0,0.0,0.0,0.0,0.0,0.0,0.0,0.0,0.0,0.0,0.0,0.0,0.0,0.0,0.0,0.0,0.0,0.0,0.0,0.0,0.0,0.0,0.0,0.0,0.0,0.0,0.0,0.0,0.0,0.0,0.0,0.0,0.0,0.0,0.0,-0.5035,-0.788,-1.1839,-1.5681,-1.9607,-2.3417,-2.2218,-1.6315,-0.5538,0.0,0.0,0.0,0.0,0.0,0.0,0.0,0.0,0.0,0.0,0.0,0.0,0.0,0.0,0.0,0.0,0.0,0.0,0.0,0.0,0.0,0.0,0.0,0.0,0.0,0.0,0.0,0.0,0.0,0.0,0.0,0.0,0.0,0.0,0.0,0.0,0.0,0.0,2.3909,2.3458,0.0,0.0,0.0,0.0,0.0,0.0,0.0,0.0,2.9335,0.0,0.0,0.0,0.0,0.0,0.0,0.0,0.0,0.0,0.0,0.0,0.0,0.0,0.0,0.0,0.0,0.0,0.0,0.0,0.0,0.0,0.0,0.0,0.0,0.0,0.0,0.0,0.0,0.0,0.0,0.0,0.0,0.0,0.0,0.0,0.0,0.0,0.0,0.0,0.0,0.0,0.0,0.0,0.0,0.0,0.0,0.0,0.0,0.0,0.0,0.0,0.0,0.0,0.0,0.0,0.0,-0.5568,-0.8205,-1.1951,-1.6872,-2.0931,-2.476,-2.8294,-2.623,-2.1898,-1.5351,0.0,0.0,0.0,0.0,0.0,0.0,0.0,0.0,0.0,0.0,0.0,0.0,0.0,0.0,0.0,0.0,0.0,0.0,0.0,0.0,0.0,0.0,0.0,0.0,0.0,0.0,0.0,0.0,0.0,0.0,0.0,0.0,0.0,0.0,0.0,0.0,0.0,0.0,0.0,2.1912,2.1323,0.0,0.0,0.0,0.0,0.0,0.0,0.0,0.0,2.9945,0.0,0.0,0.0,0.0,0.0,0.0,0.0,0.0,0.0,0.0,0.0,0.0,0.0,0.0,0.0,0.0,0.0,0.0,0.0,0.0,0.0,0.0,0.0,0.0,0.0,0.0,0.0,0.0,0.0,0.0,0.0,0.0,0.0,0.0,0.0,0.0,0.0,0.0,0.0,0.0,0.0,0.0,0.0,0.0,0.0,0.0,0.0,0.0,0.0,0.0,0.0,0.0,0.0,0.0,0.0,-0.8177,-1.1593,-1.5806,-2.0871,-2.4713,-2.8264,-3.1607,-2.9675,-2.5966,0.0,0.0,0.0,0.0,0.0,0.0,0.0,0.0,0.0,0.0,0.0,0.0,0.0,0.0,0.0,0.0,0.0,0.0,0.0,0.0,0.0,0.0,0.0,0.0,0.0,0.0,0.0,0.0,0.0,0.0,0.0,0.0,0.0,0.0,0.0,0.0,0.0,0.0,0.0,0.0,2.168,2.1856,2.4772,0.0,0.0,0.0,0.0,0.0,0.0,2.7638,2.7139,0.0,0.0,0.0,0.0,0.0,0.0,0.0,0.0,0.0,0.0,0.0,0.0,0.0,0.0,0.0,0.0,0.0,0.0,0.0,0.0,0.0,0.0,0.0,0.0,0.0,0.0,0.0,0.0,0.0,0.0,0.0,0.0,0.0,0.0,0.0,0.0,0.0,0.0,0.0,0.0,0.0,0.0,0.0,0.0,0.0,0.0,0.0,0.0,0.0,0.0,0.0,0.0,0.0,0.0,0.0,-1.0757,-1.4592,-1.9015,-2.405,-2.7444,-3.0753,-3.3852,-3.1067,-2.7587,0.0,0.0,0.0,0.0,0.0,0.0,0.0,0.0,0.0,0.0,0.0,0.0,0.0,0.0,0.0,0.0,0.0,0.0,0.0,0.0,0.0,0.0,0.0,0.0,0.0,0.0,0.0,0.0,0.0,0.0,0.0,0.0,0.0,0.0,0.0,0.0,0.0,0.0,0.0,0.0,0.0,2.2325,2.5862,2.395,0.0,0.0,0.0,0.0,2.5731,2.5656,0.0,0.0,0.0,0.0,0.0,0.0,0.0,0.0,0.0,0.0,0.0,0.0,0.0,0.0,0.0,0.0,0.0,0.0,0.0,0.0,0.0,0.0,0.0,0.0,0.0,0.0,0.0,0.0,0.0,0.0,0.0,0.0,0.0,0.0,0.0,0.0,0.0,0.0,0.0,0.0,0.0,0.0,0.0,0.0,0.0,0.0,0.0,0.0,0.0,0.0,0.0,0.0,0.0,0.0,0.0,0.0,-1.2832,-1.6388,-2.0782,-2.5882,-2.9049,-3.1972,-3.4646,-2.8011,-2.4696,0.0,0.0,0.0,0.0,0.0,0.0,0.0,0.0,0.0,0.0,0.0,0.0,0.0,0.0,0.0,0.0,0.0,0.0,0.0,0.0,0.0,0.0,0.0,0.0,0.0,0.0,0.0,0.0,0.0,0.0,0.0,0.0,0.0,0.0,0.0,0.0,0.0,0.0,0.0,0.0,0.0,2.0265,2.1816,2.0828,2.0411,0.0,0.0,2.668,2.8613,3.0464,0.0,0.0,0.0,0.0,0.0,0.0,0.0,0.0,0.0,0.0,0.0,0.0,0.0,0.0,0.0,0.0,0.0,0.0,0.0,0.0,0.0,0.0,0.0,0.0,0.0,0.0,0.0,0.0,0.0,0.0,0.0,0.0,0.0,0.0,0.0,0.0,0.0,0.0,0.0,0.0,0.0,0.0,0.0,0.0,0.0,0.0,0.0,0.0,0.0,0.0,0.0,0.0,0.0,0.0,0.0,-0.9937,-1.4221,-1.8554,-2.3037,-2.747,-3.0911,-3.3855,-3.6224,-2.9903,-2.6761,0.0,0.0,0.0,0.0,0.0,0.0,0.0,0.0,0.0,0.0,0.0,0.0,0.0,0.0,0.0,0.0,0.0,0.0,0.0,0.0,0.0,0.0,0.0,0.0,0.0,0.0,0.0,0.0,0.0,0.0,0.0,0.0,0.0,0.0,0.0,0.0,0.0,0.0,0.0,0.0,0.0,0.0,2.1332,2.0487,0.0,0.0,0.0,2.3991,2.3675,0.0,0.0,0.0,0.0,0.0,0.0,0.0,0.0,0.0,0.0,0.0,0.0,0.0,0.0,0.0,0.0,0.0,0.0,0.0,0.0,0.0,0.0,0.0,0.0,0.0,0.0,0.0,0.0,0.0,0.0,0.0,0.0,0.0,0.0,0.0,0.0,0.0,0.0,0.0,0.0,0.0,0.0,0.0,0.0,0.0,0.0,0.0,0.0,0.0,0.0,0.0,0.0,0.0,0.0,0.0,0.0,0.0,-1.5434,-2.0431,-2.4973,-2.8906,-3.2501,-3.5432,-3.7485,-3.2538,0.0,0.0,0.0,0.0,0.0,0.0,0.0,0.0,0.0,0.0,0.0,0.0,0.0,0.0,0.0,0.0,0.0,0.0,0.0,0.0,0.0,0.0,0.0,0.0,0.0,0.0,0.0,-0.1828,0.0,0.0,0.0,0.0,0.0,0.0,0.0,0.0,0.0,0.0,0.0,0.0,0.0,0.0,2.0027,2.0411,1.991,2.0148,0.0,0.0,2.1678,2.1231,2.5488,2.6634,0.0,0.0,0.0,0.0,0.0,0.0,0.0,0.0,0.0,0.0,0.0,0.0,0.0,0.0,0.0,0.0,0.0,0.0,0.0,0.0,0.0,0.0,0.0,0.0,0.0,0.0,0.0,0.0,0.0,0.0,0.0,0.0,0.0,0.0,0.0,0.0,0.0,0.0,0.0,0.0,0.0,0.0,0.0,0.0,0.0,0.0,0.0,0.0,0.0,0.0,0.0,0.0,0.0,0.0,-1.3074,-1.6849,-2.1751,-2.632,-3.0452,-3.3346,-3.6069,-3.8437,-3.466,-3.1998,0.0,0.0,0.0,0.0,0.0,0.0,0.0,0.0,0.0,0.0,0.0,0.0,0.0,0.0,0.0,0.0,0.0,0.0,0.0,0.0,0.0,0.0,0.0,0.0,0.0,0.0,0.0,0.0,0.0,0.0,0.0,0.0,0.0,0.0,0.0,0.0,0.0,0.0,0.0,0.0,0.0,1.8858,1.7449,1.7612,1.9437,0.0,2.1801,2.1527,2.5821,2.89,2.8642,2.1974,0.0,0.0,0.0,0.0,0.0,0.0,0.0,0.0,0.0,0.0,0.0,0.0,0.0,0.0,0.0,0.0,0.0,0.0,0.0,0.0,0.0,0.0,0.0,0.0,0.0,0.0,0.0,0.0,0.0,0.0,0.0,0.0,0.0,0.0,0.0,0.0,0.0,0.0,0.0,0.0,0.0,0.0,0.0,0.0,0.0,0.0,0.0,0.0,0.0,0.0,0.0,0.0,0.0,-1.3982,-1.757,-2.2846,-2.724,-3.0754,-3.441,-3.7091,-3.8753,-3.5699,-3.3082,0.0,0.0,0.0,0.0,0.0,0.0,0.0,0.0,0.0,0.0,0.0,0.0,0.0,0.0,0.0,0.0,0.0,0.0,0.0,0.0,0.0,0.0,0.0,0.0,0.0,0.0,0.0,0.0,0.4882,0.4515,0.127,0.0,0.0,0.0,0.0,0.0,0.0,0.0,0.0,0.0,0.0,1.5018,1.7257,1.8317,0.0,0.0,2.332,2.4475,2.4743,2.7308,2.5716,1.5246,1.4006,0.0,0.0,0.0,0.0,0.0,0.0,0.0,0.0,0.0,0.0,0.0,0.0,0.0,0.0,0.0,0.0,0.0,0.0,0.0,0.0,0.0,0.0,0.0,0.0,0.0,0.0,0.0,0.0,0.0,0.0,0.0,0.0,0.0,0.0,0.0,0.0,0.0,0.0,0.0,0.0,0.0,0.0,0.0,0.0,0.0,0.0,0.0,0.0,0.0,0.0,0.0,0.0,-1.5428,-1.8638,-2.4108,-2.8385,-3.1511,-3.5084,-3.7647,-3.9024,-3.7332,-3.5189,0.0,0.0,0.0,0.0,0.0,0.0,0.0,0.0,0.0,0.0,0.0,0.0,0.0,0.0,0.0,0.0,0.0,0.0,0.0,0.0,0.0,0.0,0.0,0.0,0.0,0.0,0.0,0.0,0.3062,0.1907,-0.1798,0.0,0.0,0.0,0.0,0.0,0.0,0.0,0.0,0.0,0.0,1.2624,1.5374,1.6156,1.6639,1.7217,1.9194,2.0097,1.8579,1.9932,1.7483,0.6876,0.0,0.0,0.0,0.0,0.0,0.0,0.0,0.0,0.0,0.0,0.0,0.0,0.0,0.0,0.0,0.0,0.0,0.0,0.0,0.0,0.0,0.0,0.0,0.0,0.0,0.0,0.0,-2.1037,0.0,0.0,-1.7023,0.0,0.0,0.0,0.0,0.0,0.0,0.0,0.0,0.0,0.0,0.0,0.0,0.0,0.0,0.0,0.0,0.0,0.0,0.0,0.0,0.0,0.0,-1.7492,-2.0442,-2.5628,-2.9835,-3.2882,-3.5291,-3.7518,-3.9558,-3.9792,-3.8714,-3.6186,0.0,0.0,0.0,0.0,0.0,0.0,0.0,0.0,0.0,0.0,0.0,0.0,0.0,0.0,0.0,0.0,0.0,0.0,0.0,0.0,0.0,0.0,0.0,0.0,0.0,0.0,-1.1455,-0.7931,-0.4922,0.0,0.0,0.0,0.0,0.0,0.0,0.0,0.0,0.0,0.3112,0.8904,1.2468,1.0841,0.9747,0.9379,0.9974,0.7771,0.6073,0.6944,0.6019,0.308,0.0,0.0,0.0,0.0,0.0,0.0,0.0,0.0,0.0,0.0,0.0,0.0,0.0,0.0,0.0,0.0,0.0,0.0,0.0,0.0,0.0,0.0,0.0,0.0,0.0,0.0,0.0,-2.6068,-2.4556,0.0,0.0,0.0,0.0,0.0,0.0,0.0,0.0,0.0,0.0,0.0,-2.5334,-2.4719,0.0,0.0,0.0,0.0,0.0,0.0,0.0,0.0,0.0,0.0,0.0,0.0,-1.9061,-2.2221,-2.6549,-3.0345,-3.3591,-3.5416,-3.7267,-3.9121,-3.9935,-3.9228,-3.6906,0.0,0.0,0.0,0.0,0.0,0.0,0.0,0.0,0.0,0.0,0.0,0.0,0.0,0.0,0.0,0.0,0.0,0.0,0.0,0.0,0.0,0.0,0.0,0.0,0.0,-0.785,0.0,0.0,0.0,0.0,0.0,0.0,0.0,0.0,0.0,0.0,0.0,-0.0656,0.2354,0.1494,0.1308,0.3243,0.3734,0.3423,0.0,0.0,0.0,0.0,0.0,0.0,0.0,0.0,0.0,0.0,0.0,0.0,0.0,0.0,-2.0737,-0.8781,-0.3334,-0.0607,-0.0864,0.0,0.0,0.0,0.0,0.0,0.0,0.0,0.0,0.0,0.0,0.0,0.0,0.0,0.0,-2.9177,0.0,-2.683,0.0,0.0,0.0,0.0,0.0,0.0,0.0,0.0,-2.7914,-2.9031,-2.988,-2.9008,-2.8446,0.0,-2.6394,-2.2612,0.0,0.0,0.0,0.0,0.0,0.0,0.0,0.0,-2.0583,-2.36,-2.7311,-3.0736,-3.3741,-3.5278,-3.6891,-3.8673,-4.0184,-4.0307,-3.8929,-3.5508,-3.259,0.0,0.0,0.0,0.0,0.0,0.0,0.0,0.0,0.0,0.0,0.0,0.0,0.0,0.0,0.0,0.0,0.0,0.0,0.0,0.0,0.0,0.0,0.0,-1.0466,0.0,0.0,0.0,0.0,0.0,0.0,0.0,0.0,0.0,-0.6845,-0.5128,-0.3005,0.0086,-0.3106,-0.4923,-0.2682,0.0,0.0,0.0,0.0,0.0,0.0,0.0,-1.2597,-1.9862,-2.3145,-2.6346,-3.0871,-3.3011,-3.3695,-3.2348,0.0,0.0,-1.5819,-0.5633,0.1203,0.0919,0.5446,0.9368,0.8974,0.9604,1.035,0.0,0.0,0.0,0.0,0.0,0.0,0.0,0.0,-3.3481,-3.1762,0.0,-2.9307,0.0,0.0,0.0,0.0,-2.6489,-2.8771,0.0,0.0,-3.5363,-3.6223,-3.3539,-3.2631,-3.1873,-3.1045,-2.8503,-2.6276,-2.4459,-2.2977,0.0,0.0,0.0,0.0,0.0,0.0,-2.2183,-2.4755,-2.796,-3.0941,-3.3566,-3.4845,-3.6424,-3.8427,-4.0559,-4.1807,-4.2027,-3.9535,-3.8062,-3.7729,-3.2648,0.0,0.0,0.0,0.0,0.0,0.0,0.0,0.0,0.0,0.0,0.0,0.0,0.0,0.0,0.0,0.0,0.0,0.0,0.0,0.0,-1.6195,0.0,0.0,0.0,0.0,0.0,0.0,0.0,0.0,0.0,0.0,-1.2158,-0.769,-0.4287,-0.3967,0.0,0.0,0.0,0.0,-1.1991,-1.508,-1.665,-1.8446,-2.1286,-2.4883,-2.8592,-3.2672,0.0,0.0,-3.966,-3.9903,-3.8844,-3.5324,-3.041,-2.7053,-3.1308,-1.8638,-0.8732,-0.8628,0.2299,0.9516,0.9155,1.1541,1.1734,-4.023,0.0,0.0,0.0,0.0,-3.678,-3.6869,-3.7333,-3.677,-3.5676,-3.4164,-3.3451,0.0,0.0,0.0,0.0,0.0,0.0,-3.2056,-3.4812,-3.5134,-3.6089,-3.7617,-3.6202,-3.5302,-3.4923,-3.3592,-3.2387,-3.1272,-2.9757,-2.5792,-1.9595,0.0,0.0,0.0,0.0,-2.4183,-2.7052,-2.9164,-3.1604,-3.4409,-3.4923,-3.6525,-3.9322,-3.9843,-4.0534,-4.1518,-4.0295,-3.8742,-3.6902,-3.5472,0.0,0.0,0.0,0.0,0.0,0.0,0.0,0.0,0.0,0.0,0.0,0.0,0.0,0.0,0.0,0.0,0.0,0.0,0.0,-2.0239,-1.8232,-1.8134,0.0,0.0,0.0,0.0,0.0,0.0,0.0,0.0,0.0,-1.5854,-1.386,-1.2055,0.0,0.0,-1.7562,-1.7473,-2.0167,-2.3048,-2.5256,-2.5887,0.0,-2.9395,-3.0952,-3.2452,-3.4218,-3.8168,-4.1318,-4.1977,-4.3178,-4.3779,-4.2729,-4.1295,-4.0481,-3.9409,-1.5098,0.4572,0.7919,1.8401,2.7844,2.8397,2.8766,2.8753,-4.2137,-4.0773,-3.9319,-3.8841,-3.9047,-3.885,-3.9103,-3.9505,-3.8896,-3.7763,-3.625,-3.5848,-3.4155,-3.1471,-3.0773,0.0,0.0,0.0,-3.3718,-3.7072,-3.5884,-3.6543,-3.8605,-3.7383,-3.6552,-3.6259,-3.5507,-3.4522,-3.3403,-3.1604,-2.794,-2.2551,0.0,0.0,-2.0863,-2.3109,-2.5431,-2.7872,-2.9629,-3.1757,-3.429,-3.5287,-3.696,-3.9301,-3.9649,-4.0277,-4.1321,-4.1206,-4.0461,-3.9068,-3.7743,-3.5766,0.0,0.0,0.0,0.0,0.0,0.0,0.0,0.0,0.0,0.0,0.0,-1.6935,-1.8873,0.0,0.0,0.0,-2.0074,-2.0324,-2.0593,-2.0052,0.0,0.0,0.0,0.0,0.0,0.0,0.0,-2.443,-2.0462,-1.7831,-1.8752,-1.877,-1.7596,-1.4543,-1.9136,-2.2821,-2.2977,0.0,-2.816,-2.9781,-3.0277,-3.108,-3.2773,-3.4176,-3.5703,-3.7917,-4.1033,-4.3453,-4.4075,-4.5375,-4.6232,-4.6146,-4.6411,-4.6621,-4.6255,-2.2191,-0.0118,0.6393,1.8724,2.9553,3.4942,3.6182,3.6072,-4.3309,-4.245,-3.9249,-3.8595,-3.9693,-4.0351,-4.0566,-4.0506,-4.0148,-3.8512,-3.6186,-3.6842,-3.5014,-3.1366,-3.0908,0.0,-3.3888,-3.3824,-3.5213,-3.7638,-3.7256,-3.7253,-3.7563,-3.6775,-3.6157,-3.5751,-3.5043,-3.3782,-3.2212,-3.0277,-2.8305,-2.6275,-2.6118,-2.4969,-2.2991,-2.4469,-2.6078,-2.7598,-2.9462,-3.1444,-3.3668,-3.5865,-3.7578,-3.873,-3.977,-4.0666,-4.136,-4.1984,-4.2465,-4.2619,-3.946,-3.7504,-3.7062,0.0,0.0,0.0,0.0,0.0,0.0,0.0,0.0,0.0,0.0,0.0,0.0,0.0,0.0,0.0,-2.2457,0.0,-1.8611,-2.2081,0.0,0.0,0.0,-2.4859,-2.4022,-2.1702,-2.0437,-2.1154,0.0,0.0,-2.0863,-2.2254,-2.1136,-1.5538,-1.9918,-2.4022,-2.5006,-2.7289,-2.9285,-3.0556,-3.146,-3.2379,-3.3519,-3.5596,-3.8473,-4.2004,-4.4227,-4.4921,-4.5326,-4.6074,-4.6493,-4.5916,-4.6581,-4.7128,-4.7151,-3.5648,-2.3184,-0.7622,0.7354,2.1152,3.2469,3.5263,3.5045,-4.1896,-4.1755,-4.0419,-4.0672,-4.1947,-4.1596,-4.1486,-4.1374,-4.0323,-3.9399,-3.856,-3.7481,-3.5968,-3.4186,-3.3958,-3.4361,-3.5224,-3.5081,-3.5903,-3.7448,-3.6527,-3.6375,-3.6884,-3.5718,-3.497,-3.4753,-3.4404,-3.3308,-3.1578,-3.1264,-2.9359,-2.6012,-2.6033,-2.5087,-2.3092,-2.3996,-2.5627,-2.7694,-2.8902,-3.1127,-3.4349,-3.6094,-3.7452,-3.8387,-3.9184,-3.9849,-4.0342,-4.0596,-4.073,-4.0692,-3.9861,-3.8686,-3.7183,-3.4871,0.0,0.0,0.0,0.0,0.0,0.0,0.0,0.0,0.0,-2.4185,-2.6297,0.0,-2.5073,0.0,-2.4083,-2.3611,-2.434,-2.535,0.0,0.0,-2.7169,-2.6764,-2.5887,-2.2179,-2.0601,-2.3122,-2.0601,-1.9214,-2.0731,-2.2285,-2.2613,-2.0801,-2.4127,-2.7118,-2.7762,-3.0568,-3.2553,-3.2648,-3.4333,-3.5926,-3.6027,-3.7954,-4.0152,-4.2323,-4.3135,-4.3517,-4.3786,-4.4064,-4.4248,-4.4214,-4.4415,-4.482,-4.5402,-4.1791,-3.429,-2.0414,-0.0483,1.9204,3.2014,3.4666,3.4542,-4.0715,-4.0836,-4.0316,-4.06,-4.1248,-4.1194,-4.1053,-4.0692,-3.961,-3.8683,-3.7977,-3.6402,-3.5459,-3.501,-3.48,-3.4868,-3.5249,-3.5118,-3.5493,-3.6215,-3.5478,-3.5296,-3.5526,-3.4762,-3.4269,-3.3859,-3.3643,-3.2593,-3.0964,-3.065,-2.9114,-2.6333,-2.6151,-2.5274,-2.3919,-2.4079,-2.509,-2.691,-2.8785,-3.1223,-3.42,-3.5669,-3.6466,-3.6705,-3.7349,-3.7423,-3.6942,-3.7187,-3.738,-3.7466,-3.762,-3.722,-3.6121,-3.4356,-3.2948,0.0,0.0,0.0,0.0,0.0,0.0,0.0,0.0,0.0,0.0,0.0,-2.7349,-2.7696,-2.6466,-2.65,-2.846,-2.8295,-2.8172,-2.8388,-2.6955,-2.5421,-2.3824,-2.0498,-1.9017,-2.0691,-1.8871,-1.8101,-1.9899,-2.167,-2.3133,-2.3731,-2.6208,-2.8298,-2.9275,-3.1796,-3.3685,-3.3933,-3.5593,-3.7091,-3.7468,-3.8771,-4.0213,-4.1503,-4.18,-4.2052,-4.3073,-4.3061,-4.3022,-4.3514,-4.3651,-4.3787,-4.4192,-4.3778,-3.8918,-2.5251,-0.8728,0.8362,2.3186,3.0143,3.3507,-3.958,-3.9722,-3.9436,-3.9205,-3.9073,-3.9688,-3.9718,-3.9253,-3.8296,-3.7068,-3.5686,-3.4506,-3.4166,-3.4455,-3.4289,-3.4346,-3.4481,-3.4563,-3.452,-3.4447,-3.4298,-3.4037,-3.3815,-3.3762,-3.346,-3.301,-3.2697,-3.1699,-3.0106,-2.939,-2.8239,-2.6706,-2.6138,-2.5435,-2.4628,-2.4268,-2.4697,-2.5906,-2.8828,-3.1306,-3.3346,-3.4345,-3.4631,-3.4233,-3.4666,-3.4311,-3.308,-3.3373,-3.3799,-3.4135,-3.4505,-3.4771,-3.4914,-3.3055,-3.2072,0.0,-3.0407,0.0,0.0,0.0,0.0,0.0,0.0,0.0,0.0,-3.0358,-2.9978,-2.98,-2.8892,-2.8977,-3.069,-3.0066,-2.8966,-2.7291,-2.518,-2.2916,-2.0646,-1.8591,-1.7382,-1.726,-1.6962,-1.7405,-1.9062,-2.0946,-2.2928,-2.4852,-2.67,-2.8194,-2.9514,-3.1536,-3.3342,-3.4363,-3.5528,-3.6619,-3.7649,-3.832,-3.9077,-4.0211,-4.0234,-4.0684,-4.2435,-4.2141,-4.2019,-4.2993,-4.3076,-4.3104,-4.3378,-4.3169,-3.9217,-2.8825,-1.6223,-0.2126,1.2645,2.4479,3.151,-3.8605,-3.8649,-3.7814,-3.7496,-3.7529,-3.7146,-3.7504,-3.8282,-3.6794,-3.5138,-3.3494,-3.3241,-3.3044,-3.2773,-3.3157,-3.3269,-3.3339,-3.366,-3.3611,-3.3217,-3.3082,-3.2744,-3.2222,-3.2061,-3.1924,-3.1797,-3.1237,-3.0271,-2.8937,-2.9178,-2.7655,-2.4608,-2.5558,-2.5068,-2.3311,0.0,0.0,0.0,-2.8803,-3.0479,-3.1227,-3.1017,-3.1101,-3.1515,-3.1748,0.0,-3.2354,-3.2613,-3.2914,-3.3323,-3.3579,0.0,0.0,0.0,0.0,0.0,0.0,0.0,0.0,0.0,0.0,0.0,-3.4457,-3.32,-3.2715,-3.142,-3.0362,-2.9732,-2.9321,-2.8864,-2.8436,-2.7817,-2.704,-2.6077,-2.4979,-2.3623,-2.1936,-2.0447,-1.9362,-1.8652,-1.8098,-1.8244,-1.9649,-2.096,-2.2457,-2.4431,-2.6166,-2.7579,-2.8512,-3.0358,-3.1911,-3.2951,-3.4513,-3.5749,-3.6406,-3.6888,-3.7336,-3.7826,-3.8175,-3.8785,-3.9894,-3.9674,-3.9779,-4.1234,-4.1047,-4.1094,-4.229,-4.1484,-4.0098,-3.8631,-2.0992,-0.2109,1.0221,2.1011,2.8905,-3.7204,-3.7098,-3.6632,-3.6332,0.0,-3.554,-3.5549,-3.5806,-3.5124,-3.384,-3.2191,-3.2132,-3.1928,-3.1649,-3.2101,-3.2259,-3.2232,-3.2173,-3.2152,-3.2178,-3.1748,-3.1523,-3.1509,-3.131,-3.1062,-3.0717,-3.0411,-2.9614,-2.8468,-2.8152,-2.708,-2.5205,-2.5368,-2.5037,-2.4297,-2.5108,-2.5986,-2.6769,-2.85,-2.9973,-3.1112,-3.1461,-3.139,-3.1086,-3.1526,0.0,0.0,0.0,0.0,0.0,0.0,0.0,0.0,-3.4283,0.0,-3.5011,-3.3973,-3.382,-3.501,-3.4851,-3.5144,-3.6257,-3.4552,-3.298,-3.1944,-3.0727,-2.9581,-2.8533,-2.8331,-2.8013,-2.7348,-2.6839,-2.6292,-2.5681,-2.4653,-2.3652,-2.2787,-2.1527,-2.0515,-1.9866,-1.9174,-1.9271,-2.0563,-2.1506,-2.2815,-2.4644,-2.5961,-2.7041,-2.8033,-2.9659,-3.1353,-3.2941,-3.4023,-3.508,-3.5774,-3.5873,-3.6242,-3.6933,-3.6824,-3.7194,-3.8559,-3.8218,-3.8209,-3.9481,-3.9452,-3.9564,-4.0171,-4.0028,-3.9986,-3.8669,-2.2843,-0.6335,0.1956,1.5812,2.8184,-3.5803,-3.5628,-3.5534,-3.5238,-3.4874,-3.43,-3.3635,-3.3038,0.0,0.0,0.0,-3.1084,-3.096,-3.0836,-3.1158,-3.1228,-3.1095,-3.0791,-3.073,-3.0922,-3.0309,-3.0174,-3.0496,-3.0295,-2.9968,-2.9504,-2.9525,-2.8961,-2.7887,-2.7058,-2.6533,-2.6237,-2.5468,-2.5438,-2.6042,-2.6938,-2.7455,-2.75,-2.831,-2.9518,-3.109,-3.1958,-3.1816,-3.0718,-3.1284,-3.1234,-3.0409,-3.1165,-3.1991,-3.2782,-3.3511,-3.3985,-3.4175,-3.369,-3.3584,-3.4003,-3.3406,-3.3659,-3.5187,-3.5287,-3.5471,-3.605,-3.3881,-3.2027,-3.0662,-2.9638,-2.8595,-2.7335,-2.72,-2.699,-2.6779,-2.6298,-2.5852,-2.5498,-2.4441,-2.3615,-2.3298,-2.2241,-2.1257,-2.0757,-1.9942,-1.993,-2.1036,-2.1686,-2.2895,-2.4719,-2.5482,-2.6399,-2.7696,-2.9439,-3.1229,-3.279,-3.3632,-3.4393,-3.5006,-3.5174,-3.5485,-3.6371,-3.5854,-3.5931,-3.7282,-3.7353,-3.7338,-3.8459,-3.8398,-3.8478,-3.8709,-3.9184,-3.8894,-3.7492,-2.1987,-0.7637,-0.3633,1.2679,2.7669,-3.4415,-3.4511,-3.3953,-3.3598,-3.3191,-3.2649,-3.1716,-3.0701,-3.1538,-3.1356,-3.0292,-3.0305,-3.0152,-3.0011,-3.0343,-3.0211,-2.9822,-3.0085,-2.9724,-2.8858,-2.8559,-2.8203,-2.7732,-2.7732,-2.7693,-2.7589,-2.7717,-2.722,-2.6311,-2.6668,-2.6511,-2.574,-2.6079,-2.6621,-2.7203,-2.76,-2.8192,-2.8982,-2.8654,-2.8748,-2.9287,-2.8702,-2.8372,-2.8292,-2.833,-2.8401,-2.8746,-2.9675,-3.0119,-3.0201,-3.149,-3.272,-3.3778,-3.3778,-3.4644,-3.6788,-3.618,-3.6124,-3.7074,-3.6449,-3.5392,-3.408,-3.2801,-3.1733,-3.0807,-2.9469,-2.835,-2.7496,-2.6993,-2.6602,-2.6251,-2.5565,-2.5123,-2.4884,-2.4464,-2.3886,-2.3327,-2.2638,-2.1723,-2.0638,-2.0,-1.9828,-2.0445,-2.0857,-2.1832,-2.3555,-2.4686,-2.5256,-2.7343,-2.9372,-3.0831,-3.1624,-3.2614,-3.3301,-3.3731,-3.4,-3.4524,-3.4934,-3.5209,-3.5584,-3.676,-3.6502,-3.6631,-3.8166,-3.787,-3.8012,-3.911,-3.9,-3.5912,-3.0061,-1.5735,-0.3689,0.3077,1.7456,2.7689,-3.3288,-3.3202,-3.297,-3.2562,-3.2153,-3.0893,-3.0274,-2.9891,-2.9383,-2.9406,-2.9677,-2.9741,-2.9599,-2.9456,-2.9496,-2.9185,-2.8662,-2.8338,-2.7911,-2.7468,-2.6999,-2.6791,-2.6905,-2.6947,-2.696,-2.7069,-2.7183,-2.6804,-2.6077,-2.6317,-2.6109,-2.5461,-2.5976,-2.6529,-2.7174,-2.765,-2.8304,-2.9059,-2.9287,-2.9553,-2.994,-2.9815,-2.9845,-3.0107,-3.0133,-3.0523,-3.1298,-3.1809,-3.2462,-3.3265,-3.3974,-3.4765,-3.5714,-3.564,-3.6092,-3.7248,-3.651,-3.6214,-3.6629,-3.5429,-3.3937,-3.2179,-3.1353,-3.0276,-2.8866,-2.829,-2.7597,-2.6729,-2.592,-2.5513,-2.5541,-2.4742,-2.4164,-2.4167,-2.3828,-2.3362,-2.2999,-2.2441,-2.1646,-2.0603,-2.0079,-1.9958,-2.0183,-2.0677,-2.1729,-2.3492,-2.4711,-2.6119,-2.7318,-2.903,-3.0457,-3.1112,-3.1898,-3.2649,-3.3225,-3.3733,-3.4203,-3.467,-3.5018,-3.5415,-3.5977,-3.5834,-3.6197,-3.6907,-3.7051,-3.7458,-3.8358,-3.876,-3.4436,-2.5157,-1.4003,-0.254,0.7877,1.9151,2.6387,-3.1913,-3.1837,-3.1825,-3.1504,-3.0818,-2.9273,-2.8857,-2.9133,-2.7731,-2.7718,-2.8767,-2.9015,-2.9118,-2.9118,-2.876,-2.8317,-2.7718,-2.682,-2.638,-2.6238,-2.5671,-2.5746,-2.6208,-2.6264,-2.6346,-2.6496,-2.6688,-2.6409,-2.5864,-2.5819,-2.5678,-2.5464,-2.5855,-2.644,-2.7071,-2.755,-2.8158,-2.8811,-2.9659,-3.0277,-3.0683,-3.1123,-3.1524,-3.1839,-3.2003,-3.2529,-3.3371,-3.3688,-3.4428,-3.5577,-3.5975,-3.6365,-3.6733,-3.6584,-3.6469,-3.6551,-3.5831,-3.5334,-3.5136,-3.379,-3.2213,-3.0601,-2.9983,-2.8939,-2.7284,-2.7033,-2.67,-2.5746,-2.5066,-2.4704,-2.4658,-2.4068,-2.3576,-2.3537,-2.3109,-2.2867,-2.2685,-2.2183,-2.1432,-2.0518,-2.017,-2.0069,-2.0238,-2.0805,-2.1978,-2.3669,-2.5591,-2.6901,-2.7485,-2.8732,-2.9919,-3.0778,-3.1476,-3.2332,-3.3346,-3.3787,-3.4203,-3.4728,-3.5,-3.5247,-3.5483,-3.567,-3.5963,-3.6306,-3.6758,-3.7377,-3.7566,-3.6163,-3.0917,-2.0098,-0.8623,0.1901,1.4139,2.1268,2.6515,-2.992,-3.0,-3.0091,-2.963,-2.8953,-2.777,-2.7334,-2.7429,-2.7162,-2.7058,-2.7139,-2.7891,-2.8474,-2.8978,-2.8305,-2.7642,-2.6959,-2.6208,-2.5573,-2.5063,-2.4885,-2.4933,-2.4992,-2.4992,-2.4992,-2.5135,-2.5664,-2.5566,-2.4798,-2.5113,-2.5332,-2.5336,-2.6344,-2.7057,-2.7467,-2.7645,-2.7978,-2.8527,-2.9325,-2.994,-3.0326,-3.0804,-3.1061,-3.11,-3.1201,-3.1596,-3.2417,-3.2995,-3.342,-3.3609,-3.4762,-3.5203,-3.4779,-3.4469,-3.4589,-3.5206,-3.4384,-3.3661,-3.3129,-3.1942,-3.0867,-2.9893,-2.9254,-2.8325,-2.7082,-2.6244,-2.5553,-2.4993,-2.4975,-2.4551,-2.378,-2.3602,-2.3374,-2.3026,-2.2786,-2.2741,-2.2604,-2.2183,-2.1432,-2.0396,-2.0232,-2.0183,-2.0194,-2.0805,-2.1978,-2.3826,-2.5494,-2.6707,-2.7144,-2.8386,-2.9553,-3.0435,-3.1422,-3.2398,-3.3164,-3.3715,-3.416,-3.4713,-3.4944,-3.5127,-3.54,-3.564,-3.5947,-3.6454,-3.7007,-3.755,-3.569,-3.2727,-2.2648,-1.057,0.0877,1.2259,2.3887,2.717,2.7169,-2.9073,-2.9154,-2.9143,-2.9023,-2.8522,-2.7086,-2.6682,-2.7153,-2.5732,-2.5495,-2.6152,-2.6163,-2.6659,-2.7476,-2.6873,-2.6207,-2.5701,-2.5228,-2.4745,-2.4296,-2.4273,-2.4418,-2.4562,-2.449,-2.4562,-2.479,-2.5135,-2.4821,-2.4171,-2.4217,-2.4445,-2.4805,-2.5476,-2.6063,-2.6592,-2.7019,-2.7464,-2.7944,-2.8947,-2.9339,-2.9293,-3.0312,-3.1157,-3.1523,-3.117,-3.1388,-3.2224,-3.2326,-3.2627,-3.3451,-3.3977,-3.4326,-3.4539,-3.4319,-3.423,-3.4202,-3.3315,-3.2525,-3.1957,-3.0955,-2.9983,-2.9038,-2.8312,-2.7351,-2.6277,-2.5733,-2.5022,-2.4181,-2.3788,-2.3566,-2.3313,-2.2874,-2.2453,-2.2356,-2.2105,-2.192,-2.1789,-2.1593,-2.1007,-2.0103,-2.0214,-2.0281,-2.0281,-2.1342,-2.2713,-2.4047,-2.5467,-2.6496,-2.6901,-2.8176,-2.9284,-2.9956,-3.087,-3.1917,-3.2875,-3.3486,-3.3935,-3.4348,-3.4574,-3.4793,-3.5262,-3.5496,-3.5794,-3.6392,-3.6228,-3.4296,-3.0059,-2.6004,-1.7881,-0.2719,1.244,2.3499,2.8698,2.8449,2.784,-2.8143,-2.8121,-2.791,-2.7939,-2.7772,-2.6287,-2.5972,-2.6306,-2.4712,-2.445,-2.5084,-2.4669,-2.4756,-2.5341,-2.5212,-2.4966,-2.4602,-2.4007,-2.3619,-2.3372,-2.3361,-2.3666,-2.4055,-2.4043,-2.42,-2.4574,-2.4718,-2.446,-2.3929,-2.3854,-2.4022,-2.4413,-2.4717,-2.5104,-2.5632,-2.6201,-2.6659,-2.7179,-2.804,-2.8449,-2.8568,-2.9613,-3.0576,-3.1166,-3.0877,-3.1085,-3.195,-3.1593,-3.1931,-3.3113,-3.3177,-3.3387,-3.3806,-3.3754,-3.3467,-3.2882,-3.1891,-3.1099,-3.06,-2.9813,-2.8939,-2.8103,-2.7338,-2.6552,-2.5709,-2.518,-2.4479,-2.34,-2.2733,-2.2484,-2.2549,-2.1981,-2.1525,-2.1609,-2.1213,-2.0955,-2.1053,-2.1042,-2.068,-1.9736,-1.9965,-2.0313,-2.0291,-2.153,-2.2955,-2.3754,-2.505,-2.6108,-2.6505,-2.7605,-2.8717,-2.9236,-3.0061,-3.1134,-3.2444,-3.3148,-3.3542,-3.3906,-3.4167,-3.4521,-3.499,-3.5243,-3.5756,-3.6245,-3.5155,-3.127,-2.51,-1.9728,-0.8216,0.8631,2.1617,2.8645,2.9281,2.8408,2.7897,-2.6592,-2.6532,-2.6128,-2.5987,-2.5926,-2.537,-2.4927,-2.4615,-2.4395,-2.4145,-2.36,-2.3493,-2.3169,-2.2745,-2.3523,-2.4014,-2.3716,-2.2653,-2.2101,-2.1983,-2.2145,-2.2521,-2.3075,-2.3224,-2.3582,-2.4059,-2.4192,-2.4224,-2.416,-2.4279,-2.4266,-2.4113,-2.4347,-2.4637,-2.4964,-2.5189,-2.5618,-2.6314,-2.6651,-2.7256,-2.8535,-2.8644,-2.8856,-2.9219,-2.9833,-3.0446,-3.0868,-3.0983,-3.1328,-3.1967,-3.2259,-3.2305,-3.2099,-3.2028,-3.1618,-3.0867,-2.9832,-2.9178,-2.9066,-2.8233,-2.7391,-2.6867,-2.6377,-2.5918,-2.5346,-2.4519,-2.3688,-2.2776,-2.198,-2.1495,-2.1456,-2.1061,-2.0907,-2.0888,-2.0346,-2.0248,-2.0669,-2.0722,-2.0205,-1.9473,-1.9518,-1.9901,-2.0291,-2.1365,-2.2347,-2.3135,-2.4111,-2.5036,-2.57,-2.6605,-2.7445,-2.8165,-2.8973,-3.0104,-3.1634,-3.2378,-3.2931,-3.3229,-3.3423,-3.4051,-3.4604,-3.5097,-3.5574,-3.4023,-2.8924,-2.3981,-1.9208,-0.8298,0.7308,1.9607,2.4345,2.8973,2.9409,2.7697,2.7414,-2.5226,-2.5216,-2.5237,-2.488,-2.4249,-2.4431,-2.3908,-2.275,-2.2474,-2.1962,-2.1463,-2.1239,-2.1024,-2.0793,-2.0519,-2.111,-2.201,-2.1649,-2.1461,-2.1461,-2.1614,-2.1772,-2.1797,-2.1797,-2.2019,-2.2448,-2.2521,-2.2712,-2.2917,-2.3335,-2.3604,-2.3624,-2.3841,-2.4236,-2.4682,-2.4553,-2.4949,-2.5877,-2.6376,-2.6799,-2.7264,-2.7898,-2.8071,-2.7694,-2.8843,-2.9795,-3.0309,-3.0315,-3.0604,-3.1245,-3.1304,-3.1261,-3.1072,-3.0451,-2.9907,-2.9552,-2.8607,-2.8051,-2.7934,-2.7271,-2.6526,-2.58,-2.5252,-2.4696,-2.4036,-2.3453,-2.2861,-2.2078,-2.1258,-2.0647,-2.0296,-2.0047,-1.9952,-2.0085,-1.9977,-1.9977,-2.0464,-2.0388,-1.9857,-1.9264,-1.8977,-1.91,-1.9955,-2.0782,-2.1467,-2.2347,-2.3263,-2.4058,-2.484,-2.5521,-2.5937,-2.6622,-2.729,-2.7933,-2.848,-3.0493,-3.1653,-3.1881,-3.2143,-3.2325,-3.2739,-3.147,-3.1433,-2.6395,-2.1273,-1.3051,-0.6847,0.4963,2.0406,2.4751,2.9492,2.9028,2.9613,2.8067,2.8103,-2.4026,-2.4016,-2.4196,-2.38,-2.3185,-2.351,-2.2973,-2.1813,-2.1337,-2.0771,-2.0171,-1.9845,-1.9602,-1.9251,-1.8625,-1.8905,-2.0017,-2.0159,-2.0304,-2.0294,-2.0692,-2.0928,-2.0988,-2.0947,-2.1162,-2.1533,-2.1671,-2.1892,-2.2183,-2.254,-2.28,-2.3028,-2.3096,-2.3405,-2.3816,-2.3691,-2.3963,-2.479,-2.5187,-2.5508,-2.5983,-2.6661,-2.696,-2.6857,-2.7818,-2.8657,-2.9191,-2.9195,-2.9362,-2.9746,-2.9893,-2.9832,-2.9633,-2.8848,-2.8298,-2.809,-2.7404,-2.6799,-2.6663,-2.6057,-2.5358,-2.4684,-2.4181,-2.3621,-2.2947,-2.2649,-2.2126,-2.1335,-2.0586,-1.9849,-1.9054,-1.8702,-1.8777,-1.9177,-1.9177,-1.9243,-1.9715,-1.9452,-1.8977,-1.8519,-1.8114,-1.8365,-1.909,-1.953,-2.0235,-2.1255,-2.1858,-2.2432,-2.3306,-2.3645,-2.3856,-2.4303,-2.4557,-2.4819,-2.4799,-2.5652,-2.8063,-2.8656,-2.8378,-2.9087,-2.8657,-2.7443,-2.4207,-1.8855,-1.1202,-0.2057,0.8143,1.9354,2.5438,2.9421,2.9592,2.8807,2.8875,2.8599,2.8459,-2.3111,-2.2894,-2.2885,-2.2685,-2.2383,-2.2449,-2.2261,-2.1531,-2.1289,-2.0504,-1.9613,-1.9477,-1.8787,-1.8237,-1.7963,-1.7968,-1.7792,-1.8201,-1.8397,-1.8549,-1.924,-1.9825,-2.0188,-2.0323,-2.0698,-2.1318,-2.179,-2.2027,-2.1954,-2.186,-2.2082,-2.2292,-2.2084,-2.2252,-2.2332,-2.2569,-2.2682,-2.3112,-2.3147,-2.3708,-2.5086,-2.5031,-2.5289,-2.6083,-2.6451,-2.679,-2.7391,-2.7591,-2.7762,-2.771,-2.8011,-2.7984,-2.7696,-2.7152,-2.6718,-2.6377,-2.5861,-2.5453,-2.5004,-2.4527,-2.3948,-2.3423,-2.3075,-2.2734,-2.2253,-2.1952,-2.1429,-2.0527,-1.9802,-1.8986,-1.7794,-1.7309,-1.7477,-1.8259,-1.8057,-1.792,-1.8135,-1.8066,-1.7774,-1.7304,-1.7088,-1.7217,-1.7472,-1.7784,-1.8485,-1.9325,-1.9609,-1.9684,-2.0493,-2.0785,-2.1035,-2.0947,-2.0703,-2.047,-2.0375,-2.0557,-2.305,-2.4901,-2.4396,-2.4232,-2.278,-2.1321,-1.673,-1.1185,-0.1148,0.7931,1.5041,2.4846,2.643,2.9253,2.8748,2.8611,2.8636,2.8508,2.7951,-2.1395,-2.1785,-2.1582,-2.1183,-2.068,-2.0987,-2.0451,-1.9231,-1.8988,-1.8446,-1.7697,-1.7369,-1.705,-1.681,-1.6569,-1.6397,-1.6235,-1.6684,-1.7155,-1.7631,-1.798,-1.8037,-1.8066,-1.8101,-1.8239,-1.8656,-1.9519,-1.9728,-1.969,-2.0428,-2.0989,-2.1114,-2.1324,-2.1843,-2.2388,-2.2248,-2.2399,-2.3098,-2.3063,-2.3444,-2.4024,-2.3927,-2.3948,-2.4002,-2.4097,-2.423,-2.4434,-2.5926,-2.6705,-2.6676,-2.6867,-2.6693,-2.6177,-2.58,-2.5322,-2.4672,-2.4215,-2.3936,-2.3621,-2.318,-2.267,-2.2145,-2.1852,-2.1211,-2.0265,-2.0041,-1.9681,-1.9045,-1.8416,-1.7716,-1.7072,-1.6767,-1.698,-1.7826,-1.7727,-1.7759,-1.8185,-1.7911,-1.7024,-1.5867,-1.5613,-1.5658,-1.5615,-1.58,-1.6191,-1.6921,-1.6971,-1.706,-1.7226,-1.7111,-1.671,-1.6257,-1.593,-1.5354,-1.481,-1.3827,-1.4357,-1.6538,-1.7106,-1.755,-1.6436,-1.3734,-0.9113,-0.2185,0.7925,1.5732,2.3041,2.6695,2.7886,2.8677,2.8639,2.8693,2.8774,2.8394,2.7705,-1.9442,-1.9731,-1.9952,-1.9346,-1.8513,-1.9131,-1.8525,-1.7163,-1.6927,-1.642,-1.584,-1.5484,-1.5253,-1.5091,-1.4984,-1.4788,-1.4675,-1.4943,-1.5334,-1.6002,-1.6929,-1.6993,-1.6789,-1.6781,-1.6773,-1.7125,-1.7957,-1.8149,-1.7827,-1.893,-1.964,-1.9809,-2.0042,-2.0512,-2.1323,-2.1073,-2.1251,-2.1865,-2.2005,-2.2312,-2.2684,-2.2848,-2.2936,-2.2947,-2.2968,-2.2734,-2.2713,-2.3906,-2.472,-2.504,-2.5122,-2.4898,-2.4517,-2.4253,-2.3829,-2.3294,-2.2947,-2.2756,-2.2349,-2.1897,-2.1288,-2.076,-2.0372,-1.9709,-1.8753,-1.8443,-1.8167,-1.7844,-1.7142,-1.6575,-1.6219,-1.5791,-1.5912,-1.6514,-1.6676,-1.6933,-1.7278,-1.6655,-1.5715,-1.4686,-1.4336,-1.4091,-1.3822,-1.3735,-1.3848,-1.4166,-1.3922,-1.3742,-1.3487,-1.3082,-1.2289,-1.141,-1.0661,-0.9885,-0.8943,-0.7597,-0.5976,-0.7298,-0.8748,-0.9478,-0.9432,-0.5866,-0.1624,0.5858,1.5157,1.8399,2.4859,2.606,2.721,2.7773,2.8446,2.833,2.8152,2.779,2.7314,-1.7528,-1.7173,-1.7911,-1.7595,-1.6511,-1.7147,-1.6761,-1.5542,-1.5293,-1.4926,-1.4457,-1.4201,-1.3896,-1.3596,-1.3663,-1.3544,-1.3154,-1.3185,-1.3234,-1.3872,-1.505,-1.6027,-1.598,-1.5965,-1.6047,-1.6406,-1.6838,-1.709,-1.6935,-1.7666,-1.8078,-1.8381,-1.8426,-1.8594,-1.9321,-1.9061,-1.9319,-1.9887,-1.9918,-2.0523,-2.1397,-2.1463,-2.1821,-2.2414,-2.2209,-2.1811,-2.139,-2.139,-2.1866,-2.2723,-2.301,-2.2861,-2.2596,-2.2531,-2.2295,-2.1811,-2.1821,-2.1441,-2.0981,-2.0275,-1.9728,-1.9195,-1.863,-1.8026,-1.7574,-1.7301,-1.7139,-1.677,-1.6078,-1.542,-1.5222,-1.4792,-1.4477,-1.4569,-1.5061,-1.5242,-1.4694,-1.4273,-1.3737,-1.3426,-1.3107,-1.2625,-1.1624,-1.147,-1.1285,-1.0857,-1.0098,-0.9838,-0.9107,-0.8396,-0.7673,-0.6508,-0.5035,-0.3912,-0.2723,-0.132,0.0147,0.0146,-0.0793,-0.1059,-0.1102,0.2321,0.5563,1.3131,1.8382,2.1866,2.419,2.5369,2.6669,2.7703,2.7941,2.7725,2.7512,2.729,2.721,-1.727,-1.6806,-1.6806,-1.6377,-1.5672,-1.5654,-1.5399,-1.4833,-1.459,-1.415,-1.3888,-1.3722,-1.3522,-1.3511,-1.3216,-1.3119,-1.2866,-1.259,-1.2476,-1.2516,-1.2836,-1.3368,-1.3665,-1.3762,-1.4021,-1.4531,-1.5108,-1.5365,-1.547,-1.6124,-1.6698,-1.696,-1.7009,-1.7568,-1.8372,-1.8372,-1.8567,-1.8873,-1.8919,-1.8885,-1.9118,-1.9243,-1.9237,-1.9237,-1.9325,-1.9246,-1.9,-1.893,-1.9788,-2.14,-2.1314,-2.1094,-2.0894,-2.073,-2.0343,-1.965,-1.9492,-1.9335,-1.8771,-1.8301,-1.7971,-1.7649,-1.7253,-1.6822,-1.6277,-1.6175,-1.5937,-1.5634,-1.5255,-1.4698,-1.4062,-1.3911,-1.3477,-1.2669,-1.3494,-1.4316,-1.386,-1.3187,-1.2309,-1.144,-1.0749,-0.9782,-0.8849,-0.8307,-0.7908,-0.681,-0.6191,-0.5503,-0.4551,-0.3555,-0.2799,-0.0378,0.1283,0.242,0.3636,0.5,0.6139,0.6809,0.6958,0.7599,0.8448,1.0849,1.3654,1.7903,1.9621,2.2563,2.3645,2.4687,2.6032,2.7533,2.7617,2.7528,2.7469,2.7328,2.7116,-1.5586,-1.5378,-1.5384,-1.4914,-1.4272,-1.4374,-1.4019,-1.3288,-1.3044,-1.2802,-1.253,-1.247,-1.2443,-1.236,-1.2155,-1.1863,-1.1448,-1.1342,-1.1,-1.0372,-1.0575,-1.1263,-1.1975,-1.2158,-1.2339,-1.2687,-1.3275,-1.3529,-1.3704,-1.4371,-1.4782,-1.4866,-1.5025,-1.5508,-1.616,-1.6324,-1.6569,-1.696,-1.705,-1.705,-1.7301,-1.7398,-1.7488,-1.7488,-1.7577,-1.7585,-1.7342,-1.7107,-1.7802,-1.9298,-1.9543,-1.9395,-1.9256,-1.9167,-1.878,-1.8095,-1.8078,-1.7908,-1.7423,-1.6944,-1.6527,-1.6191,-1.5779,-1.5101,-1.4587,-1.4273,-1.3815,-1.354,-1.3212,-1.2748,-1.2242,-1.2247,-1.1719,-1.0953,-1.14,-1.1875,-1.2043,-1.0975,-1.0087,-0.9259,-0.8322,-0.719,-0.5726,-0.5331,-0.4241,-0.3004,-0.2074,-0.1075,0.0077,0.115,0.2222,0.4139,0.5878,0.6765,0.7716,0.9015,0.9911,1.0795,1.188,1.3093,1.4356,1.6336,1.7735,1.9346,2.1078,2.2519,2.3484,2.454,2.5825,2.6914,2.7129,2.7207,2.7116,2.6986,2.6872,-1.3164,-1.3248,-1.3795,-1.3226,-1.2302,-1.2792,-1.2271,-1.1259,-1.1069,-1.0858,-1.0587,-1.0716,-1.0666,-1.0511,-1.0395,-0.9908,-0.9118,-0.9592,-0.8909,-0.8452,-0.8519,-0.9511,-1.0614,-1.0858,-1.0835,-1.0968,-1.1462,-1.1771,-1.2071,-1.2463,-1.2661,-1.3016,-1.2912,-1.3039,-1.386,-1.3685,-1.3944,-1.4685,-1.4761,-1.5004,-1.5486,-1.5666,-1.5749,-1.5906,-1.6167,-1.6175,-1.5771,-1.5538,-1.5771,-1.7326,-1.7585,-1.7747,-1.7755,-1.7747,-1.7513,-1.7188,-1.6764,-1.6511,-1.637,-1.5462,-1.5047,-1.4622,-1.3776,-1.3118,-1.2778,-1.2339,-1.1843,-1.1576,-1.0639,-1.0529,-1.0172,-0.9894,-0.9411,-0.8918,-0.8126,-0.8225,-0.8483,-0.8049,-0.7296,-0.6957,-0.5873,-0.4503,-0.3253,-0.2167,-0.108,0.0846,0.1772,0.2698,0.3927,0.5075,0.6086,0.7343,0.8995,1.0598,1.1627,1.2673,1.3403,1.4157,1.5188,1.62,1.6647,1.8131,1.9378,2.0677,2.1577,2.2604,2.3701,2.4786,2.5895,2.6541,2.7041,2.6837,2.6567,2.6391,2.6289,-1.1782,-1.0763,-1.0876,-1.0551,-0.9938,-0.992,-0.9839,-0.9565,-0.9331,-0.9239,-0.9053,-0.8925,-0.878,-0.8627,-0.8535,-0.8124,-0.7928,-0.7928,-0.7534,-0.7419,-0.7287,-0.7591,-0.823,-0.8745,-0.9055,-0.9066,-0.9142,-0.9835,-1.0648,-1.097,-1.1478,-1.1937,-1.1997,-1.2447,-1.254,-1.2649,-1.3033,-1.3372,-1.3209,-1.3307,-1.3548,-1.362,-1.3698,-1.3756,-1.384,-1.3678,-1.3516,-1.3353,-1.3341,-1.384,-1.4942,-1.5816,-1.5951,-1.5876,-1.5567,-1.5159,-1.4622,-1.4105,-1.362,-1.3222,-1.251,-1.2369,-1.2118,-1.1682,-1.1451,-1.1149,-1.0819,-1.0594,-1.0351,-0.9511,-0.8578,-0.8037,-0.7228,-0.642,-0.5729,-0.5045,-0.4318,-0.432,-0.4388,-0.3779,-0.2653,-0.1164,0.0233,0.0778,0.2172,0.4337,0.5508,0.6381,0.7544,0.8708,0.958,1.0399,1.1664,1.3032,1.367,1.4673,1.5405,1.6202,1.732,1.8331,1.8846,1.9351,2.0347,2.1024,2.1537,2.2665,2.3844,2.4836,2.5901,2.6438,2.6904,2.6649,2.6426,2.6074,2.5978,-1.0437,-0.9811,-0.9574,-0.9339,-0.8915,-0.8824,-0.8752,-0.8562,-0.843,-0.8281,-0.8159,-0.8174,-0.813,-0.7938,-0.7727,-0.7503,-0.6842,-0.6237,-0.6137,-0.6224,-0.6259,-0.5917,-0.5781,-0.652,-0.7105,-0.7409,-0.7709,-0.8311,-0.8776,-0.9144,-0.9496,-1.0168,-1.05,-1.0721,-1.1196,-1.1486,-1.1661,-1.1849,-1.1999,-1.2048,-1.186,-1.2099,-1.2267,-1.2369,-1.2351,-1.2381,-1.2337,-1.2135,-1.214,-1.2336,-1.2829,-1.3468,-1.3873,-1.3782,-1.36,-1.336,-1.29,-1.2585,-1.2161,-1.1805,-1.1396,-1.0865,-1.0607,-1.0105,-0.9625,-0.9226,-0.8707,-0.8193,-0.7738,-0.7369,-0.6489,-0.5917,-0.4993,-0.4106,-0.3379,-0.24,-0.1351,-0.1632,-0.1837,-0.0955,0.0319,0.1754,0.287,0.3722,0.5037,0.7017,0.8331,0.9227,1.0264,1.1377,1.2233,1.3167,1.4332,1.5266,1.5698,1.6307,1.6981,1.7642,1.8419,1.932,2.0038,2.053,2.1133,2.1562,2.2009,2.2821,2.3965,2.4978,2.5769,2.6201,2.6504,2.6426,2.6242,2.5803,2.5871,-0.8893,-0.8894,-0.8549,-0.8298,-0.8105,-0.7941,-0.7757,-0.7556,-0.7487,-0.7172,-0.7311,-0.7513,-0.7029,-0.6984,-0.6947,-0.657,-0.5679,-0.4836,-0.4533,-0.5027,-0.482,-0.4585,-0.4358,-0.486,-0.5431,-0.6241,-0.6345,-0.6628,-0.6816,-0.6972,-0.7611,-0.8029,-0.8288,-0.8826,-0.9392,-0.9815,-0.9951,-1.0025,-1.0292,-1.0346,-1.0234,-1.0561,-1.083,-1.1175,-1.1412,-1.1388,-1.1305,-1.1076,-1.1003,-1.1344,-1.0834,-1.0914,-1.1298,-1.1771,-1.1799,-1.1927,-1.1521,-1.1279,-1.1101,-1.081,-1.0362,-0.9984,-0.947,-0.8571,-0.7649,-0.7084,-0.6468,-0.583,-0.5377,-0.4907,-0.4111,-0.365,-0.3027,-0.2044,-0.1067,0.0176,0.1036,0.0656,0.1133,0.1885,0.326,0.471,0.5863,0.6823,0.8237,0.9566,1.0907,1.2106,1.3027,1.383,1.4622,1.532,1.622,1.6788,1.7153,1.7475,1.8214,1.865,1.9344,2.0167,2.0968,2.1496,2.195,2.2115,2.2643,2.3411,2.4229,2.5218,2.5858,2.6059,2.6289,2.6467,2.611,2.5505,2.5906,-0.6877,-0.6008,-0.5768,-0.5748,-0.5818,-0.5564,-0.549,-0.5573,-0.5209,-0.4991,-0.4928,-0.4914,-0.4753,-0.4251,-0.4022,-0.3668,-0.3404,-0.3064,-0.3137,-0.3536,-0.3337,-0.3126,-0.3723,-0.3626,-0.3914,-0.4305,-0.4583,-0.4971,-0.5459,-0.557,-0.616,-0.678,-0.7071,-0.74,-0.7587,-0.7761,-0.8273,-0.8385,-0.8468,-0.8528,-0.8478,-0.8536,-0.8798,-0.9379,-0.9739,-0.9797,-0.9749,-0.9565,-0.9301,-0.9157,-0.9043,-0.9015,-0.925,-1.0154,-1.0572,-1.05,-0.999,-0.9705,-0.9643,-0.9148,-0.8394,-0.7788,-0.7564,-0.6996,-0.6165,-0.5585,-0.5038,-0.4567,-0.3982,-0.3406,-0.2865,-0.1794,-0.0806,0.0178,0.15,0.2805,0.3763,0.435,0.446,0.4939,0.6242,0.7539,0.8487,0.9471,1.061,1.1696,1.2968,1.4158,1.5226,1.6,1.6674,1.7223,1.7827,1.8239,1.8559,1.8759,1.9097,1.9305,1.9961,2.0723,2.1496,2.2298,2.268,2.3038,2.3304,2.3833,2.4703,2.5501,2.5883,2.605,2.6307,2.6514,2.617,2.5884,2.6531,-0.5788,-0.5179,-0.4935,-0.4663,-0.4373,-0.4075,-0.3673,-0.3403,-0.3334,-0.317,-0.3027,-0.3111,-0.296,-0.2596,-0.2478,-0.2349,-0.2208,-0.2191,-0.2375,-0.2464,-0.2271,-0.2166,-0.2765,-0.2454,-0.2762,-0.3068,-0.3273,-0.3661,-0.4535,-0.4626,-0.5088,-0.5611,-0.5914,-0.6184,-0.6597,-0.7102,-0.7208,-0.7314,-0.7408,-0.7564,-0.7492,-0.7348,-0.7677,-0.7959,-0.816,-0.828,-0.8153,-0.8081,-0.7956,-0.7863,-0.7842,-0.7614,-0.7712,-0.7928,-0.8581,-0.8925,-0.8524,-0.8037,-0.7746,-0.7174,-0.6516,-0.591,-0.5756,-0.532,-0.468,-0.4191,-0.365,-0.2709,-0.177,-0.1108,-0.0463,0.0457,0.1642,0.2651,0.3855,0.5154,0.6416,0.7343,0.768,0.7693,0.8321,0.934,1.0689,1.174,1.2843,1.3926,1.5042,1.6102,1.7223,1.7847,1.8326,1.837,1.8722,1.8892,1.9216,1.9442,1.9757,1.9979,2.0565,2.1413,2.2182,2.2946,2.3665,2.4153,2.4417,2.4474,2.4933,2.5707,2.5909,2.6102,2.6195,2.6289,2.6245,2.644,2.7015,-0.4931,-0.4562,-0.4439,-0.3795,-0.3026,-0.2891,-0.2391,-0.1771,-0.1862,-0.1843,-0.1605,-0.1806,-0.1778,-0.1429,-0.12,-0.119,-0.1389,-0.1387,-0.1371,-0.1467,-0.1265,-0.1266,-0.136,-0.146,-0.1564,-0.1981,-0.2085,-0.2787,-0.3772,-0.3862,-0.4234,-0.463,-0.4855,-0.5127,-0.5775,-0.6014,-0.6353,-0.6531,-0.6825,-0.6964,-0.6772,-0.687,-0.6997,-0.6997,-0.7095,-0.7065,-0.6851,-0.6705,-0.6746,-0.6735,-0.664,-0.6488,-0.6208,-0.5978,-0.6278,-0.707,-0.6867,-0.6466,-0.6137,-0.5755,-0.5196,-0.4574,-0.4315,-0.3676,-0.2954,-0.2378,-0.1814,-0.0477,0.038,0.1137,0.1508,0.2711,0.3826,0.486,0.5799,0.7052,0.8418,0.942,1.0255,1.0424,1.0429,1.1164,1.2493,1.3579,1.4586,1.5599,1.6738,1.7456,1.8424,1.9003,1.9416,1.9296,1.9326,1.941,1.9655,1.9905,2.0171,2.0577,2.1259,2.2101,2.2906,2.3693,2.4342,2.4897,2.5114,2.5208,2.5592,2.5803,2.5946,2.6094,2.6119,2.6201,2.6258,2.6645,2.7217,-0.4067,-0.3202,-0.2959,-0.2341,-0.1717,-0.1333,-0.1324,-0.1318,-0.1055,-0.104,-0.0806,-0.0905,-0.0672,-0.0223,0.033,0.0437,0.0434,0.0323,0.0,-0.0213,-0.0107,-0.0321,-0.0637,-0.0637,-0.0743,-0.0955,-0.0955,-0.1892,-0.2908,-0.3209,-0.3535,-0.3857,-0.392,-0.4116,-0.4483,-0.481,-0.4402,-0.4446,-0.4531,-0.4626,-0.4712,-0.5187,-0.5475,-0.5674,-0.5869,-0.5968,-0.5887,-0.5661,-0.5497,-0.5409,-0.5216,-0.5105,-0.501,-0.5014,-0.4822,-0.4912,-0.4901,-0.5001,-0.4918,-0.4503,-0.4074,-0.3259,-0.2879,-0.2277,-0.1371,-0.0389,0.0388,0.0952,0.1717,0.239,0.3251,0.4173,0.5301,0.652,0.7805,0.8889,1.0134,1.1163,1.2014,1.2721,1.2662,1.3283,1.4323,1.5321,1.6316,1.7365,1.832,1.8937,1.9427,1.9894,2.0167,1.9947,1.9937,1.9965,2.0068,2.033,2.0552,2.1014,2.1931,2.284,2.3385,2.4002,2.4886,2.5407,2.5578,2.5718,2.5873,2.5992,2.6087,2.6131,2.6201,2.6327,2.6452,2.6905,2.7484,-0.2218,-0.1848,-0.1726,-0.1109,-0.0369,-0.0122,0.0122,0.0486,0.0477,0.047,0.0581,0.0454,0.0561,0.1007,0.1112,0.1109,0.1107,0.099,0.0764,0.0651,0.0654,0.0545,0.0325,0.0216,0.0216,-0.0108,-0.0324,-0.0755,-0.1705,-0.2307,-0.2711,-0.283,-0.323,-0.3498,-0.3509,-0.3718,-0.3789,-0.3854,-0.3934,-0.4034,-0.4133,-0.4332,-0.4533,-0.4533,-0.463,-0.463,-0.4431,-0.4429,-0.4227,-0.4128,-0.4128,-0.4126,-0.3925,-0.3524,-0.3122,-0.2315,-0.2011,-0.2312,-0.312,-0.2615,-0.2001,-0.1397,-0.0701,0.01,0.0598,0.1292,0.1984,0.2167,0.3342,0.4217,0.4973,0.62,0.7561,0.8802,0.9768,1.1003,1.1919,1.2626,1.3514,1.4209,1.4815,1.5268,1.5708,1.6487,1.7188,1.7883,1.8771,1.9492,1.9885,2.0148,2.0411,2.0459,2.0498,2.0469,2.0594,2.073,2.0894,2.1379,2.2548,2.3274,2.362,2.4281,2.5289,2.5779,2.5847,2.5966,2.6125,2.6177,2.6213,2.6258,2.6327,2.6396,2.6521,2.731,2.8065,-0.0247,-0.0247,-0.0493,0.0,0.0863,0.0863,0.1234,0.1848,0.1579,0.1677,0.1767,0.1492,0.1578,0.1683,0.1569,0.1455,0.1457,0.1234,0.1113,0.111,0.1112,0.1,0.0995,0.0993,0.0885,0.055,0.0554,0.0332,-0.022,-0.0864,-0.1384,-0.1692,-0.2226,-0.2518,-0.26,-0.2716,-0.2821,-0.3164,-0.3258,-0.3449,-0.3635,-0.3632,-0.363,-0.353,-0.3428,-0.3226,-0.3026,-0.3127,-0.3126,-0.2719,-0.2722,-0.2519,-0.1913,-0.1511,-0.1108,-0.0403,0.0101,0.0,-0.0604,-0.0403,0.0403,0.0907,0.1411,0.1813,0.2215,0.292,0.3521,0.3706,0.4806,0.5909,0.6904,0.8195,0.9368,1.05,1.1587,1.2864,1.392,1.4128,1.4578,1.5082,1.5807,1.6513,1.7022,1.7639,1.8164,1.854,1.9213,2.0048,2.04,2.0517,2.0654,2.0781,2.084,2.0977,2.1174,2.1273,2.135,2.1875,2.3065,2.4017,2.4498,2.5089,2.5967,2.619,2.6249,2.6479,2.6809,2.659,2.6465,2.6396,2.6396,2.6396,2.6726,2.751,2.8871,0.1729,0.1729,0.074,0.0987,0.1853,0.1853,0.1977,0.1976,0.1848,0.1827,0.1913,0.1865,0.1819,0.1804,0.18,0.18,0.1796,0.1795,0.1682,0.1569,0.1457,0.1459,0.1461,0.1471,0.1476,0.1574,0.1469,0.148,0.1367,0.067,-0.0111,-0.0891,-0.1203,-0.1089,-0.1188,-0.1498,-0.1698,-0.2081,-0.2173,-0.2464,-0.2649,-0.2739,-0.2636,-0.2431,-0.2426,-0.2422,-0.2424,-0.2126,-0.1723,-0.1012,-0.101,-0.0605,0.0,0.0403,0.0706,0.121,0.1613,0.1613,0.1612,0.1411,0.1513,0.1815,0.2318,0.3224,0.3827,0.4331,0.4933,0.5627,0.6526,0.7521,0.8609,0.9985,1.0849,1.1986,1.2885,1.3684,1.4565,1.5047,1.5406,1.5988,1.6565,1.7195,1.7851,1.8313,1.9011,1.9399,1.9811,2.0659,2.074,2.0839,2.1016,2.1094,2.1182,2.1338,2.1722,2.1888,2.1959,2.2662,2.3738,2.478,2.5721,2.6304,2.6713,2.6841,2.6907,2.7201,2.7348,2.7133,2.6884,2.6534,2.649,2.6659,2.7117,2.7881,2.9568,0.1977,0.1977,0.1605,0.1605,0.1977,0.1977,0.1977,0.1973,0.1956,0.2052,0.214,0.2209,0.2178,0.2281,0.2164,0.2051,0.2051,0.1937,0.1823,0.1823,0.1709,0.1709,0.1719,0.1729,0.1737,0.1832,0.1952,0.2071,0.195,0.1829,0.1838,0.1257,0.0113,-0.0657,-0.0759,-0.0542,-0.0856,-0.1061,-0.1159,-0.1259,-0.1151,-0.1252,-0.1147,-0.0834,-0.0626,-0.0522,-0.0521,-0.0309,0.0,0.041,0.0508,0.1011,0.1614,0.1816,0.212,0.2522,0.2928,0.3331,0.353,0.3226,0.3124,0.3929,0.4429,0.5031,0.5532,0.6132,0.6628,0.7226,0.7918,0.8913,0.9993,1.0984,1.1965,1.3232,1.4172,1.4684,1.5201,1.5685,1.5961,1.6454,1.6892,1.7447,1.8104,1.8828,1.953,2.0228,2.0655,2.1086,2.117,2.125,2.1377,2.1445,2.1533,2.1683,2.204,2.2299,2.2484,2.3402,2.4317,2.5195,2.6155,2.686,2.7162,2.732,2.7475,2.769,2.7742,2.758,2.7401,2.7222,2.7157,2.7107,2.7624,2.8316,3.0058,0.1977,0.1977,0.1977,0.1977,0.1977,0.1977,0.1977,0.1973,0.1956,0.2168,0.2373,0.2227,0.2442,0.2667,0.2316,0.2202,0.2202,0.1971,0.1854,0.185,0.196,0.1963,0.1974,0.2101,0.2221,0.2206,0.2331,0.2455,0.2459,0.2683,0.2698,0.2111,0.1275,0.0679,0.0333,0.0218,0.0109,-0.0108,0.0,0.0,0.0106,0.0212,0.0319,0.0637,0.0742,0.0848,0.0844,0.0939,0.1238,0.1646,0.1942,0.2231,0.2731,0.3135,0.355,0.4058,0.4564,0.4972,0.517,0.5046,0.4937,0.5734,0.6134,0.6631,0.7129,0.7627,0.7822,0.8418,0.9209,1.0199,1.1282,1.2257,1.3136,1.4202,1.5064,1.5684,1.5974,1.639,1.65,1.6834,1.7325,1.7916,1.8588,1.9326,2.0355,2.0941,2.124,2.1549,2.1559,2.168,2.1807,2.1855,2.1894,2.2129,2.2373,2.2501,2.2696,2.3575,2.4514,2.538,2.6223,2.6939,2.762,2.7921,2.8057,2.8142,2.826,2.83,2.8164,2.8059,2.802,2.8004,2.8662,2.9477,3.0557,0.1977,0.1977,0.1977,0.1977,0.1977,0.1977,0.1977,0.2099,0.1973,0.22,0.2411,0.2162,0.2383,0.2713,0.2473,0.2238,0.2356,0.212,0.1884,0.1997,0.2218,0.2333,0.2465,0.2599,0.2608,0.284,0.285,0.2867,0.2877,0.2987,0.2998,0.301,0.2512,0.2248,0.2229,0.2197,0.1806,0.1209,0.1535,0.1411,0.14,0.1503,0.1716,0.1932,0.204,0.2149,0.2142,0.2114,0.2402,0.2996,0.3211,0.3806,0.4995,0.5449,0.5985,0.6807,0.7012,0.722,0.7316,0.6704,0.6877,0.7266,0.7478,0.7779,0.8052,0.8446,0.9076,1.0033,1.0748,1.1511,1.257,1.3528,1.4208,1.4975,1.5737,1.6218,1.64,1.6777,1.6872,1.7059,1.7747,1.8511,1.9139,1.994,2.1103,2.1684,2.1826,2.1934,2.2031,2.2158,2.2305,2.2344,2.2448,2.2636,2.2814,2.2702,2.2991,2.3825,2.4695,2.5491,2.6273,2.7047,2.7695,2.8291,2.8414,2.8361,2.8802,2.9176,2.8872,2.8612,2.8967,2.9144,2.9806,3.0477,3.1473,0.1977,0.1977,0.1977,0.2099,0.2221,0.2099,0.2099,0.2222,0.2098,0.2338,0.2689,0.2547,0.2889,0.3114,0.2871,0.2632,0.2632,0.2392,0.2272,0.2269,0.2611,0.262,0.2873,0.3128,0.3013,0.3,0.3131,0.3379,0.3252,0.3502,0.3527,0.354,0.3293,0.3137,0.2843,0.2924,0.2779,0.2641,0.296,0.304,0.3129,0.3099,0.3298,0.3516,0.3512,0.3511,0.3615,0.3448,0.3826,0.4418,0.465,0.5252,0.6274,0.6749,0.7145,0.7773,0.7982,0.8394,0.8806,0.8848,0.8681,0.8726,0.8679,0.9127,0.9631,1.0769,1.1388,1.1836,1.2422,1.3292,1.427,1.4383,1.4815,1.5363,1.6021,1.6123,1.6414,1.6791,1.7052,1.7211,1.774,1.9111,1.997,2.0468,2.152,2.2265,2.2444,2.2559,2.2666,2.2744,2.2861,2.2957,2.2977,2.313,2.3202,2.3116,2.3213,2.395,2.4744,2.5666,2.6385,2.7039,2.7673,2.8295,2.8486,2.8652,2.8906,2.9172,2.9217,2.9264,2.9606,2.9802,3.0102,3.0957,3.2124,0.1977,0.1977,0.2099,0.2345,0.2591,0.2346,0.2346,0.2591,0.2469,0.2716,0.3078,0.305,0.3283,0.3527,0.3282,0.328,0.328,0.3037,0.3157,0.3275,0.3737,0.3984,0.413,0.4145,0.4616,0.4364,0.449,0.4735,0.474,0.4496,0.4154,0.3936,0.3825,0.3783,0.3725,0.3818,0.3546,0.3517,0.3827,0.426,0.4344,0.4423,0.4613,0.4706,0.4808,0.492,0.5125,0.5298,0.545,0.5849,0.6253,0.6645,0.7287,0.7821,0.8117,0.8765,0.9188,0.961,1.0237,1.0863,1.0694,1.0604,1.0322,1.0544,1.1263,1.2162,1.2787,1.3357,1.4199,1.466,1.5097,1.507,1.5422,1.6081,1.6177,1.6374,1.6602,1.6979,1.7167,1.7435,1.8059,1.9386,2.0677,2.129,2.1885,2.2451,2.3008,2.3047,2.3144,2.3144,2.3135,2.3115,2.3191,2.3196,2.3308,2.3473,2.3652,2.4091,2.4724,2.5443,2.6218,2.6794,2.7545,2.8217,2.8462,2.8635,2.8913,2.9081,2.9419,2.9859,3.042,3.0533,3.0452,3.1562,3.2902,0.1977,0.2099,0.2345,0.2714,0.296,0.2714,0.2714,0.296,0.296,0.3085,0.3454,0.3204,0.3322,0.3697,0.3328,0.3447,0.4059,0.3935,0.43,0.4777,0.51,0.5485,0.5849,0.6079,0.6094,0.6494,0.6505,0.6122,0.6637,0.5888,0.504,0.4439,0.4441,0.4787,0.4879,0.4845,0.4436,0.4525,0.5077,0.5389,0.5346,0.5643,0.5812,0.5886,0.5853,0.6172,0.6359,0.6626,0.7013,0.7531,0.8065,0.8518,0.892,0.9275,0.9865,1.0329,1.0654,1.1185,1.1695,1.2192,1.272,1.2556,1.2154,1.2393,1.2807,1.3495,1.404,1.4619,1.5161,1.5435,1.5683,1.5978,1.6266,1.6443,1.658,1.67,1.6907,1.716,1.7333,1.7744,1.8435,1.9535,2.0789,2.1554,2.2295,2.2606,2.2969,2.3047,2.3144,2.3144,2.3125,2.3105,2.3132,2.3047,2.3198,2.3509,2.3805,2.4098,2.4351,2.4956,2.5728,2.6617,2.717,2.7766,2.8366,2.8735,2.9253,2.9628,2.9927,3.0445,3.1222,3.1663,3.1765,3.2617,3.3818,0.1995,0.21,0.2345,0.2714,0.3083,0.3331,0.3331,0.3083,0.296,0.3208,0.3455,0.3455,0.3702,0.3826,0.3579,0.3825,0.4193,0.4438,0.4925,0.5523,0.6237,0.6377,0.6621,0.6974,0.6989,0.6999,0.7011,0.7131,0.6886,0.6521,0.6399,0.6154,0.5788,0.6154,0.6265,0.6368,0.5845,0.569,0.6359,0.6428,0.6612,0.6912,0.7057,0.7204,0.7169,0.7474,0.7607,0.779,0.8194,0.863,0.8746,0.9033,0.9806,0.9825,1.0069,1.1159,1.1706,1.2243,1.2778,1.3143,1.3646,1.4221,1.3949,1.4177,1.4479,1.4855,1.5368,1.5719,1.615,1.642,1.6445,1.6572,1.6765,1.6785,1.6829,1.6999,1.7208,1.7428,1.7697,1.8551,1.9151,2.0273,2.1405,2.2162,2.2762,2.2897,2.3008,2.3154,2.3184,2.3193,2.3135,2.3105,2.3231,2.3196,2.3342,2.3644,2.3796,2.4084,2.4303,2.476,2.5679,2.6484,2.6869,2.76,2.8631,2.928,2.9735,3.0094,3.0251,3.1353,3.215,3.271,3.3242,3.4134,3.4838,0.3124,0.3209,0.3452,0.3944,0.4313,0.4685,0.4684,0.4436,0.4069,0.4069,0.4316,0.4562,0.4685,0.4931,0.4807,0.5053,0.5667,0.6033,0.6399,0.7133,0.7258,0.7742,0.7867,0.7989,0.823,0.7989,0.7986,0.8352,0.7864,0.75,0.7378,0.6766,0.6888,0.7133,0.7373,0.749,0.737,0.7342,0.7427,0.7619,0.7795,0.7971,0.8218,0.8465,0.8549,0.8577,0.8693,0.8893,0.9206,0.9599,0.9805,1.0025,1.0684,1.0684,1.0863,1.1849,1.2242,1.2825,1.3505,1.4299,1.4708,1.5232,1.566,1.5949,1.5943,1.6113,1.6436,1.6733,1.7069,1.7301,1.7194,1.7068,1.7069,1.7066,1.7112,1.7162,1.7466,1.7772,1.8514,1.9375,2.0304,2.1377,2.2269,2.2917,2.3366,2.3515,2.3628,2.3728,2.3603,2.334,2.3232,2.3125,2.3309,2.3424,2.362,2.372,2.4002,2.4139,2.4338,2.4867,2.5765,2.6689,2.7516,2.8321,2.9201,2.969,3.0182,3.0384,3.0745,3.1924,3.3054,3.3707,3.4528,3.5674,3.6313,0.5015,0.4947,0.5308,0.5552,0.628,0.628,0.6401,0.6766,0.591,0.5542,0.5667,0.6158,0.628,0.6156,0.6033,0.6526,0.6893,0.7258,0.7625,0.8854,0.8726,0.8967,0.9089,0.9576,0.9211,0.9576,0.9576,0.9207,0.9332,0.8967,0.8111,0.7131,0.7378,0.7744,0.8474,0.8477,0.8477,0.8468,0.8569,0.8651,0.8459,0.8641,0.8828,0.9069,0.9139,0.932,0.9663,1.0047,1.0231,1.0904,1.1186,1.1321,1.1444,1.1674,1.1988,1.2437,1.2947,1.3622,1.4406,1.5195,1.5875,1.6474,1.706,1.7153,1.7047,1.6836,1.7047,1.7259,1.7482,1.7573,1.7596,1.7605,1.7538,1.7569,1.7617,1.7845,1.8184,1.8812,1.9758,2.0529,2.1225,2.2299,2.2758,2.3298,2.3566,2.3919,2.4103,2.4156,2.4111,2.3711,2.3584,2.3418,2.3565,2.3821,2.3792,2.3969,2.4167,2.4315,2.4515,2.516,2.6147,2.7217,2.8309,2.9106,2.9978,3.0194,3.0556,3.0978,3.1626,3.2713,3.382,3.4667,3.5727,3.6904,3.7464,0.529,0.5213,0.5408,0.5724,0.6035,0.6033,0.6276,0.6526,0.7136,0.7016,0.6644,0.6768,0.6896,0.7025,0.7013,0.7258,0.775,0.8116,0.8482,0.897,0.9335,0.9457,0.9579,0.9697,0.9819,0.9819,0.9819,0.9819,0.97,0.9454,0.9332,0.9086,0.8964,0.9086,0.9329,0.9332,0.9332,0.9332,0.9687,0.9552,0.9265,0.9971,1.0535,1.0898,1.118,1.1097,1.145,1.1722,1.1933,1.2234,1.2234,1.2239,1.2125,1.2339,1.273,1.3233,1.3846,1.4727,1.5441,1.6132,1.6705,1.7066,1.7436,1.7536,1.7477,1.7371,1.7371,1.7582,1.7694,1.7799,1.7884,1.7998,1.8019,1.8072,1.8136,1.8547,1.8943,2.0005,2.1063,2.1648,2.2325,2.2799,2.3279,2.3636,2.3775,2.4044,2.421,2.4394,2.4463,2.4268,2.4307,2.418,2.4121,2.4222,2.4114,2.4156,2.4366,2.4666,2.4977,2.5712,2.6636,2.8021,2.9352,3.0087,3.0699,3.0869,3.1296,3.2019,3.2786,3.3623,3.4633,3.5526,3.6713,3.793,3.8407,0.7034,0.6807,0.6708,0.686,0.7025,0.7013,0.7261,0.7747,0.8238,0.8392,0.8178,0.8144,0.8016,0.8044,0.8019,0.7991,0.8482,0.8723,0.9092,0.9457,0.9457,0.9579,0.97,0.9825,0.9819,0.9819,0.9819,0.9819,0.9832,0.9819,0.9697,0.9832,0.9832,0.9829,0.9825,0.9822,0.9943,1.0065,1.0425,1.0422,1.0172,1.1008,1.1479,1.1984,1.2179,1.2325,1.235,1.2499,1.256,1.2859,1.3146,1.3373,1.3473,1.3922,1.4282,1.4729,1.531,1.5873,1.6567,1.7108,1.7354,1.7738,1.7676,1.7615,1.7776,1.7656,1.7589,1.7694,1.7687,1.7687,1.7799,1.7837,1.8032,1.8047,1.8309,1.8614,1.9752,2.1039,2.1734,2.2334,2.3028,2.3717,2.4113,2.4296,2.4459,2.4842,2.4925,2.4941,2.4941,2.4824,2.4873,2.4844,2.481,2.4502,2.4277,2.4389,2.4487,2.4901,2.544,2.688,2.8107,2.9312,3.0383,3.0874,3.118,3.1399,3.1867,3.2575,3.325,3.3918,3.5117,3.6448,3.763,3.862,3.9035,0.9148,0.8887,0.8402,0.8273,0.8407,0.8518,0.8751,0.9223,0.9361,0.9575,0.9804,0.9458,0.9601,0.9471,0.9435,0.9377,0.9339,0.9332,0.97,0.97,0.97,0.97,0.9832,0.9849,0.9869,0.9859,0.9842,0.9859,0.9876,0.988,0.9886,0.9869,0.9859,0.9852,0.9846,0.995,1.0065,1.0308,1.0547,1.0906,1.1269,1.1872,1.2105,1.235,1.2586,1.2631,1.2649,1.2691,1.2718,1.3138,1.3899,1.4364,1.4823,1.5292,1.5761,1.6132,1.6462,1.7055,1.7566,1.7714,1.8026,1.825,1.7849,1.7815,1.7976,1.8022,1.7952,1.7806,1.7799,1.7826,1.7826,1.8092,1.819,1.8422,1.8722,1.9317,2.0735,2.1954,2.2567,2.3076,2.3674,2.4384,2.459,2.4796,2.5109,2.5528,2.5732,2.5732,2.5644,2.543,2.5332,2.5444,2.5401,2.5071,2.4781,2.4893,2.5145,2.5461,2.6205,2.7974,2.9398,3.0217,3.0861,3.138,3.1601,3.1677,3.2103,3.2747,3.3492,3.4306,3.5642,3.6886,3.7644,3.8634,3.9421,0.9545,0.9417,0.926,0.9112,0.8916,0.8895,0.9082,0.9249,0.9464,0.9847,1.0062,1.0205,1.0035,0.9928,0.9908,0.9841,0.9619,0.9846,0.9825,0.9819,0.9819,0.9819,0.9852,0.9917,0.9985,0.9954,0.9897,0.99,0.9914,0.9964,1.0059,1.0134,1.0032,1.0002,0.9985,1.0057,1.0333,1.0576,1.1039,1.1514,1.1631,1.1997,1.2238,1.2479,1.2955,1.3177,1.3393,1.3512,1.3489,1.3822,1.4478,1.5386,1.5943,1.6495,1.6842,1.7268,1.7613,1.797,1.8311,1.8381,1.8668,1.8732,1.8435,1.8126,1.83,1.8351,1.8254,1.8261,1.8289,1.8365,1.8519,1.8772,1.9007,1.9501,1.9902,2.0893,2.2198,2.3011,2.3619,2.3818,2.4115,2.452,2.4815,2.502,2.5226,2.5538,2.5732,2.5732,2.5732,2.5732,2.5732,2.5799,2.5928,2.5846,2.5681,2.5799,2.6059,2.637,2.7065,2.8674,3.0011,3.0711,3.1306,3.1661,3.1837,3.1901,3.2426,3.3006,3.4082,3.4992,3.6229,3.7366,3.7976,3.8708,3.9636]},{"header":{"parameterUnit":"m.s-1","parameterCategory":1,"la1":31.0,"la2":29.5877,"lo1":-88.7671,"lo2":-86.6584,"dy":0.0162,"dx":0.0185,"nx":115,"ny":88,"refTime":"2023-05-27T12:00:00:Z","depth":0,"parameterNumber":3,"parameterNumberName":"V-component_of_WINDS"},"data":[0.0,0.0,0.0,0.0,0.0,0.0,0.0,0.0,0.0,0.0,0.0,0.0,0.0,0.0,0.0,0.0,0.0,0.0,0.0,0.0,0.0,0.0,0.0,0.0,0.0,0.0,0.0,0.0,0.0,0.0,0.0,0.0,0.0,0.0,0.0,0.0,0.0,0.0,0.0,0.0,0.0,0.0,0.0,0.0,0.0,0.0,0.0,0.0,0.0,0.0,0.0,0.0,0.0,0.0,0.0,0.0,0.0,0.0,0.0,0.0,0.0,0.0,0.0,0.0,0.0,0.0,0.0,0.0,0.0,0.0,0.0,0.0,0.0,0.0,0.0,0.0,0.0,0.0,0.0,0.0,0.0,0.0,0.0,0.0,0.0,0.0,0.0,0.0,0.0,0.0,0.0,0.0,0.0,0.0,0.0,0.0,0.0,0.0,0.0,0.0,0.0,0.0,0.0,0.0,0.0,0.0,0.0,0.0,0.0,0.0,0.0,0.0,0.0,0.0,0.0,0.0,0.0,0.0,0.0,0.0,0.0,0.0,0.0,0.0,0.0,0.0,0.0,0.0,0.0,0.0,0.0,0.0,0.0,0.0,0.0,0.0,0.0,0.0,0.0,0.0,0.0,0.0,0.0,0.0,0.0,0.0,0.0,0.0,0.0,0.0,0.0,0.0,0.0,0.0,0.0,0.0,0.0,0.0,0.0,0.0,0.0,0.0,0.0,0.0,0.0,0.0,0.0,0.0,0.0,0.0,0.0,0.0,0.0,0.0,0.0,0.0,0.0,0.0,0.0,0.0,0.0,0.0,0.0,0.0,0.0,0.0,0.0,0.0,0.0,0.0,0.0,0.0,0.0,0.0,0.0,0.0,0.0,0.0,0.0,0.0,0.0,0.0,0.0,0.0,0.0,0.0,0.0,0.0,0.0,0.0,0.0,0.0,0.0,0.0,0.0,0.0,0.0,0.0,0.0,0.0,0.0,0.0,0.0,0.0,0.0,0.0,0.0,0.0,0.0,0.0,0.0,0.0,0.0,0.0,0.0,0.0,0.0,0.0,0.0,0.0,0.0,0.0,0.0,0.0,0.0,0.0,0.0,0.0,0.0,0.0,0.0,0.0,0.0,0.0,0.0,0.0,0.0,0.0,0.0,0.0,0.0,0.0,0.0,0.0,0.0,0.0,0.0,0.0,0.0,0.0,0.0,0.0,0.0,0.0,0.0,0.0,0.0,0.0,0.0,0.0,0.0,0.0,0.0,0.0,0.0,0.0,0.0,0.0,0.0,0.0,0.0,0.0,0.0,0.0,0.0,0.0,0.0,0.0,0.0,0.0,0.0,0.0,0.0,0.0,0.0,0.0,0.0,0.0,0.0,0.0,0.0,0.0,0.0,0.0,0.0,0.0,0.0,0.0,0.0,0.0,0.0,0.0,0.0,0.0,0.0,0.0,0.0,0.0,0.0,0.0,0.0,0.0,0.0,0.0,0.0,0.0,0.0,0.0,0.0,0.0,0.0,0.0,0.0,0.0,0.0,0.0,0.0,0.0,0.0,0.0,0.0,0.0,0.0,0.0,0.0,0.0,0.0,0.0,0.0,0.0,0.0,0.0,0.0,0.0,0.0,0.0,0.0,0.0,0.0,0.0,0.0,0.0,0.0,0.0,0.0,0.0,0.0,0.0,0.0,0.0,0.0,0.0,0.0,0.0,0.0,0.0,0.0,0.0,0.0,0.0,0.0,0.0,0.0,0.0,0.0,0.0,0.0,0.0,0.0,0.0,0.0,0.0,0.0,0.0,0.0,0.0,0.0,0.0,0.0,0.0,0.0,0.0,0.0,0.0,0.0,0.0,0.0,0.0,0.0,0.0,0.0,0.0,0.0,0.0,0.0,0.0,0.0,0.0,0.0,0.0,0.0,0.0,0.0,0.0,0.0,0.0,0.0,0.0,0.0,0.0,0.0,0.0,0.0,0.0,0.0,0.0,0.0,0.0,0.0,0.0,0.0,0.0,0.0,0.0,0.0,0.0,0.0,0.0,0.0,0.0,0.0,0.0,0.0,0.0,0.0,0.0,0.0,0.0,0.0,0.0,0.0,0.0,0.0,0.0,0.0,0.0,0.0,0.0,0.0,0.0,0.0,0.0,0.0,0.0,0.0,0.0,0.0,0.0,0.0,0.0,0.0,0.0,0.0,0.0,0.0,0.0,0.0,0.0,0.0,0.0,0.0,0.0,0.0,0.0,0.0,0.0,0.0,0.0,0.0,0.0,0.0,0.0,0.0,0.0,0.0,0.0,0.0,0.0,0.0,0.0,0.0,0.0,0.0,0.0,0.0,0.0,0.0,0.0,0.0,0.0,0.0,0.0,0.0,0.0,0.0,0.0,0.0,0.0,0.0,0.0,0.0,0.0,0.0,0.0,0.0,0.0,0.0,0.0,0.0,0.0,0.0,0.0,0.0,0.0,0.0,0.0,0.0,0.0,0.0,0.0,0.0,0.0,0.0,0.0,0.0,0.0,0.0,0.0,0.0,0.0,0.0,0.0,0.0,0.0,0.0,0.0,0.0,0.0,0.0,0.0,0.0,0.0,0.0,0.0,0.0,0.0,0.0,0.0,0.0,0.0,0.0,0.0,0.0,0.0,0.0,0.0,0.0,0.0,0.0,0.0,0.0,0.0,0.0,0.0,0.0,0.0,0.0,0.0,0.0,0.0,0.0,0.0,0.0,0.0,0.0,0.0,0.0,0.0,0.0,0.0,0.0,0.0,0.0,0.0,0.0,0.0,0.0,0.0,0.0,0.0,0.0,0.0,0.0,0.0,0.0,0.0,0.0,0.0,0.0,0.0,0.0,0.0,0.0,0.0,0.0,0.0,0.0,0.0,0.0,0.0,0.0,0.0,0.0,0.0,0.0,0.0,0.0,0.0,0.0,0.0,0.0,0.0,0.0,0.0,0.0,0.0,0.0,0.0,0.0,0.0,0.0,0.0,0.0,0.0,0.0,0.0,0.0,0.0,0.0,0.0,0.0,0.0,0.0,0.0,0.0,0.0,0.0,0.0,0.0,0.0,0.0,0.0,0.0,0.0,0.0,0.0,0.0,0.0,0.0,0.0,0.0,0.0,0.0,0.0,0.0,0.0,0.0,0.0,0.0,0.0,0.0,0.0,0.0,0.0,0.0,0.0,0.0,0.0,0.0,0.0,0.0,0.0,0.0,0.0,0.0,0.0,0.0,0.0,0.0,0.0,0.0,0.0,0.0,0.0,0.0,0.0,0.0,0.0,0.0,0.0,0.0,0.0,0.0,0.0,0.0,0.0,0.0,0.0,0.0,0.0,0.0,0.0,0.0,0.0,0.0,0.0,0.0,0.0,0.0,0.0,0.0,0.0,0.0,0.0,0.0,0.0,0.0,0.0,0.0,0.0,0.0,0.0,0.0,0.0,0.0,0.0,0.0,0.0,0.0,0.0,0.0,0.0,0.0,0.0,0.0,0.0,0.0,0.0,0.0,0.0,0.0,0.0,0.0,0.0,0.0,0.0,0.0,0.0,0.0,0.0,0.0,0.0,0.0,0.0,0.0,0.0,0.0,0.0,0.0,0.0,0.0,0.0,0.0,0.0,0.0,0.0,0.0,0.0,0.0,0.0,0.0,0.0,0.0,0.0,0.0,0.0,0.0,0.0,0.0,0.0,0.0,0.0,0.0,0.0,0.0,0.0,0.0,0.0,0.0,0.0,0.0,0.0,0.0,0.0,0.0,0.0,0.0,0.0,0.0,0.0,0.0,0.0,0.0,0.0,0.0,0.0,0.0,0.0,0.0,0.0,0.0,0.0,0.0,0.0,0.0,0.0,0.0,0.0,0.0,0.0,0.0,0.0,0.0,0.0,0.0,0.0,0.0,0.0,0.0,0.0,0.0,0.0,0.0,0.0,0.0,0.0,0.0,0.0,0.0,0.0,0.0,0.0,0.0,0.0,0.0,0.0,0.0,0.0,0.0,0.0,0.0,0.0,0.0,0.0,0.0,0.0,0.0,0.0,0.0,0.0,0.0,0.0,0.0,0.0,0.0,0.0,0.0,0.0,0.0,0.0,0.0,0.0,0.0,0.0,0.0,0.0,0.0,0.0,0.0,0.0,0.0,0.0,0.0,0.0,0.0,0.0,0.0,0.0,0.0,0.0,0.0,0.0,0.0,0.0,0.0,0.0,0.0,0.0,0.0,0.0,0.0,0.0,0.0,0.0,0.0,0.0,0.0,0.0,0.0,0.0,0.0,0.0,0.0,0.0,0.0,0.0,2.43,0.0,0.0,0.0,0.0,0.0,0.0,0.0,0.0,0.0,0.0,0.0,0.0,0.0,0.0,0.0,0.0,0.0,0.0,0.0,0.0,0.0,0.0,0.0,0.0,0.0,0.0,0.0,0.0,0.0,0.0,0.0,0.0,0.0,0.0,0.0,0.0,0.0,0.0,0.0,0.0,0.0,0.0,0.0,0.0,0.0,0.0,0.0,0.0,0.0,0.0,0.0,0.0,0.0,0.0,0.0,0.0,0.0,0.0,0.0,0.0,0.0,0.0,0.0,0.0,0.0,0.0,0.0,0.0,0.0,0.0,0.0,0.0,0.0,0.0,0.0,0.0,0.0,0.0,0.0,0.0,0.0,0.0,0.0,0.0,0.0,0.0,0.0,0.0,0.0,0.0,0.0,0.0,0.0,0.0,0.0,0.0,0.0,0.0,0.0,0.0,0.0,0.0,0.0,0.0,0.0,0.0,0.0,0.0,0.0,0.0,2.619,2.6014,2.5865,2.5805,2.5859,0.0,0.0,0.0,0.0,0.0,0.0,0.0,0.0,0.0,0.0,0.0,0.0,0.0,0.0,0.0,0.0,0.0,0.0,0.0,0.0,0.0,0.0,0.0,0.0,0.0,0.0,0.0,0.0,0.0,0.0,0.0,0.0,0.0,0.0,0.0,0.0,0.0,0.0,0.0,0.0,0.0,0.0,0.0,0.0,0.0,0.0,0.0,0.0,0.0,0.0,0.0,0.0,0.0,0.0,0.0,0.0,0.0,0.0,0.0,0.0,0.0,0.0,0.0,0.0,0.0,0.0,0.0,0.0,0.0,0.0,0.0,0.0,0.0,0.0,0.0,0.0,0.0,0.0,0.0,0.0,0.0,0.0,0.0,0.0,0.0,0.0,0.0,0.0,0.0,0.0,0.0,0.0,0.0,0.0,0.0,0.0,0.0,0.0,0.0,0.0,0.0,0.0,0.0,0.0,0.0,0.0,0.0,0.0,0.0,0.0,0.0,0.0,2.6804,2.6866,2.7078,0.0,0.0,0.0,0.0,0.0,0.0,0.0,0.0,0.0,0.0,0.0,0.0,0.0,0.0,0.0,0.0,0.0,0.0,0.0,0.0,0.0,0.0,0.0,0.0,0.0,0.0,0.0,0.0,0.0,0.0,0.0,0.0,0.0,0.0,0.0,0.0,0.0,0.0,0.0,0.0,0.0,0.0,0.0,0.0,0.0,0.0,0.0,0.0,0.0,0.0,0.0,0.0,0.0,0.0,0.0,0.0,0.0,0.0,0.0,0.0,0.0,0.0,0.0,0.0,0.0,0.0,0.0,0.0,0.0,0.0,0.0,0.0,0.0,0.0,0.0,0.0,0.0,0.0,0.0,0.0,0.0,0.0,0.0,0.0,0.0,0.0,0.0,0.0,0.0,0.0,0.0,0.0,0.0,0.0,0.0,0.0,0.0,0.0,0.0,0.0,0.0,0.0,0.0,0.0,0.0,0.0,0.0,0.0,0.0,0.0,2.7936,2.7861,2.8054,0.0,2.7167,0.0,0.0,0.0,0.0,0.0,0.0,0.0,0.0,0.0,0.0,0.0,0.0,0.0,0.0,0.0,0.0,0.0,0.0,0.0,0.0,0.0,0.0,0.0,0.0,0.0,0.0,0.0,0.0,0.0,0.0,0.0,0.0,0.0,0.0,0.0,0.0,0.0,0.0,0.0,0.0,0.0,0.0,0.0,0.0,0.0,0.0,0.0,0.0,0.0,0.0,0.0,0.0,0.0,0.0,0.0,0.0,0.0,0.0,0.0,0.0,0.0,0.0,0.0,0.0,0.0,0.0,0.0,0.0,0.0,0.0,0.0,0.0,0.0,0.0,0.0,0.0,0.0,0.0,0.0,0.0,0.0,0.0,0.0,0.0,0.0,0.0,0.0,0.0,0.0,0.0,0.0,0.0,0.0,0.0,0.0,0.0,0.0,0.0,0.0,0.0,0.0,0.0,0.0,0.0,0.0,0.0,0.0,0.0,0.0,0.0,2.9768,2.9379,2.9816,2.9401,0.0,0.0,0.0,0.0,0.0,0.0,0.0,0.0,0.0,0.0,0.0,0.0,0.0,0.0,0.0,0.0,0.0,0.0,0.0,0.0,0.0,0.0,0.0,0.0,0.0,0.0,0.0,0.0,0.0,0.0,0.0,0.0,0.0,0.0,0.0,0.0,0.0,0.0,0.0,0.0,0.0,0.0,0.0,0.0,0.0,0.0,0.0,0.0,0.0,0.0,0.0,0.0,0.0,0.0,0.0,0.0,0.0,0.0,0.0,0.0,0.0,0.0,0.0,0.0,0.0,0.0,0.0,0.0,0.0,0.0,0.0,0.0,0.0,0.0,0.0,0.0,0.0,0.0,0.0,0.0,0.0,0.0,0.0,0.0,0.0,0.0,0.0,0.0,0.0,0.0,0.0,0.0,0.0,0.0,0.0,0.0,0.0,0.0,0.0,0.0,0.0,0.0,0.0,0.0,0.0,0.0,0.0,0.0,0.0,0.0,3.1196,3.1314,3.0836,3.0652,2.986,2.8377,0.0,0.0,0.0,0.0,0.0,0.0,0.0,0.0,0.0,0.0,0.0,0.0,0.0,0.0,0.0,0.0,0.0,0.0,0.0,0.0,0.0,0.0,0.0,0.0,0.0,0.0,0.0,0.0,0.0,0.0,0.0,0.0,0.0,0.0,0.0,0.0,0.0,0.0,0.0,0.0,0.0,0.0,0.0,0.0,0.0,0.0,0.0,0.0,0.0,0.0,0.0,0.0,0.0,0.0,0.0,0.0,0.0,0.0,0.0,0.0,0.0,0.0,0.0,0.0,0.0,0.0,0.0,0.0,0.0,0.0,0.0,0.0,0.0,0.0,0.0,0.0,0.0,0.0,0.0,0.0,0.0,0.0,0.0,0.0,0.0,0.0,0.0,0.0,0.0,0.0,0.0,0.0,0.0,0.0,0.0,0.0,0.0,0.0,0.0,0.0,0.0,0.0,0.0,0.0,0.0,0.0,0.0,0.0,3.2706,3.2547,3.2319,3.2007,2.9956,2.8578,0.0,0.0,0.0,0.0,0.0,0.0,0.0,0.0,0.0,0.0,0.0,0.0,0.0,0.0,0.0,0.0,0.0,0.0,0.0,0.0,0.0,0.0,0.0,0.0,0.0,0.0,0.0,0.0,0.0,0.0,0.0,0.0,0.0,0.0,0.0,0.0,0.0,0.0,0.0,0.0,0.0,0.0,0.0,0.0,0.0,0.0,0.0,0.0,0.0,0.0,0.0,0.0,0.0,0.0,0.0,0.0,0.0,0.0,0.0,0.0,0.0,0.0,0.0,0.0,0.0,0.0,0.0,0.0,0.0,0.0,0.0,0.0,0.0,0.0,0.0,0.0,0.0,0.0,0.0,0.0,0.0,0.0,0.0,0.0,0.0,0.0,0.0,0.0,0.0,0.0,0.0,0.0,0.0,0.0,0.0,0.0,0.0,0.0,0.0,0.0,0.0,0.0,0.0,0.0,0.0,0.0,0.0,0.0,0.0,3.2641,3.2717,3.2838,3.2934,3.1457,3.0144,0.0,0.0,0.0,0.0,0.0,0.0,0.0,0.0,0.0,0.0,0.0,0.0,0.0,0.0,0.0,0.0,0.0,0.0,0.0,0.0,0.0,0.0,0.0,0.0,0.0,0.0,0.0,0.0,0.0,0.0,0.0,0.0,0.0,0.0,0.0,0.0,0.0,0.0,0.0,0.0,0.0,0.0,0.0,0.0,0.0,0.0,0.0,0.0,0.0,0.0,0.0,0.0,0.0,0.0,0.0,0.0,0.0,0.0,0.0,0.0,0.0,0.0,0.0,0.0,0.0,0.0,0.0,0.0,0.0,0.0,0.0,0.0,0.0,0.0,0.0,0.0,0.0,0.0,0.0,0.0,0.0,0.0,0.0,0.0,0.0,0.0,0.0,0.0,0.0,0.0,0.0,0.0,0.0,0.0,0.0,0.0,0.0,0.0,0.0,0.0,0.0,0.0,0.0,0.0,0.0,0.0,0.0,0.0,0.0,3.3875,0.0,3.3723,3.3596,3.2227,3.0807,0.0,0.0,0.0,0.0,0.0,0.0,0.0,0.0,0.0,0.0,0.0,0.0,0.0,0.0,0.0,0.0,0.0,0.0,0.0,0.0,0.0,0.0,0.0,0.0,0.0,0.0,0.0,0.0,0.0,0.0,0.0,0.0,0.0,0.0,0.0,0.0,0.0,0.0,0.0,0.0,0.0,0.0,0.0,0.0,0.0,0.0,0.0,0.0,0.0,0.0,0.0,0.0,0.0,0.0,0.0,0.0,0.0,0.0,0.0,0.0,0.0,0.0,0.0,0.0,0.0,0.0,0.0,0.0,0.0,0.0,0.0,0.0,0.0,0.0,0.0,0.0,0.0,0.0,0.0,0.0,0.0,0.0,0.0,0.0,0.0,0.0,0.0,0.0,0.0,0.0,0.0,0.0,0.0,0.0,0.0,0.0,0.0,0.0,0.0,0.0,0.0,0.0,0.0,0.0,0.0,0.0,0.0,0.0,3.5695,3.6666,3.5935,3.5007,3.3916,3.2126,3.0461,0.0,0.0,0.0,0.0,0.0,0.0,0.0,0.0,0.0,0.0,0.0,0.0,0.0,0.0,0.0,0.0,0.0,0.0,0.0,0.0,0.0,0.0,0.0,0.0,0.0,0.0,0.0,0.0,0.0,0.0,0.0,0.0,0.0,0.0,0.0,0.0,0.0,0.0,0.0,0.0,0.0,0.0,0.0,0.0,0.0,0.0,0.0,0.0,0.0,0.0,0.0,0.0,0.0,0.0,0.0,0.0,0.0,0.0,0.0,0.0,0.0,0.0,0.0,0.0,0.0,0.0,0.0,0.0,0.0,0.0,0.0,0.0,0.0,0.0,0.0,0.0,0.0,0.0,0.0,0.0,0.0,0.0,0.0,0.0,0.0,0.0,0.0,0.0,0.0,0.0,0.0,0.0,0.0,0.0,0.0,0.0,0.0,0.0,0.0,0.0,0.0,0.0,0.0,0.0,0.0,0.0,0.0,0.0,0.0,3.6527,3.6001,3.5343,3.4516,3.3038,3.16,0.0,0.0,0.0,0.0,0.0,0.0,0.0,0.0,0.0,0.0,0.0,0.0,0.0,0.0,0.0,0.0,0.0,0.0,0.0,0.0,0.0,0.0,0.0,0.0,0.0,0.0,0.0,0.0,0.0,0.0,0.0,0.0,0.0,0.0,0.0,0.0,0.0,0.0,0.0,0.0,0.0,0.0,0.0,0.0,0.0,0.0,0.0,0.0,0.0,0.0,0.0,0.0,0.0,0.0,0.0,0.0,0.0,0.0,0.0,0.0,0.0,0.0,0.0,0.0,0.0,0.0,0.0,0.0,0.0,0.0,0.0,0.0,0.0,0.0,0.0,0.0,0.0,0.0,0.0,0.0,0.0,0.0,0.0,0.0,0.0,0.0,0.0,0.0,0.0,0.0,0.0,0.0,0.0,0.0,0.0,0.0,0.0,0.0,0.0,0.0,0.0,0.0,0.0,0.0,0.0,0.0,0.0,0.0,0.0,3.6807,3.6622,3.6258,3.5538,3.4108,3.2745,3.1508,0.0,0.0,0.0,0.0,0.0,0.0,0.0,0.0,0.0,0.0,0.0,0.0,0.0,0.0,0.0,0.0,0.0,0.0,0.0,0.0,0.0,0.0,0.0,0.0,0.0,0.0,0.0,0.0,0.0,0.0,0.0,0.0,0.0,0.0,0.0,0.0,0.0,0.0,0.0,0.0,0.0,0.0,0.0,0.0,0.0,0.0,0.0,0.0,0.0,0.0,0.0,0.0,0.0,0.0,0.0,0.0,0.0,0.0,0.0,0.0,0.0,0.0,0.0,0.0,0.0,0.0,0.0,0.0,0.0,0.0,0.0,0.0,0.0,0.0,0.0,0.0,0.0,0.0,0.0,0.0,0.0,0.0,0.0,0.0,0.0,0.0,0.0,0.0,0.0,0.0,0.0,0.0,0.0,0.0,0.0,0.0,0.0,0.0,0.0,0.0,0.0,0.0,0.0,0.0,0.0,0.0,0.0,0.0,3.7294,3.7747,3.758,3.6656,3.519,3.3857,0.0,0.0,0.0,0.0,0.0,0.0,0.0,0.0,0.0,0.0,0.0,0.0,0.0,0.0,0.0,0.0,0.0,0.0,0.0,0.0,0.0,0.0,0.0,0.0,0.0,0.0,0.0,0.0,0.0,0.0,0.0,0.0,0.0,0.0,0.0,0.0,0.0,0.0,0.0,0.0,0.0,0.0,0.0,0.0,0.0,0.0,0.0,0.0,0.0,0.0,0.0,0.0,0.0,0.0,0.0,0.0,0.0,0.0,0.0,0.0,0.0,0.0,0.0,0.0,0.0,0.0,0.0,0.0,0.0,0.0,0.0,0.0,0.0,0.0,0.0,0.0,0.0,0.0,0.0,0.0,0.0,0.0,0.0,0.0,0.0,0.0,0.0,0.0,0.0,0.0,0.0,0.0,0.0,0.0,0.0,0.0,0.0,0.0,0.0,0.0,0.0,0.0,0.0,0.0,0.0,0.0,0.0,0.0,0.0,3.7395,3.8603,3.8351,3.6421,3.6029,3.4641,0.0,0.0,0.0,0.0,0.0,0.0,0.0,0.0,0.0,0.0,0.0,0.0,0.0,0.0,0.0,0.0,0.0,0.0,0.0,0.0,0.0,0.0,0.0,0.0,0.0,0.0,0.0,0.0,0.0,0.0,0.0,0.0,0.0,0.0,0.0,0.0,0.0,0.0,0.0,0.0,0.0,0.0,0.0,0.0,0.0,0.0,0.0,0.0,0.0,0.0,0.0,0.0,0.0,0.0,0.0,0.0,0.0,0.0,0.0,0.0,0.0,0.0,0.0,0.0,0.0,0.0,0.0,0.0,0.0,0.0,0.0,0.0,0.0,0.0,0.0,0.0,0.0,0.0,0.0,0.0,0.0,0.0,0.0,0.0,0.0,0.0,0.0,0.0,0.0,0.0,0.0,0.0,0.0,0.0,0.0,0.0,0.0,0.0,0.0,0.0,0.0,0.0,0.0,0.0,0.0,0.0,0.0,0.0,3.7694,3.6614,3.799,3.7827,3.5914,3.6415,3.5592,0.0,0.0,0.0,0.0,0.0,0.0,0.0,0.0,0.0,0.0,0.0,0.0,0.0,0.0,0.0,0.0,0.0,0.0,0.0,0.0,0.0,0.0,0.0,0.0,0.0,0.0,0.0,0.0,0.0,0.0,0.0,0.0,0.0,0.0,0.0,0.0,0.0,0.0,0.0,0.0,0.0,0.0,0.0,0.0,0.0,0.0,0.0,0.0,0.0,0.0,0.0,0.0,0.0,0.0,0.0,0.0,0.0,0.0,0.0,0.0,0.0,0.0,0.0,0.0,0.0,0.0,0.0,0.0,0.0,0.0,0.0,0.0,0.0,0.0,0.0,0.0,0.0,0.0,0.0,0.0,0.0,0.0,0.0,0.0,0.0,0.0,0.0,0.0,0.0,0.0,0.0,0.0,0.0,0.0,0.0,0.0,0.0,0.0,0.0,0.0,0.0,0.0,0.0,0.0,0.0,0.0,0.0,0.0,3.6481,3.5502,3.6582,3.6506,3.5233,3.6309,3.6254,0.0,0.0,0.0,0.0,0.0,0.0,0.0,0.0,0.0,0.0,0.0,0.0,0.0,0.0,0.0,0.0,0.0,0.0,0.0,0.0,0.0,0.0,0.0,0.0,0.0,0.0,0.0,0.0,0.0,0.0,0.0,0.0,0.0,0.0,0.0,0.0,0.0,0.0,0.0,0.0,0.0,0.0,0.0,0.0,0.0,0.0,0.0,0.0,0.0,0.0,0.0,0.0,0.0,0.0,0.0,0.0,0.0,0.0,0.0,0.0,0.0,0.0,0.0,0.0,0.0,0.0,0.0,0.0,0.0,0.0,0.0,0.0,0.0,0.0,0.0,0.0,0.0,0.0,0.0,0.0,0.0,0.0,0.0,0.0,0.0,0.0,0.0,0.0,0.0,0.0,0.0,0.0,0.0,0.0,0.0,0.0,0.0,0.0,0.0,0.0,0.0,0.0,0.0,0.0,0.0,0.0,0.0,0.0,3.6145,3.4666,3.5736,3.5372,3.3337,3.5137,3.508,0.0,0.0,0.0,0.0,0.0,0.0,0.0,0.0,0.0,0.0,0.0,0.0,0.0,0.0,0.0,0.0,0.0,0.0,0.0,0.0,0.0,0.0,0.0,0.0,0.0,0.0,0.0,0.0,0.0,0.0,0.0,0.0,0.0,0.0,0.0,0.0,0.0,0.0,0.0,0.0,0.0,0.0,0.0,0.0,0.0,0.0,0.0,0.0,2.0931,0.0,0.0,0.0,0.0,0.0,0.0,0.0,0.0,0.0,0.0,0.0,0.0,0.0,0.0,0.0,0.0,0.0,0.0,0.0,0.0,0.0,0.0,0.0,0.0,0.0,0.0,0.0,0.0,0.0,0.0,0.0,0.0,0.0,0.0,0.0,0.0,0.0,0.0,0.0,0.0,0.0,0.0,0.0,0.0,0.0,0.0,0.0,0.0,0.0,0.0,0.0,0.0,0.0,0.0,0.0,0.0,0.0,0.0,0.0,3.5533,3.4958,3.4195,3.3117,3.1742,3.2224,3.2397,0.0,0.0,0.0,0.0,0.0,0.0,0.0,0.0,0.0,0.0,0.0,0.0,0.0,0.0,0.0,0.0,0.0,0.0,0.0,0.0,0.0,0.0,0.0,0.0,0.0,0.0,0.0,0.0,0.0,0.0,0.0,0.0,0.0,0.0,0.0,0.0,0.0,0.0,0.0,0.0,0.0,0.0,0.0,0.0,0.0,0.0,0.0,0.0,0.0,0.0,0.0,0.0,0.0,0.0,0.0,0.0,0.0,0.0,0.0,0.0,0.0,0.0,0.0,0.0,0.0,0.0,0.0,0.0,0.0,0.0,0.0,0.0,0.0,0.0,0.0,0.0,0.0,0.0,0.0,0.0,0.0,0.0,0.0,0.0,0.0,0.0,0.0,0.0,0.0,0.0,0.0,0.0,0.0,0.0,0.0,0.0,0.0,0.0,0.0,0.0,0.0,0.0,0.0,0.0,0.0,0.0,0.0,3.5267,3.4823,3.5129,3.251,3.0629,2.9838,2.9086,2.9433,3.1013,0.0,0.0,0.0,0.0,0.0,0.0,0.0,0.0,0.0,0.0,0.0,0.0,0.0,0.0,0.0,0.0,0.0,0.0,0.0,0.0,0.0,0.0,0.0,0.0,0.0,0.0,0.0,0.0,0.0,0.0,0.0,0.0,0.0,0.0,0.0,0.0,0.0,0.0,2.7143,2.7225,0.0,0.0,0.0,0.0,0.0,0.0,0.0,0.0,2.0828,0.0,0.0,0.0,0.0,0.0,0.0,0.0,0.0,0.0,0.0,0.0,0.0,0.0,0.0,0.0,0.0,0.0,0.0,0.0,0.0,0.0,0.0,0.0,0.0,0.0,0.0,0.0,0.0,0.0,0.0,0.0,0.0,0.0,0.0,0.0,0.0,0.0,0.0,0.0,0.0,0.0,0.0,0.0,0.0,0.0,0.0,0.0,0.0,0.0,0.0,0.0,0.0,0.0,0.0,0.0,0.0,3.6175,3.5189,3.4223,3.3293,3.1326,2.9119,2.6733,2.7883,2.7902,2.6455,0.0,0.0,0.0,0.0,0.0,0.0,0.0,0.0,0.0,0.0,0.0,0.0,0.0,0.0,0.0,0.0,0.0,0.0,0.0,0.0,0.0,0.0,0.0,0.0,0.0,0.0,0.0,0.0,0.0,0.0,0.0,0.0,0.0,0.0,0.0,0.0,0.0,0.0,0.0,3.0022,2.9893,0.0,0.0,0.0,0.0,0.0,0.0,0.0,0.0,2.0774,0.0,0.0,0.0,0.0,0.0,0.0,0.0,0.0,0.0,0.0,0.0,0.0,0.0,0.0,0.0,0.0,0.0,0.0,0.0,0.0,0.0,0.0,0.0,0.0,0.0,0.0,0.0,0.0,0.0,0.0,0.0,0.0,0.0,0.0,0.0,0.0,0.0,0.0,0.0,0.0,0.0,0.0,0.0,0.0,0.0,0.0,0.0,0.0,0.0,0.0,0.0,0.0,0.0,0.0,0.0,3.6137,3.4902,3.3704,3.2603,2.9847,2.7414,2.5367,2.591,2.5295,0.0,0.0,0.0,0.0,0.0,0.0,0.0,0.0,0.0,0.0,0.0,0.0,0.0,0.0,0.0,0.0,0.0,0.0,0.0,0.0,0.0,0.0,0.0,0.0,0.0,0.0,0.0,0.0,0.0,0.0,0.0,0.0,0.0,0.0,0.0,0.0,0.0,0.0,0.0,0.0,3.2141,3.195,3.1282,0.0,0.0,0.0,0.0,0.0,0.0,2.4026,2.2471,0.0,0.0,0.0,0.0,0.0,0.0,0.0,0.0,0.0,0.0,0.0,0.0,0.0,0.0,0.0,0.0,0.0,0.0,0.0,0.0,0.0,0.0,0.0,0.0,0.0,0.0,0.0,0.0,0.0,0.0,0.0,0.0,0.0,0.0,0.0,0.0,0.0,0.0,0.0,0.0,0.0,0.0,0.0,0.0,0.0,0.0,0.0,0.0,0.0,0.0,0.0,0.0,0.0,0.0,0.0,3.6026,3.4587,3.327,3.206,2.8669,2.6034,2.4482,2.4822,2.3666,0.0,0.0,0.0,0.0,0.0,0.0,0.0,0.0,0.0,0.0,0.0,0.0,0.0,0.0,0.0,0.0,0.0,0.0,0.0,0.0,0.0,0.0,0.0,0.0,0.0,0.0,0.0,0.0,0.0,0.0,0.0,0.0,0.0,0.0,0.0,0.0,0.0,0.0,0.0,0.0,0.0,3.373,3.3553,3.2814,0.0,0.0,0.0,0.0,2.6414,2.4885,0.0,0.0,0.0,0.0,0.0,0.0,0.0,0.0,0.0,0.0,0.0,0.0,0.0,0.0,0.0,0.0,0.0,0.0,0.0,0.0,0.0,0.0,0.0,0.0,0.0,0.0,0.0,0.0,0.0,0.0,0.0,0.0,0.0,0.0,0.0,0.0,0.0,0.0,0.0,0.0,0.0,0.0,0.0,0.0,0.0,0.0,0.0,0.0,0.0,0.0,0.0,0.0,0.0,0.0,0.0,0.0,3.5257,3.4358,3.2937,3.0983,2.8175,2.566,2.3589,2.6235,2.5021,0.0,0.0,0.0,0.0,0.0,0.0,0.0,0.0,0.0,0.0,0.0,0.0,0.0,0.0,0.0,0.0,0.0,0.0,0.0,0.0,0.0,0.0,0.0,0.0,0.0,0.0,0.0,0.0,0.0,0.0,0.0,0.0,0.0,0.0,0.0,0.0,0.0,0.0,0.0,0.0,0.0,3.5277,3.4409,3.3989,3.3145,0.0,0.0,2.7507,2.6219,2.4232,0.0,0.0,0.0,0.0,0.0,0.0,0.0,0.0,0.0,0.0,0.0,0.0,0.0,0.0,0.0,0.0,0.0,0.0,0.0,0.0,0.0,0.0,0.0,0.0,0.0,0.0,0.0,0.0,0.0,0.0,0.0,0.0,0.0,0.0,0.0,0.0,0.0,0.0,0.0,0.0,0.0,0.0,0.0,0.0,0.0,0.0,0.0,0.0,0.0,0.0,0.0,0.0,0.0,0.0,0.0,3.6139,3.4762,3.3819,3.2149,2.9717,2.6989,2.471,2.2966,2.4981,2.3781,0.0,0.0,0.0,0.0,0.0,0.0,0.0,0.0,0.0,0.0,0.0,0.0,0.0,0.0,0.0,0.0,0.0,0.0,0.0,0.0,0.0,0.0,0.0,0.0,0.0,0.0,0.0,0.0,0.0,0.0,0.0,0.0,0.0,0.0,0.0,0.0,0.0,0.0,0.0,0.0,0.0,0.0,3.5328,3.5307,0.0,0.0,0.0,2.8592,2.7115,0.0,0.0,0.0,0.0,0.0,0.0,0.0,0.0,0.0,0.0,0.0,0.0,0.0,0.0,0.0,0.0,0.0,0.0,0.0,0.0,0.0,0.0,0.0,0.0,0.0,0.0,0.0,0.0,0.0,0.0,0.0,0.0,0.0,0.0,0.0,0.0,0.0,0.0,0.0,0.0,0.0,0.0,0.0,0.0,0.0,0.0,0.0,0.0,0.0,0.0,0.0,0.0,0.0,0.0,0.0,0.0,0.0,3.4262,3.3178,3.1396,2.8906,2.5968,2.3787,2.2635,2.3532,0.0,0.0,0.0,0.0,0.0,0.0,0.0,0.0,0.0,0.0,0.0,0.0,0.0,0.0,0.0,0.0,0.0,0.0,0.0,0.0,0.0,0.0,0.0,0.0,0.0,0.0,0.0,2.5344,0.0,0.0,0.0,0.0,0.0,0.0,0.0,0.0,0.0,0.0,0.0,0.0,0.0,0.0,3.6129,3.5711,3.6104,3.5793,0.0,0.0,2.9297,2.8046,2.605,2.3981,0.0,0.0,0.0,0.0,0.0,0.0,0.0,0.0,0.0,0.0,0.0,0.0,0.0,0.0,0.0,0.0,0.0,0.0,0.0,0.0,0.0,0.0,0.0,0.0,0.0,0.0,0.0,0.0,0.0,0.0,0.0,0.0,0.0,0.0,0.0,0.0,0.0,0.0,0.0,0.0,0.0,0.0,0.0,0.0,0.0,0.0,0.0,0.0,0.0,0.0,0.0,0.0,0.0,0.0,3.5439,3.3611,3.2399,3.0817,2.8772,2.5587,2.3424,2.2641,2.2724,2.1787,0.0,0.0,0.0,0.0,0.0,0.0,0.0,0.0,0.0,0.0,0.0,0.0,0.0,0.0,0.0,0.0,0.0,0.0,0.0,0.0,0.0,0.0,0.0,0.0,0.0,0.0,0.0,0.0,0.0,0.0,0.0,0.0,0.0,0.0,0.0,0.0,0.0,0.0,0.0,0.0,0.0,3.6225,3.5189,3.611,3.5985,0.0,3.0991,2.9093,2.8552,2.6136,2.3194,1.9699,0.0,0.0,0.0,0.0,0.0,0.0,0.0,0.0,0.0,0.0,0.0,0.0,0.0,0.0,0.0,0.0,0.0,0.0,0.0,0.0,0.0,0.0,0.0,0.0,0.0,0.0,0.0,0.0,0.0,0.0,0.0,0.0,0.0,0.0,0.0,0.0,0.0,0.0,0.0,0.0,0.0,0.0,0.0,0.0,0.0,0.0,0.0,0.0,0.0,0.0,0.0,0.0,0.0,3.4606,3.3394,3.2476,3.0925,2.8678,2.593,2.3858,2.2487,2.1663,2.0772,0.0,0.0,0.0,0.0,0.0,0.0,0.0,0.0,0.0,0.0,0.0,0.0,0.0,0.0,0.0,0.0,0.0,0.0,0.0,0.0,0.0,0.0,0.0,0.0,0.0,0.0,0.0,0.0,3.0392,3.1139,3.0618,0.0,0.0,0.0,0.0,0.0,0.0,0.0,0.0,0.0,0.0,3.6483,3.5978,3.5757,0.0,0.0,2.9715,2.5455,2.1699,1.8506,1.6304,1.6066,1.4954,0.0,0.0,0.0,0.0,0.0,0.0,0.0,0.0,0.0,0.0,0.0,0.0,0.0,0.0,0.0,0.0,0.0,0.0,0.0,0.0,0.0,0.0,0.0,0.0,0.0,0.0,0.0,0.0,0.0,0.0,0.0,0.0,0.0,0.0,0.0,0.0,0.0,0.0,0.0,0.0,0.0,0.0,0.0,0.0,0.0,0.0,0.0,0.0,0.0,0.0,0.0,0.0,3.4051,3.3281,3.2285,3.0707,2.8373,2.5842,2.3639,2.1854,2.027,1.9305,0.0,0.0,0.0,0.0,0.0,0.0,0.0,0.0,0.0,0.0,0.0,0.0,0.0,0.0,0.0,0.0,0.0,0.0,0.0,0.0,0.0,0.0,0.0,0.0,0.0,0.0,0.0,0.0,3.0413,3.1172,3.0494,0.0,0.0,0.0,0.0,0.0,0.0,0.0,0.0,0.0,0.0,3.6925,3.644,3.5865,3.5082,3.3972,3.0128,2.5839,2.1658,1.7557,1.4866,1.4831,0.0,0.0,0.0,0.0,0.0,0.0,0.0,0.0,0.0,0.0,0.0,0.0,0.0,0.0,0.0,0.0,0.0,0.0,0.0,0.0,0.0,0.0,0.0,0.0,0.0,0.0,0.0,2.8823,0.0,0.0,3.1517,0.0,0.0,0.0,0.0,0.0,0.0,0.0,0.0,0.0,0.0,0.0,0.0,0.0,0.0,0.0,0.0,0.0,0.0,0.0,0.0,0.0,0.0,3.3963,3.3195,3.1647,2.9965,2.8083,2.5057,2.2543,2.0703,1.8556,1.7439,1.7454,0.0,0.0,0.0,0.0,0.0,0.0,0.0,0.0,0.0,0.0,0.0,0.0,0.0,0.0,0.0,0.0,0.0,0.0,0.0,0.0,0.0,0.0,0.0,0.0,0.0,0.0,2.543,2.7431,2.9415,0.0,0.0,0.0,0.0,0.0,0.0,0.0,0.0,0.0,3.7449,3.7813,3.7534,3.6307,3.6696,3.6268,3.422,3.2683,3.1609,3.0689,2.6072,2.1243,0.0,0.0,0.0,0.0,0.0,0.0,0.0,0.0,0.0,0.0,0.0,0.0,0.0,0.0,0.0,0.0,0.0,0.0,0.0,0.0,0.0,0.0,0.0,0.0,0.0,0.0,0.0,2.7954,2.9265,0.0,0.0,0.0,0.0,0.0,0.0,0.0,0.0,0.0,0.0,0.0,3.2281,3.2803,0.0,0.0,0.0,0.0,0.0,0.0,0.0,0.0,0.0,0.0,0.0,0.0,3.2521,3.2031,3.1084,2.9561,2.7323,2.4914,2.2392,1.9933,1.7676,1.6149,1.5476,0.0,0.0,0.0,0.0,0.0,0.0,0.0,0.0,0.0,0.0,0.0,0.0,0.0,0.0,0.0,0.0,0.0,0.0,0.0,0.0,0.0,0.0,0.0,0.0,0.0,2.8793,0.0,0.0,0.0,0.0,0.0,0.0,0.0,0.0,0.0,0.0,0.0,3.7592,3.8483,3.8037,3.7458,3.7065,3.6293,3.4754,0.0,0.0,0.0,0.0,0.0,0.0,0.0,0.0,0.0,0.0,0.0,0.0,0.0,0.0,0.455,0.8592,0.9965,1.0686,1.1295,0.0,0.0,0.0,0.0,0.0,0.0,0.0,0.0,0.0,0.0,0.0,0.0,0.0,0.0,2.7447,0.0,3.0061,0.0,0.0,0.0,0.0,0.0,0.0,0.0,0.0,3.197,3.2101,3.1903,3.2358,3.2724,0.0,3.2886,3.2901,0.0,0.0,0.0,0.0,0.0,0.0,0.0,0.0,3.1696,3.1176,3.06,2.904,2.648,2.4359,2.1839,1.8862,1.6235,1.4373,1.3404,1.3987,1.5284,0.0,0.0,0.0,0.0,0.0,0.0,0.0,0.0,0.0,0.0,0.0,0.0,0.0,0.0,0.0,0.0,0.0,0.0,0.0,0.0,0.0,0.0,0.0,3.0397,0.0,0.0,0.0,0.0,0.0,0.0,0.0,0.0,0.0,3.7386,3.768,3.8183,3.9492,3.839,3.7392,3.7188,0.0,0.0,0.0,0.0,0.0,0.0,0.0,1.7259,1.7342,1.5103,1.3935,1.5645,1.292,0.9821,0.799,0.0,0.0,0.8103,0.9806,1.0989,1.1056,1.1813,1.2894,1.4291,1.4932,1.5564,0.0,0.0,0.0,0.0,0.0,0.0,0.0,0.0,2.5345,2.6534,0.0,2.8302,0.0,0.0,0.0,0.0,3.0878,3.0988,0.0,0.0,3.0471,3.0938,3.1276,3.1101,3.1322,3.2008,3.2076,3.2304,3.2754,3.3432,0.0,0.0,0.0,0.0,0.0,0.0,3.1534,3.057,3.0115,2.8477,2.5524,2.3504,2.0818,1.7411,1.4363,1.2285,1.1359,1.2371,1.292,1.2624,1.4879,0.0,0.0,0.0,0.0,0.0,0.0,0.0,0.0,0.0,0.0,0.0,0.0,0.0,0.0,0.0,0.0,0.0,0.0,0.0,0.0,3.0299,0.0,0.0,0.0,0.0,0.0,0.0,0.0,0.0,0.0,0.0,3.7697,3.78,3.8374,4.0274,0.0,0.0,0.0,0.0,3.5325,3.3672,3.3033,3.211,3.0683,2.5767,2.1448,1.9534,0.0,0.0,0.744,0.9488,1.0408,0.8481,0.8077,0.662,0.0205,0.3286,0.6257,0.5684,0.8361,1.129,1.3638,1.5246,1.593,2.4774,0.0,0.0,0.0,0.0,2.5278,2.5936,2.6262,2.7208,2.8251,2.9438,2.9336,0.0,0.0,0.0,0.0,0.0,0.0,3.0288,2.9732,3.0407,3.0823,3.1009,3.147,3.1926,3.2283,3.2017,3.2246,3.2953,3.3339,3.3311,3.2772,0.0,0.0,0.0,0.0,3.0402,2.9782,2.8784,2.6993,2.4544,2.2463,1.9421,1.539,1.3138,1.1336,0.9872,0.986,1.011,1.0756,1.1611,0.0,0.0,0.0,0.0,0.0,0.0,0.0,0.0,0.0,0.0,0.0,0.0,0.0,0.0,0.0,0.0,0.0,0.0,0.0,2.9175,3.1263,3.1568,0.0,0.0,0.0,0.0,0.0,0.0,0.0,0.0,0.0,3.6681,3.6583,3.6827,0.0,0.0,3.5808,3.5046,3.4408,3.2764,2.9311,2.8624,0.0,2.4339,2.2592,2.1176,1.9756,1.5228,1.1361,0.9884,0.8687,0.713,0.5057,0.4158,0.1944,-0.2842,-0.0758,0.3819,0.8236,0.8876,1.041,1.6478,2.0142,2.2363,2.6844,2.5602,2.5412,2.5466,2.5722,2.6576,2.7001,2.7278,2.7872,2.8716,2.975,3.008,3.0485,3.1062,3.1043,0.0,0.0,0.0,2.9831,2.9226,2.9977,3.0528,3.0845,3.1229,3.1634,3.1939,3.1552,3.1912,3.2969,3.3014,3.3004,3.2966,0.0,0.0,3.1372,3.0666,2.9907,2.8989,2.7994,2.6295,2.3899,2.1098,1.7827,1.4111,1.2787,1.117,0.9161,0.9135,0.9155,0.9199,1.029,1.1967,0.0,0.0,0.0,0.0,0.0,0.0,0.0,0.0,0.0,0.0,0.0,2.7234,2.4932,0.0,0.0,0.0,2.9761,3.0417,3.0965,3.1781,0.0,0.0,0.0,0.0,0.0,0.0,0.0,3.1129,3.3228,3.4996,3.5641,3.5301,3.5682,3.764,3.599,3.4315,3.3432,0.0,3.033,2.717,2.6319,2.5056,2.2314,2.1046,1.9587,1.6684,1.3829,1.1238,0.9268,0.7288,0.537,0.3632,0.2229,0.0102,-0.3742,-0.4163,-0.2243,0.4353,0.663,0.9602,1.6387,2.1313,2.4791,2.8802,2.8364,2.7611,2.715,2.6899,2.7217,2.7491,2.758,2.7722,2.8368,2.9303,3.0505,3.0842,3.0556,3.0908,0.0,2.9459,2.9532,2.9287,2.888,2.9371,3.0033,3.0827,3.0586,3.0745,3.1215,3.0867,3.1502,3.2779,3.2468,3.2562,3.3181,3.328,3.254,3.1071,3.0624,2.9736,2.833,2.7715,2.6152,2.3356,1.9575,1.6242,1.362,1.2922,1.1373,0.9075,0.9596,0.9414,0.8188,1.0297,1.1735,1.2401,0.0,0.0,0.0,0.0,0.0,0.0,0.0,0.0,0.0,0.0,0.0,0.0,0.0,0.0,0.0,3.1339,0.0,3.4099,3.2128,0.0,0.0,0.0,3.0157,3.3678,3.374,3.3679,3.4018,0.0,0.0,3.4722,3.4104,3.4831,3.798,3.5385,3.2762,3.1719,3.0042,2.8157,2.6445,2.5362,2.4178,2.2396,2.0139,1.6828,1.2442,1.0211,0.8833,0.6976,0.5861,0.4784,0.3311,0.1932,0.0308,-0.1853,-0.6687,-0.9663,-0.4053,0.2057,0.8172,1.3119,1.9047,2.3974,3.0023,2.9784,3.032,2.955,2.8028,2.8856,2.9184,2.924,2.9431,2.9824,3.0398,3.0217,3.0181,3.0245,3.0442,3.0134,2.9426,2.9567,2.9465,2.9126,2.9316,2.972,3.027,3.0506,3.0803,3.1018,3.1114,3.1608,3.2415,3.2094,3.204,3.2266,3.2148,3.168,3.0923,3.0302,2.9351,2.8182,2.7427,2.5432,2.22,1.9191,1.6577,1.4448,1.2637,1.0958,0.9499,0.9093,0.8937,0.8928,0.9662,1.0911,1.2532,1.4622,0.0,0.0,0.0,0.0,0.0,0.0,0.0,0.0,0.0,2.8068,2.7712,0.0,2.859,0.0,3.1815,3.4678,3.4123,3.4258,0.0,0.0,3.1531,3.1337,3.2691,3.399,3.4287,3.3022,3.4628,3.5572,3.4846,3.399,3.3843,3.4964,3.3361,3.1471,3.0033,2.8505,2.6834,2.4826,2.2724,2.0742,1.9358,1.6503,1.363,1.0847,0.9366,0.8065,0.6446,0.541,0.4261,0.2704,0.1842,0.0587,-0.1585,-0.4669,-0.651,-0.5902,-0.2373,0.2571,0.8429,1.7095,2.4186,3.1383,3.1193,3.1925,3.1436,3.0383,3.0621,3.0516,3.0248,3.0257,3.0495,3.0753,3.0545,3.0688,3.1111,3.0788,3.0444,2.9973,3.0126,3.0047,2.9853,3.0035,3.0279,3.0611,3.089,3.0856,3.0755,3.0963,3.1338,3.1786,3.1601,3.1495,3.1522,3.1165,3.0524,2.9538,2.9735,2.9377,2.8234,2.6261,2.3958,2.1267,1.8866,1.6908,1.5298,1.3594,1.2431,1.1825,1.1369,1.1339,1.1723,1.1952,1.2544,1.3866,1.5747,1.7243,0.0,0.0,0.0,0.0,0.0,0.0,0.0,0.0,0.0,0.0,0.0,2.9457,2.8806,3.2249,3.4072,3.3176,3.2983,3.2986,3.3238,3.2554,3.2684,3.4342,3.5504,3.5766,3.4779,3.549,3.5911,3.5351,3.4016,3.3038,3.3117,3.1372,2.969,2.8643,2.6918,2.504,2.3213,2.0966,1.8797,1.6878,1.4592,1.2294,1.0348,0.898,0.7604,0.5766,0.4906,0.3953,0.228,0.1334,0.0382,-0.1543,-0.3349,-0.5297,-0.6179,-0.1324,0.4493,0.7646,1.6196,2.379,3.2772,3.2599,3.2945,3.3189,3.3224,3.2426,3.1735,3.1223,3.1011,3.0966,3.1022,3.1206,3.1721,3.2412,3.1558,3.1061,3.0911,3.0849,3.081,3.0745,3.0882,3.1053,3.1122,3.1209,3.093,3.0381,3.049,3.0745,3.104,3.0835,3.0682,3.0587,3.0201,2.926,2.7837,2.8921,2.9044,2.8025,2.4949,2.2537,2.0938,1.9136,1.7645,1.6512,1.5344,1.4741,1.4728,1.4598,1.4696,1.5287,1.5273,1.53,1.5363,1.7207,1.8238,0.0,2.0126,0.0,0.0,0.0,0.0,0.0,0.0,0.0,0.0,2.8558,3.0373,3.1817,3.2514,3.2752,3.2482,3.1134,3.1473,3.4618,3.3873,3.4134,3.6678,3.7085,3.7064,3.7013,3.6376,3.5884,3.5476,3.3848,3.2442,3.1666,2.9653,2.8071,2.7402,2.5424,2.3346,2.1997,2.0101,1.786,1.5211,1.3664,1.2134,1.0119,0.8736,0.7265,0.521,0.4522,0.3769,0.2159,0.094,-0.0282,-0.1325,-0.2829,-0.4815,-0.7187,0.1669,0.9211,0.9145,1.6202,2.3317,3.3856,3.3746,3.465,3.4966,3.4844,3.4338,3.3917,3.3572,3.2984,3.2482,3.2063,3.2101,3.2331,3.2773,3.23,3.2128,3.2055,3.1803,3.1343,3.0705,3.085,3.0668,3.0311,3.0425,3.0427,3.0306,2.9902,2.9748,2.9834,2.9434,2.9142,2.894,2.8761,2.8334,2.7658,0.0,0.0,0.0,2.4709,2.3387,2.248,2.1318,2.0101,1.8843,1.6881,0.0,1.6043,1.5556,1.5876,1.7071,1.665,0.0,0.0,0.0,0.0,0.0,0.0,0.0,0.0,0.0,0.0,0.0,2.4578,2.536,2.6139,2.8415,3.0762,3.3021,3.2707,3.3059,3.465,3.4046,3.3994,3.508,3.4698,3.4859,3.615,3.614,3.5847,3.5451,3.5518,3.5047,3.3693,3.243,3.1339,3.0304,2.8555,2.722,2.6472,2.4365,2.2867,2.2435,2.0026,1.7147,1.4158,1.2792,1.1682,1.0135,0.8551,0.7013,0.5518,0.4257,0.3131,0.171,0.0806,-0.009,-0.1107,-0.1811,-0.3068,-0.5086,0.2903,0.9415,0.7563,1.6788,2.5573,3.5305,3.5359,3.5842,3.6174,0.0,3.5695,3.5549,3.565,3.3919,3.311,3.3045,3.3129,3.3353,3.3644,3.3241,3.3115,3.3087,3.2597,3.2012,3.1346,3.1199,3.0842,3.0295,3.0501,3.0392,3.0186,2.9884,2.9744,2.9608,2.8773,2.8288,2.8239,2.7564,2.6966,2.64,2.5438,2.4768,2.453,2.3182,2.2078,2.1283,1.9754,1.8861,1.8494,1.6674,0.0,0.0,0.0,0.0,0.0,0.0,0.0,0.0,1.7468,0.0,1.6606,1.8064,1.9232,1.9707,2.0223,2.1221,2.2656,2.4646,2.6588,2.8386,3.0064,3.1861,3.3704,3.3466,3.3682,3.4847,3.4352,3.411,3.4547,3.4403,3.4414,3.4922,3.5302,3.5178,3.4583,3.4413,3.3888,3.259,3.1291,3.0276,2.937,2.784,2.6458,2.5463,2.4017,2.2571,2.0885,1.9151,1.6826,1.4272,1.2792,1.1514,1.0069,0.8417,0.681,0.5333,0.4101,0.2923,0.1551,0.0344,-0.0691,-0.1403,-0.201,-0.2708,-0.2789,0.4182,1.0389,0.9508,1.7485,2.5266,3.6752,3.6894,3.6958,3.7133,3.7234,3.6621,3.6546,3.6693,0.0,0.0,0.0,3.4221,3.4385,3.4549,3.4153,3.393,3.3786,3.3164,3.2525,3.1881,3.1523,3.111,3.063,3.0829,3.0629,3.0155,2.9914,2.9729,2.9515,2.8389,2.7838,2.7769,2.6721,2.5661,2.4821,2.3728,2.3037,2.277,2.1625,2.0669,1.9902,1.8081,1.7455,1.8004,1.6547,1.6433,1.7912,1.7098,1.746,1.931,1.8385,1.8165,1.9041,1.8867,1.8616,1.8462,1.9287,1.9629,1.9105,2.0168,2.1208,2.1876,2.5071,2.8087,3.0796,3.1782,3.275,3.4059,3.4042,3.4084,3.4275,3.366,3.3388,3.3684,3.364,3.3726,3.3899,3.4578,3.4688,3.3872,3.352,3.2844,3.1632,3.0402,2.9304,2.8562,2.7326,2.583,2.4611,2.3417,2.1664,1.9027,1.7789,1.6497,1.45,1.2889,1.1444,0.9831,0.8277,0.6659,0.5157,0.3926,0.2775,0.1679,0.0,-0.1176,-0.1775,-0.2397,-0.3403,-0.4603,0.3976,1.1269,1.0627,1.698,2.3631,3.8055,3.7994,3.8546,3.8311,3.7681,3.7066,3.6325,3.5473,3.5336,3.5132,3.5001,3.5016,3.5148,3.5294,3.4905,3.4449,3.3856,3.3412,3.258,3.1493,3.1579,3.1322,3.08,3.08,3.0756,3.064,2.9594,2.8936,2.8713,2.7979,2.7453,2.7244,2.6538,2.5262,2.3543,2.2955,2.2224,2.125,2.1495,2.1369,2.0794,2.0098,1.9683,1.9627,1.8486,1.8268,1.9027,1.8996,1.928,1.9801,2.0255,1.9758,1.8055,1.8055,1.7748,1.6862,1.6967,1.7716,1.93,1.9687,2.1265,2.4534,2.6562,2.8447,3.0539,3.119,3.2185,3.3804,3.3482,3.3295,3.3449,3.3017,3.2741,3.3022,3.3212,3.3487,3.3783,3.4202,3.4098,3.3027,3.3121,3.2357,3.0453,2.9649,2.8841,2.758,2.6705,2.5813,2.3769,2.2133,2.0407,1.835,1.725,1.5973,1.4058,1.2459,1.1051,0.9606,0.8291,0.6917,0.5494,0.4159,0.3044,0.2084,0.0248,-0.1078,-0.1537,-0.2215,-0.4489,-0.7635,0.0481,0.7239,0.5552,1.3885,2.2322,3.9147,3.922,3.9466,3.95,3.9179,3.8491,3.7385,3.626,3.6447,3.6152,3.5524,3.5444,3.5589,3.5733,3.5623,3.5247,3.4615,3.4224,3.3411,3.2303,3.2034,3.1647,3.1087,3.0999,3.1014,3.0866,3.0322,2.9769,2.9345,2.8469,2.7755,2.7185,2.609,2.4847,2.3518,2.2895,2.2113,2.121,2.0794,2.0311,1.9629,1.8994,1.8469,1.8001,1.7222,1.7007,1.726,1.7181,1.7534,1.8345,1.8351,1.8194,1.7709,1.7769,1.7603,1.7172,1.7906,1.8752,1.9682,2.0974,2.2999,2.6058,2.7255,2.8731,3.0685,3.0873,3.1469,3.2715,3.244,3.2364,3.2838,3.2099,3.1778,3.2363,3.2201,3.2155,3.2392,3.2805,3.2704,3.2032,3.2133,3.1632,2.9923,2.9393,2.8575,2.7144,2.604,2.457,2.3229,2.1579,1.9873,1.8144,1.7139,1.566,1.3593,1.2278,1.1031,0.9533,0.8165,0.6964,0.5698,0.4321,0.3087,0.1853,0.0081,-0.1308,-0.1759,-0.3136,-0.4916,-0.4097,0.0764,0.6367,0.8597,1.5857,2.2636,4.0301,4.0385,4.037,4.0324,4.0163,3.9202,3.8122,3.7121,3.7306,3.6951,3.6165,3.5991,3.5958,3.5958,3.5995,3.5599,3.5003,3.4639,3.3917,3.2986,3.2563,3.2079,3.1652,3.158,3.1537,3.1437,3.1248,3.0921,3.0283,2.9183,2.8022,2.6833,2.5742,2.4656,2.3636,2.3015,2.2298,2.1514,2.0671,1.9756,1.871,1.7969,1.7295,1.6751,1.6306,1.613,1.6276,1.6159,1.6514,1.7545,1.7352,1.7443,1.8115,1.824,1.8382,1.8523,1.9556,2.04,2.1008,2.3007,2.5168,2.7193,2.7959,2.9066,3.0703,3.069,3.0851,3.1652,3.1796,3.1905,3.199,3.1508,3.1145,3.1663,3.1373,3.1187,3.1223,3.1534,3.1625,3.1295,3.1358,3.1052,3.0004,2.9303,2.8384,2.699,2.5148,2.38,2.3062,2.1455,1.9803,1.8402,1.7179,1.5508,1.3135,1.2131,1.1031,0.9468,0.8241,0.7011,0.5699,0.438,0.3067,0.1744,0.008,-0.1387,-0.2298,-0.4681,-0.5521,-0.4364,0.0716,0.7094,1.3418,1.9403,2.4403,4.1754,4.1672,4.1607,4.0783,3.9487,3.8223,3.7622,3.7408,3.7385,3.7413,3.7354,3.6845,3.6445,3.5946,3.5584,3.5063,3.4506,3.4001,3.3479,3.2959,3.2874,3.2788,3.2718,3.2718,3.2718,3.2609,3.212,3.1571,3.1036,2.9665,2.7888,2.6008,2.5663,2.4794,2.3356,2.2992,2.2555,2.1889,2.2098,2.1257,1.932,1.8509,1.8114,1.8046,1.7833,1.7967,1.8341,1.8668,1.8908,1.9209,1.9868,2.012,1.9878,2.0102,2.0476,2.0738,2.0968,2.186,2.3849,2.5636,2.695,2.7998,2.8748,2.9718,3.0881,3.0728,3.0724,3.128,3.1967,3.1851,3.099,3.1321,3.1444,3.1118,3.1076,3.1158,3.1112,3.1534,3.1625,3.1258,3.1155,3.0931,2.9939,2.9303,2.8384,2.693,2.5273,2.4047,2.3492,2.188,2.0311,1.8926,1.7239,1.528,1.3484,1.2271,1.1099,0.9301,0.8389,0.7306,0.5844,0.4613,0.3461,0.191,0.0565,-0.0819,-0.3673,-0.6362,-0.8468,-0.5829,-0.1246,0.4798,1.6417,2.3103,2.5335,4.2301,4.2221,4.2205,4.1836,4.1114,4.0156,3.9557,3.914,3.8877,3.8518,3.8051,3.8067,3.7722,3.7131,3.6483,3.5906,3.5212,3.4565,3.3903,3.3287,3.3256,3.315,3.3043,3.3096,3.3043,3.2897,3.2609,3.1913,3.0661,2.8861,2.7268,2.6139,2.5925,2.5279,2.4261,2.3695,2.3148,2.2628,2.2718,2.2209,2.1088,2.093,2.0622,1.9986,1.9667,1.9613,1.9747,1.9616,1.9798,2.0398,2.0923,2.1138,2.1165,2.1445,2.1807,2.2318,2.3112,2.4178,2.5648,2.6909,2.7959,2.8911,2.9704,3.0644,3.1595,3.1637,3.1457,3.0951,3.0861,3.0711,3.0658,3.0354,3.0206,3.035,3.0147,2.9895,2.999,3.0132,3.0282,3.0517,3.0396,3.021,2.9786,2.8841,2.7799,2.6707,2.5356,2.4279,2.38,2.2212,2.0696,1.964,1.8093,1.6175,1.4124,1.2938,1.1768,1.0501,0.9588,0.8433,0.6297,0.5226,0.4157,0.2306,0.0395,-0.2023,-0.5436,-0.4702,-0.517,-0.3403,0.4869,1.3981,2.1922,2.473,2.5961,4.2925,4.2892,4.2774,4.2615,4.2561,4.1865,4.1163,4.0508,4.013,3.9511,3.881,3.9098,3.8859,3.8105,3.7203,3.6496,3.5964,3.5094,3.4365,3.3848,3.3832,3.3642,3.3414,3.3398,3.3309,3.3058,3.2951,3.2166,3.0628,2.8809,2.7512,2.6876,2.6275,2.577,2.5189,2.454,2.4216,2.4046,2.3948,2.3766,2.3654,2.398,2.3356,2.1823,2.152,2.1564,2.1754,2.141,2.1538,2.244,2.2484,2.2626,2.3018,2.3198,2.3543,2.4221,2.5481,2.6561,2.7311,2.8168,2.9066,2.9875,3.0629,3.1364,3.2033,3.2228,3.1758,3.0912,3.0167,3.011,3.006,2.9705,2.9627,2.988,2.9467,2.9243,2.9245,2.9229,2.9534,3.0103,3.0022,2.9694,2.9661,2.8701,2.76,2.6967,2.5714,2.4667,2.4182,2.2857,2.1444,2.0662,1.9336,1.7436,1.5043,1.373,1.2792,1.1675,1.0691,0.9412,0.7198,0.6294,0.4628,0.2455,-0.023,-0.2461,-0.4652,-0.3835,-0.2163,0.2032,1.0253,1.9872,2.3083,2.5133,2.6243,4.4039,4.3939,4.327,4.3036,4.2936,4.2222,4.1485,4.0966,4.0802,4.0383,3.9866,3.9884,3.9531,3.8806,3.7281,3.6453,3.6345,3.5218,3.4691,3.4673,3.4593,3.435,3.405,3.3949,3.3678,3.3266,3.3145,3.2588,3.1486,3.0251,2.9177,2.8233,2.7041,2.619,2.5851,2.5632,2.573,2.5972,2.5963,2.6321,2.6961,2.7301,2.6096,2.3661,2.3518,2.4002,2.4664,2.4645,2.4808,2.5542,2.5204,2.524,2.5533,2.5591,2.6064,2.695,2.8063,2.8798,2.8939,2.9752,3.0555,3.1043,3.1435,3.1864,3.2296,3.2244,3.1867,3.1205,3.0815,3.0274,2.9532,3.0078,3.0138,2.9555,2.9742,2.9738,2.9518,2.9457,2.9814,3.0274,3.0199,2.9924,2.9661,2.8873,2.8094,2.7449,2.6544,2.57,2.5036,2.3955,2.2927,2.2005,2.0762,1.8903,1.6468,1.5184,1.3894,1.3006,1.233,1.0736,0.8869,0.7061,0.5237,0.2827,0.0316,-0.1729,-0.343,-0.3289,-0.1771,0.3413,1.3081,2.0762,2.3393,2.5048,2.6015,4.4814,4.4797,4.4381,4.4426,4.4662,4.3625,4.291,4.2563,4.2046,4.1522,4.1012,4.1019,4.0602,3.9732,3.8794,3.7694,3.663,3.5502,3.5021,3.5021,3.4927,3.4506,3.3888,3.3888,3.3744,3.3437,3.3388,3.3045,3.2426,3.1107,3.0212,2.9699,2.8539,2.7636,2.7054,2.6562,2.6406,2.668,2.6958,2.739,2.7865,2.8638,2.8441,2.7215,2.6314,2.6129,2.6698,2.6006,2.5908,2.6451,2.6501,2.6582,2.6773,2.7419,2.8011,2.8414,2.9366,2.995,3.0086,3.0689,3.1334,3.186,3.2321,3.2772,3.3235,3.3339,3.3108,3.2579,3.2118,3.1491,3.081,3.0577,3.0288,2.9918,2.9897,2.9897,2.9637,2.9665,3.0,3.0384,3.0518,3.0418,2.9865,2.9271,2.8748,2.8094,2.7238,2.6486,2.5835,2.5079,2.4506,2.3761,2.2899,2.1922,2.1074,1.8231,1.639,1.5722,1.4903,1.3971,1.2485,1.3035,1.1909,0.7506,0.3751,0.1718,0.1207,0.3041,0.3828,0.9749,1.9244,2.1187,2.345,2.4722,2.5415,4.5424,4.5407,4.5267,4.5477,4.5749,4.4923,4.4366,4.399,4.3267,4.2587,4.2053,4.1841,4.1329,4.0588,4.017,3.9194,3.7646,3.6368,3.5705,3.5688,3.5481,3.5002,3.4418,3.4351,3.4197,3.3964,3.3853,3.3711,3.3356,3.219,3.1526,3.1262,3.0235,2.9424,2.8891,2.8359,2.8181,2.8267,2.8594,2.8832,2.8984,2.974,3.0207,2.9959,2.8933,2.8408,2.8561,2.7826,2.7621,2.7983,2.7998,2.8063,2.8244,2.9101,2.969,2.986,3.0569,3.1102,3.1218,3.1751,3.2312,3.2756,3.313,3.3578,3.402,3.4219,3.4071,3.365,3.3106,3.255,3.2026,3.1281,3.0642,3.0393,3.0393,3.0351,3.007,3.0241,3.0518,3.0821,3.1061,3.0868,3.0402,3.0074,2.9581,2.8856,2.823,2.7701,2.7047,2.6725,2.6379,2.5834,2.543,2.4927,2.4476,2.2795,2.0389,1.9511,1.9051,1.7912,1.7304,1.8164,1.695,1.2421,0.9317,0.7294,0.7332,0.9283,1.3101,1.7853,2.0149,2.2005,2.3278,2.4104,2.463,4.5852,4.5918,4.59,4.6,4.6147,4.6028,4.5642,4.4888,4.4138,4.3474,4.2789,4.225,4.1706,4.1203,4.1067,4.0596,3.9498,3.7734,3.6898,3.68,3.6377,3.595,3.5501,3.5379,3.5138,3.4788,3.4703,3.4576,3.446,3.3661,3.3048,3.2741,3.1983,3.1341,3.1308,3.0921,3.0935,3.081,3.0857,3.0897,3.0703,3.1049,3.1369,3.1501,3.1245,3.0954,3.0555,3.0242,3.0033,3.024,2.9907,2.9879,3.0093,3.069,3.1145,3.1435,3.1936,3.2287,3.2586,3.2996,3.3419,3.3764,3.405,3.4185,3.4431,3.4624,3.4629,3.4331,3.3785,3.3219,3.2943,3.2383,3.1692,3.0998,3.1275,3.1353,3.1252,3.1134,3.1257,3.1542,3.1637,3.1545,3.1359,3.1116,3.0613,3.0044,2.9766,2.9599,2.8997,2.874,2.8558,2.8308,2.7978,2.7664,2.7661,2.7404,2.5265,2.3527,2.3151,2.2498,2.1903,2.2175,2.1033,1.7306,1.4584,1.257,1.1964,1.3914,1.6117,1.9918,2.1369,2.2354,2.2983,2.3605,2.3872,4.6678,4.6454,4.6548,4.6753,4.6999,4.6863,4.6204,4.5306,4.5006,4.4259,4.3258,4.2991,4.2467,4.1869,4.1796,4.1361,4.0437,3.9067,3.8307,3.8026,3.7277,3.6576,3.6038,3.5911,3.5797,3.5648,3.5762,3.5959,3.5891,3.5205,3.476,3.4455,3.3472,3.269,3.2272,3.1774,3.1548,3.1792,3.189,3.212,3.2615,3.2783,3.2961,3.3187,3.3166,3.3045,3.287,3.1732,3.113,3.1233,3.1043,3.1115,3.1474,3.186,3.2266,3.2741,3.3177,3.3403,3.3578,3.3885,3.4251,3.4593,3.4802,3.5128,3.5637,3.5786,3.5874,3.5818,3.5376,3.477,3.4242,3.4001,3.3326,3.2325,3.2312,3.2539,3.2639,3.2479,3.2357,3.2354,3.2369,3.2282,3.2194,3.2039,3.1777,3.1328,3.1256,3.1096,3.0759,3.0711,3.0776,3.0575,3.0439,3.0296,3.0197,3.0166,2.9113,2.766,2.7243,2.6515,2.6049,2.5967,2.4701,2.2688,1.999,1.8258,1.768,1.8261,2.0167,2.074,2.1581,2.2217,2.2684,2.3096,2.3558,4.782,4.7342,4.7291,4.7585,4.7915,4.765,4.703,4.6212,4.5883,4.5112,4.4118,4.3726,4.3373,4.2912,4.2908,4.2645,4.2023,4.1056,4.0474,3.9857,3.8023,3.7072,3.6628,3.6611,3.6593,3.6516,3.6615,3.6803,3.696,3.6364,3.5985,3.5736,3.5067,3.4477,3.3958,3.3561,3.3357,3.3191,3.3403,3.3551,3.3631,3.3874,3.4003,3.402,3.4052,3.4185,3.4153,3.3208,3.2656,3.2485,3.2446,3.2594,3.2833,3.3077,3.3407,3.3735,3.402,3.4218,3.4415,3.4704,3.5081,3.5419,3.5644,3.5925,3.6411,3.6591,3.6838,3.6995,3.6141,3.5544,3.5386,3.4851,3.4516,3.4428,3.4002,3.3962,3.4094,3.3773,3.351,3.3377,3.3167,3.2996,3.2961,3.2955,3.2823,3.2581,3.2601,3.2571,3.236,3.2379,3.2437,3.2447,3.2331,3.2331,3.2523,3.2583,3.2641,3.193,3.128,3.029,2.9465,3.0177,2.9741,2.7268,2.4614,2.2924,2.2187,2.1964,2.2934,2.2591,2.2025,2.2333,2.2899,2.3215,2.3744,4.9156,4.8494,4.8226,4.8343,4.8641,4.8421,4.7997,4.7482,4.6721,4.5937,4.5164,4.4364,4.4072,4.4125,4.4002,4.3957,4.4055,4.3127,4.2621,4.176,3.9725,3.7988,3.7647,3.7611,3.7576,3.7506,3.7379,3.7285,3.7377,3.7038,3.686,3.6666,3.6556,3.6493,3.5958,3.6229,3.5582,3.4796,3.5385,3.5015,3.3912,3.4515,3.4752,3.435,3.4529,3.4736,3.4905,3.4905,3.4655,3.4169,3.3953,3.4053,3.4301,3.4366,3.4496,3.4736,3.4752,3.4988,3.5266,3.5654,3.5959,3.6291,3.6563,3.6755,3.6844,3.7102,3.7392,3.7666,3.6541,3.589,3.608,3.571,3.5607,3.6517,3.5915,3.5477,3.5475,3.4888,3.4431,3.4302,3.3923,3.3543,3.3758,3.379,3.3728,3.3664,3.3818,3.3752,3.3693,3.3676,3.3908,3.3873,3.3688,3.368,3.3659,3.3587,3.3593,3.3379,3.3018,3.2346,3.1563,3.2182,3.2377,3.0198,2.8305,2.7003,2.594,2.5039,2.4118,2.3349,2.3033,2.2957,2.3394,2.4038,2.4393,5.0157,4.951,4.951,4.9304,4.8959,4.8903,4.8472,4.777,4.6986,4.6284,4.5424,4.4535,4.4229,4.4192,4.426,4.4289,4.414,4.3548,4.3154,4.294,4.1661,3.9952,3.8859,3.8596,3.8524,3.8355,3.8111,3.8029,3.805,3.7756,3.7505,3.7431,3.7323,3.7041,3.6649,3.6649,3.6441,3.6063,3.6149,3.6277,3.5956,3.6,3.618,3.618,3.6155,3.6197,3.6305,3.6364,3.5882,3.4922,3.4951,3.5107,3.5295,3.5369,3.5593,3.6002,3.6088,3.6172,3.6446,3.6706,3.6847,3.7002,3.721,3.7343,3.7435,3.7649,3.8005,3.8215,3.7757,3.7076,3.6632,3.6961,3.7537,3.759,3.7074,3.6344,3.5872,3.5271,3.476,3.4439,3.4354,3.4398,3.4528,3.4603,3.4596,3.463,3.4666,3.4743,3.4565,3.4544,3.4594,3.4646,3.4566,3.4603,3.4595,3.4483,3.4378,3.4232,3.3823,3.3244,3.2373,3.1959,3.159,3.0393,2.8818,2.7493,2.6725,2.5901,2.503,2.4146,2.3901,2.3825,2.4951,2.5708,2.5733,5.1379,5.0299,5.0318,4.995,4.9365,4.9315,4.8889,4.8323,4.7844,4.6958,4.5959,4.5348,4.4869,4.4568,4.4584,4.4662,4.4669,4.4253,4.4118,4.4049,4.3217,4.1669,4.0106,3.9458,3.9136,3.9045,3.8828,3.8741,3.87,3.8436,3.8259,3.8227,3.8143,3.7907,3.7613,3.7542,3.7434,3.7216,3.7197,3.7197,3.7102,3.7099,3.7079,3.7079,3.7058,3.7076,3.719,3.7321,3.6907,3.6104,3.5994,3.6096,3.6215,3.6239,3.6464,3.6895,3.686,3.6921,3.7152,3.7395,3.756,3.7685,3.7859,3.8092,3.825,3.8431,3.8743,3.9047,3.8644,3.81,3.7958,3.855,3.8939,3.8836,3.8178,3.7378,3.6523,3.5899,3.5469,3.5169,3.5001,3.4952,3.5162,3.5145,3.5175,3.5224,3.5173,3.5179,3.5117,3.5137,3.5066,3.4971,3.4661,3.44,3.4099,3.394,3.373,3.3724,3.3316,3.3027,3.2434,3.1549,3.0874,3.0077,2.9011,2.8057,2.7255,2.6547,2.5938,2.5207,2.486,2.515,2.6185,2.6986,2.6989,5.2798,5.1225,5.1039,5.0685,5.0274,4.991,4.9679,4.9257,4.8919,4.7986,4.6786,4.6416,4.5745,4.508,4.5026,4.5156,4.5322,4.5125,4.5304,4.5054,4.4345,4.2904,4.1415,4.0524,4.0085,3.9887,3.9646,3.9738,3.9791,3.9527,3.9259,3.9184,3.9156,3.897,3.8603,3.8645,3.8573,3.8255,3.8204,3.8089,3.7853,3.7821,3.7787,3.77,3.7631,3.7649,3.7841,3.798,3.7841,3.7155,3.7076,3.6999,3.7017,3.6999,3.7132,3.7283,3.7433,3.7524,3.765,3.8032,3.8198,3.8342,3.8633,3.8923,3.9036,3.9136,3.935,3.9714,3.9025,3.8954,3.9331,3.9683,3.958,3.9414,3.9066,3.8286,3.749,3.6686,3.6265,3.6213,3.5573,3.5398,3.5398,3.5422,3.5355,3.5244,3.5287,3.5268,3.5152,3.5005,3.4962,3.492,3.4471,3.3869,3.3529,3.3232,3.2965,3.2755,3.2203,3.1794,3.1474,3.078,3.0126,2.9393,2.8764,2.8164,2.7506,2.6931,2.6581,2.6657,2.6458,2.672,2.7153,2.7811,2.8068,5.4263,5.3498,5.3456,5.3043,5.2346,5.1634,5.1212,5.0985,4.9738,4.8662,4.7683,4.7012,4.6244,4.5438,4.5495,4.5491,4.5545,4.5545,4.5632,4.5552,4.4742,4.4177,4.3347,4.2508,4.1704,4.1322,4.1665,4.1768,4.1548,4.1302,4.1042,4.03,4.0181,3.9778,3.9175,3.9222,3.8952,3.8836,3.8913,3.8921,3.8796,3.873,3.8681,3.8578,3.8548,3.8626,3.8704,3.8781,3.8744,3.8548,3.8176,3.7949,3.7808,3.7861,3.8052,3.8238,3.8342,3.8493,3.873,3.895,3.9082,3.9229,3.9328,3.9439,3.9608,3.9532,3.9684,3.9886,3.9668,3.9616,3.9929,3.9503,3.948,3.9422,3.8916,3.8322,3.7899,3.7191,3.6396,3.5954,3.5702,3.5547,3.5605,3.5636,3.5519,3.5321,3.5276,3.5287,3.5117,3.4927,3.484,3.4828,3.4116,3.3512,3.3003,3.2763,3.2663,3.2319,3.1734,3.1432,3.1057,3.0375,2.9883,2.9339,2.8842,2.824,2.7795,2.7704,2.7414,2.7739,2.8104,2.8453,2.8713,2.9086,2.8726,5.4975,5.4257,5.4299,5.3646,5.257,5.203,5.1607,5.1163,5.0374,4.9488,4.8756,4.8198,4.7314,4.6198,4.6174,4.6073,4.5781,4.5827,4.5841,4.5731,4.5253,4.4944,4.4666,4.4288,4.3624,4.2563,4.2629,4.2754,4.2661,4.2564,4.1966,4.1165,4.1344,4.1085,4.0371,4.0391,4.0666,4.0652,4.0506,4.0349,4.0038,3.9885,3.9506,3.9229,3.9173,3.9266,3.973,3.9384,3.9709,4.0037,3.9779,3.9113,3.864,3.8651,3.8944,3.9357,3.9119,3.9611,4.009,4.0176,4.0071,4.0198,4.0287,4.0154,4.0091,3.9964,4.0101,4.0269,4.0279,4.0249,4.04,4.0192,3.9943,3.9906,3.9622,3.9243,3.8687,3.7386,3.6575,3.6472,3.6502,3.652,3.6469,3.6176,3.5839,3.5684,3.538,3.5359,3.5214,3.5014,3.4787,3.4527,3.3764,3.3115,3.2545,3.2353,3.2446,3.2158,3.1742,3.1683,3.1605,3.0725,2.9765,2.9407,2.9074,2.869,2.8308,2.8232,2.8494,2.8972,2.9435,3.0001,3.0188,3.0078,2.9371,5.5364,5.4612,5.4747,5.3916,5.2661,5.235,5.1904,5.1322,5.0858,5.0233,4.966,4.9531,4.8477,4.7438,4.7187,4.6748,4.6254,4.6016,4.6027,4.5897,4.5861,4.5531,4.5259,4.5287,4.5045,4.3717,4.3761,4.3699,4.3651,4.3408,4.3162,4.2291,4.2639,4.2432,4.193,4.2093,4.2262,4.2164,4.206,4.1886,4.143,4.1207,4.0774,4.0295,4.0128,4.0378,4.0766,4.0626,4.0707,4.197,4.152,4.0731,4.0058,3.9738,3.9832,4.0589,4.0178,4.0672,4.1429,4.1425,4.1177,4.119,4.1431,4.1208,4.0773,4.0696,4.0839,4.0836,4.0839,4.0701,4.0829,4.0696,4.0727,4.071,4.0748,4.039,3.9557,3.7592,3.7092,3.7531,3.726,3.7026,3.7019,3.6814,3.6404,3.6017,3.5675,3.5409,3.531,3.5109,3.4871,3.4613,3.4006,3.3488,3.2951,3.2693,3.269,3.2466,3.2035,3.1962,3.1981,3.1131,3.0212,2.9751,2.9376,2.9169,2.9132,2.9267,2.9616,3.0243,3.051,3.0717,3.0842,3.094,3.0066,5.6005,5.5987,5.6052,5.5857,5.5359,5.407,5.3351,5.3028,5.173,5.0673,5.0031,4.9895,4.9361,4.8584,4.8407,4.7946,4.7202,4.6755,4.632,4.6212,4.6266,4.6144,4.6021,4.6068,4.5888,4.5755,4.5512,4.5393,4.5277,4.5362,4.4537,4.4051,4.4025,4.3635,4.3028,4.2917,4.306,4.3138,4.3062,4.2871,4.2622,4.2431,4.2298,4.1873,4.177,4.2017,4.2229,4.2271,4.239,4.2621,4.2545,4.2412,4.2161,4.1892,4.1628,4.1344,4.1611,4.2039,4.2614,4.2583,4.22,4.2019,4.2357,4.2375,4.1873,4.1718,4.1787,4.1704,4.1352,4.0991,4.0974,4.1094,4.1027,4.0859,4.0421,4.0117,3.9999,3.8937,3.7686,3.8158,3.7808,3.7472,3.7509,3.7293,3.67,3.6266,3.5872,3.5714,3.5654,3.5314,3.4957,3.4734,3.4428,3.3945,3.3481,3.3325,3.3245,3.3102,3.2734,3.2373,3.2171,3.1405,3.0791,3.0573,3.037,3.0232,3.0235,3.0257,3.0574,3.1046,3.1213,3.1319,3.1327,3.1261,3.0791,5.6246,5.6364,5.6406,5.6115,5.557,5.4829,5.4231,5.372,5.2629,5.1837,5.1336,5.0862,5.0186,4.9541,4.9352,4.8908,4.8152,4.7782,4.7284,4.7025,4.727,4.7235,4.6891,4.683,4.6833,4.6814,4.68,4.6516,4.6047,4.5939,4.5537,4.4885,4.4925,4.4711,4.4139,4.4218,4.4261,4.4302,4.4267,4.4023,4.3599,4.3327,4.2992,4.294,4.2982,4.3098,4.3461,4.3077,4.3457,4.403,4.3915,4.3737,4.3739,4.384,4.3637,4.291,4.2852,4.3363,4.3932,4.4048,4.3598,4.3428,4.3724,4.3327,4.2733,4.2548,4.2794,4.2766,4.2678,4.231,4.24,4.1892,4.1804,4.185,4.0971,4.0513,4.0511,3.9618,3.9057,3.8676,3.8326,3.8171,3.8221,3.7809,3.7036,3.6517,3.6092,3.5954,3.5907,3.5601,3.5203,3.4915,3.4661,3.4257,3.3964,3.4016,3.3878,3.3748,3.3395,3.2973,3.2579,3.2022,3.1836,3.1762,3.1535,3.1044,3.0928,3.0773,3.1291,3.1664,3.1637,3.161,3.1697,3.1509,3.094,5.6367,5.6398,5.6407,5.6024,5.5425,5.5159,5.4752,5.4092,5.3307,5.278,5.2534,5.1707,5.0906,5.037,5.0005,4.9595,4.8965,4.8886,4.832,4.8005,4.8323,4.8343,4.7949,4.7771,4.7767,4.7752,4.7747,4.7262,4.6625,4.648,4.6075,4.5978,4.6191,4.5886,4.5396,4.568,4.593,4.5747,4.5665,4.5248,4.4645,4.3998,4.3563,4.3563,4.3567,4.3987,4.4515,4.4201,4.4472,4.5066,4.51,4.4747,4.4885,4.5409,4.5388,4.4639,4.3979,4.4592,4.5092,4.5241,4.4738,4.4453,4.4812,4.4242,4.3611,4.3548,4.3732,4.3708,4.3553,4.3403,4.3177,4.2785,4.2661,4.2654,4.1925,4.1039,4.092,4.0401,3.9652,3.9245,3.892,3.8614,3.8451,3.8081,3.7267,3.6748,3.6308,3.599,3.5966,3.5928,3.5574,3.5172,3.4865,3.4483,3.4389,3.4651,3.4587,3.4415,3.4021,3.355,3.3173,3.276,3.2598,3.23,3.1857,3.1409,3.1324,3.1302,3.1615,3.1796,3.1826,3.1784,3.1712,3.1336,3.0763,5.6396,5.6393,5.6465,5.6436,5.6204,5.5531,5.516,5.4925,5.372,5.2939,5.2748,5.1828,5.1304,5.1035,5.0389,5.0076,4.9783,4.9393,4.9004,4.8749,4.8984,4.9003,4.8687,4.8668,4.8647,4.8643,4.8643,4.8146,4.7548,4.7372,4.7564,4.7676,4.7181,4.7047,4.6562,4.6745,4.6785,4.6173,4.6008,4.5939,4.5793,4.5526,4.5413,4.5389,4.5344,4.5331,4.548,4.5292,4.5588,4.5697,4.5778,4.5692,4.5742,4.5781,4.588,4.5772,4.5675,4.5664,4.5831,4.5716,4.5423,4.5195,4.5436,4.5333,4.4862,4.4529,4.4451,4.3642,4.3697,4.3782,4.3746,4.3335,4.3172,4.2985,4.2631,4.182,4.1415,4.0947,4.0237,3.9445,3.8971,3.8578,3.8308,3.792,3.7524,3.7029,3.6544,3.6184,3.5967,3.589,3.5827,3.5436,3.5239,3.4931,3.4759,3.5036,3.5065,3.4973,3.4591,3.4021,3.3553,3.3187,3.2726,3.2373,3.2013,3.1901,3.1951,3.1955,3.1928,3.1841,3.1784,3.1655,3.1524,3.1087,3.0524,5.646,5.6454,5.6497,5.6493,5.6444,5.6093,5.5957,5.572,5.4646,5.3826,5.3219,5.1971,5.1403,5.1279,5.0945,5.0847,5.075,5.04,4.9994,4.9761,4.9937,4.9997,4.9628,4.955,4.955,4.9531,4.9511,4.9447,4.8818,4.803,4.7735,4.7983,4.7684,4.7077,4.7213,4.7237,4.6839,4.6383,4.6122,4.6113,4.6084,4.6047,4.6027,4.6027,4.5978,4.5978,4.6018,4.5998,4.5998,4.6026,4.6026,4.6007,4.6024,4.6057,4.6086,4.6094,4.6069,4.6036,4.6066,4.6059,4.5835,4.574,4.5913,4.5918,4.568,4.5528,4.5445,4.5104,4.4974,4.4821,4.4508,4.4117,4.4003,4.3752,4.3166,4.2545,4.1912,4.1297,4.0685,3.9847,3.9104,3.8761,3.8395,3.7918,3.7498,3.6869,3.6446,3.6088,3.5873,3.5793,3.5711,3.5616,3.5504,3.5453,3.5313,3.5369,3.5295,3.5232,3.5054,3.4505,3.389,3.3419,3.3106,3.2701,3.2348,3.2353,3.2551,3.2182,3.1799,3.1712,3.1655,3.1597,3.1467,3.0732,2.9964,5.6523,5.6523,5.6521,5.6523,5.6517,5.6517,5.6549,5.6454,5.5661,5.4896,5.3975,5.2576,5.1655,5.1418,5.1363,5.1288,5.1346,5.1391,5.1023,5.0867,5.0945,5.0928,5.0693,5.0576,5.0676,5.0427,5.0778,5.078,5.0331,4.9524,4.8769,4.8447,4.8562,4.8039,4.7624,4.7833,4.7827,4.6709,4.6585,4.6415,4.6185,4.6146,4.6127,4.6135,4.6123,4.6137,4.617,4.6164,4.6144,4.6111,4.615,4.6142,4.6132,4.6147,4.6178,4.619,4.6172,4.6172,4.6168,4.617,4.6209,4.6202,4.6189,4.6136,4.6119,4.6099,4.6018,4.5807,4.5725,4.5654,4.5514,4.4764,4.4553,4.4159,4.3624,4.3081,4.2526,4.1921,4.1167,4.0339,3.9619,3.914,3.8686,3.8043,3.7448,3.6783,3.6326,3.5983,3.5875,3.5898,3.5955,3.5994,3.6096,3.6151,3.6308,3.6114,3.5887,3.5523,3.5347,3.4945,3.4345,3.4062,3.3841,3.3372,3.2852,3.2993,3.3254,3.24,3.1539,3.1597,3.1597,3.1597,3.1292,3.0553,2.938,5.6595,5.6575,5.6518,5.6534,5.6591,5.661,5.6606,5.6586,5.6454,5.581,5.4791,5.3405,5.2097,5.1648,5.155,5.1531,5.1433,5.1394,5.1379,5.1363,5.1366,5.1425,5.1503,5.1834,5.203,5.1519,5.1776,5.2166,5.2209,5.1206,5.0957,5.1027,5.0103,4.989,4.9478,4.904,4.8623,4.7669,4.7392,4.7025,4.6644,4.6443,4.6429,4.6382,4.6284,4.6206,4.6245,4.6377,4.6433,4.6395,4.6278,4.6226,4.6172,4.619,4.6205,4.6195,4.6183,4.6183,4.6163,4.617,4.6206,4.6195,4.6153,4.6098,4.6052,4.6027,4.5966,4.5828,4.5708,4.5555,4.5342,4.5039,4.4759,4.4346,4.3849,4.3401,4.2908,4.2492,4.176,4.085,4.0239,3.9783,3.9171,3.8611,3.7923,3.7265,3.687,3.6514,3.6288,3.6276,3.64,3.6535,3.6688,3.6958,3.7435,3.7158,3.6547,3.6092,3.5864,3.539,3.476,3.4592,3.45,3.4201,3.3826,3.3891,3.3772,3.2915,3.2182,3.1762,3.1569,3.1631,3.1058,3.0162,2.893,5.6606,5.6606,5.6559,5.6579,5.6606,5.6606,5.6606,5.6489,5.602,5.5294,5.447,5.3255,5.2513,5.2235,5.2182,5.2206,5.2206,5.2191,5.2195,5.2195,5.2198,5.2198,5.2511,5.2823,5.3057,5.2448,5.26,5.2713,5.2561,5.239,5.2644,5.2368,5.1621,5.021,4.9721,4.9665,4.9016,4.8641,4.8306,4.8069,4.7955,4.7796,4.7799,4.7805,4.7808,4.781,4.777,4.7284,4.7226,4.7029,4.656,4.6337,4.6222,4.6214,4.624,4.6201,4.6216,4.6189,4.6135,4.6137,4.6125,4.6063,4.5998,4.5936,4.5879,4.5802,4.5713,4.5623,4.5488,4.5323,4.5077,4.4887,4.4655,4.4317,4.3943,4.3569,4.3225,4.2803,4.2408,4.1506,4.1034,4.061,3.9957,3.9253,3.8537,3.7843,3.7456,3.708,3.6852,3.6806,3.7026,3.7144,3.7297,3.7368,3.7793,3.7481,3.7052,3.6734,3.6393,3.5982,3.5508,3.5323,3.5239,3.4968,3.4696,3.4501,3.4107,3.3457,3.2946,3.2586,3.208,3.1738,3.095,2.9969,2.8648,5.6606,5.6606,5.6606,5.6606,5.6606,5.6606,5.6606,5.6508,5.6001,5.5172,5.4343,5.3704,5.3264,5.3097,5.3055,5.3099,5.3099,5.3108,5.3093,5.2975,5.2815,5.2893,5.3205,5.3474,5.3548,5.3177,5.3387,5.3537,5.3635,5.3429,5.3721,5.3728,5.3129,5.189,5.0917,5.0038,4.9746,4.9297,4.916,4.8945,4.8808,4.8671,4.8671,4.8648,4.8608,4.8586,4.8332,4.7823,4.7288,4.7139,4.6815,4.645,4.6306,4.6281,4.6407,4.6385,4.6338,4.6335,4.6274,4.6072,4.6005,4.5873,4.5822,4.5733,4.5658,4.5577,4.5524,4.5418,4.5264,4.5071,4.4833,4.4576,4.4345,4.4036,4.3749,4.3385,4.33,4.2977,4.2704,4.2195,4.1827,4.145,4.1024,4.0292,3.9101,3.8368,3.7733,3.7513,3.753,3.755,3.777,3.7855,3.7922,3.7945,3.7982,3.7634,3.7402,3.7364,3.7036,3.6757,3.6426,3.624,3.5995,3.5737,3.5431,3.5064,3.4743,3.4483,3.4014,3.344,3.2807,3.2073,3.1142,3.0127,2.8746,5.6606,5.6606,5.6606,5.6606,5.6606,5.6606,5.6606,5.6582,5.6489,5.5992,5.5221,5.5036,5.4577,5.4014,5.3947,5.3957,5.3952,5.3962,5.3951,5.3811,5.347,5.3426,5.3772,5.4117,5.4293,5.4183,5.4378,5.471,5.4905,5.4704,5.4918,5.5133,5.4786,5.4211,5.3743,5.2962,5.1726,5.0376,5.023,4.9745,4.9355,4.9196,4.913,4.9161,4.9176,4.923,4.9055,4.8411,4.783,4.7288,4.7411,4.7053,4.6549,4.6911,4.7043,4.695,4.692,4.6908,4.6854,4.6235,4.6012,4.5873,4.5918,4.5868,4.5663,4.5571,4.5629,4.5729,4.5204,4.4915,4.457,4.4248,4.4055,4.38,4.3532,4.3376,4.3286,4.3142,4.2832,4.2758,4.2582,4.232,4.1997,4.1341,3.9899,3.8918,3.8187,3.799,3.8159,3.8379,3.8633,3.87,3.8685,3.8621,3.8538,3.7969,3.7703,3.776,3.7665,3.7439,3.7348,3.7227,3.6919,3.6538,3.6368,3.6137,3.5887,3.571,3.5024,3.425,3.3176,3.2367,3.1409,3.0345,2.8966,5.6606,5.6606,5.6606,5.6563,5.6538,5.6582,5.6582,5.6558,5.6543,5.6377,5.599,5.5547,5.512,5.4833,5.4788,5.48,5.48,5.4791,5.4777,5.4718,5.4351,5.4546,5.4827,5.5087,5.5191,5.4957,5.5145,5.5248,5.5138,5.528,5.567,5.5884,5.584,5.5243,5.4242,5.3553,5.3033,5.259,5.2123,5.1551,5.1154,5.0667,5.0322,5.0287,5.0229,5.0209,5.0124,4.9313,4.8619,4.8079,4.8292,4.7955,4.7655,4.8024,4.7809,4.773,4.7696,4.7605,4.7511,4.7165,4.6839,4.6513,4.6263,4.6416,4.6813,4.6644,4.6537,4.6183,4.5563,4.5236,4.4917,4.4265,4.3957,4.3686,4.3428,4.3411,4.3323,4.3178,4.3013,4.3139,4.3093,4.2674,4.2343,4.1735,4.0474,3.9756,3.9071,3.9073,3.9259,3.9394,3.9597,3.9564,3.9598,3.9463,3.9194,3.8472,3.8254,3.8328,3.8286,3.8051,3.8033,3.7907,3.7398,3.6708,3.6956,3.7172,3.6503,3.5864,3.5601,3.4876,3.3759,3.2667,3.1721,3.0554,2.918,5.6606,5.6606,5.6563,5.6533,5.6523,5.6553,5.6553,5.6523,5.6548,5.6536,5.6381,5.5874,5.5665,5.567,5.5645,5.5626,5.5626,5.562,5.5594,5.5528,5.5166,5.5247,5.5569,5.5784,5.5551,5.5453,5.5502,5.5521,5.5579,5.558,5.59,5.6288,5.6472,5.5848,5.4991,5.4593,5.4103,5.3654,5.3065,5.266,5.2281,5.1862,5.1434,5.121,5.1102,5.1092,5.0895,5.0406,4.9761,4.9421,4.9155,4.8827,4.8755,4.8692,4.8505,4.8472,4.8393,4.8311,4.8162,4.7524,4.7262,4.7342,4.7045,4.7076,4.7371,4.7027,4.6901,4.658,4.6085,4.5797,4.5449,4.4716,4.4162,4.3885,4.3558,4.3505,4.3251,4.3104,4.303,4.3154,4.3066,4.2786,4.2394,4.1783,4.0944,4.0502,4.0053,4.0121,4.0087,4.0087,4.007,4.0037,3.9767,3.9379,3.9177,3.8873,3.8787,3.893,3.8809,3.8623,3.8148,3.7913,3.7395,3.694,3.6925,3.6816,3.6348,3.5913,3.5688,3.5115,3.4083,3.303,3.2089,3.0746,2.9366,5.6626,5.6582,5.6533,5.6497,5.6485,5.6497,5.6497,5.6485,5.6485,5.6498,5.6476,5.6432,5.6328,5.6402,5.6425,5.6359,5.6279,5.6269,5.6203,5.6007,5.5508,5.5687,5.565,5.5508,5.5644,5.5913,5.601,5.5896,5.6073,5.6019,5.62,5.6407,5.6427,5.6124,5.5763,5.5374,5.484,5.4461,5.3961,5.3518,5.3091,5.2589,5.202,5.1658,5.1367,5.1192,5.0874,5.0327,4.99,4.9647,4.9523,4.8932,4.8721,4.8854,4.9037,4.9121,4.9071,4.8933,4.8713,4.8007,4.789,4.8115,4.7856,4.7492,4.7382,4.7454,4.7398,4.7079,4.6661,4.6468,4.62,4.5436,4.469,4.4272,4.3761,4.3506,4.3196,4.3012,4.29,4.2838,4.2651,4.2374,4.1925,4.1405,4.1278,4.0573,4.0188,4.0121,4.0087,4.0087,4.0054,4.002,3.9665,3.9127,3.8992,3.9125,3.9037,3.9132,3.9159,3.8985,3.8504,3.8014,3.7741,3.7353,3.6801,3.6614,3.6776,3.6425,3.5824,3.5178,3.4675,3.3659,3.2751,3.1087,2.9658,5.7133,5.6602,5.6533,5.6497,5.6478,5.6484,5.6484,5.6478,5.6485,5.6491,5.6496,5.6496,5.648,5.6492,5.6488,5.6472,5.6426,5.6388,5.6289,5.6076,5.5824,5.5966,5.5938,5.5796,5.5912,5.599,5.6087,5.6052,5.6083,5.6146,5.616,5.6187,5.6246,5.6187,5.6077,5.5888,5.5612,5.5294,5.4749,5.4308,5.3853,5.3402,5.2713,5.2082,5.1831,5.1551,5.0899,5.0615,5.0314,5.0221,5.024,4.9951,4.9865,4.9961,5.0052,4.982,4.9714,4.9565,4.9409,4.9051,4.8792,4.879,4.8645,4.864,4.849,4.8212,4.801,4.767,4.7237,4.702,4.6763,4.6158,4.5444,4.4894,4.4419,4.3998,4.3686,4.3409,4.3258,4.292,4.2763,4.2502,4.2009,4.1681,4.149,4.0678,4.0256,4.0307,4.0155,4.0172,4.007,4.002,3.9834,3.9379,3.9429,3.9545,3.9408,3.9301,3.9465,3.9433,3.8982,3.8534,3.8195,3.7815,3.7312,3.7477,3.7889,3.7329,3.6697,3.6227,3.5706,3.4469,3.3242,3.1554,3.0151,5.7219,5.651,5.6437,5.6405,5.6378,5.6388,5.6368,5.6369,5.6416,5.6416,5.6417,5.6398,5.6388,5.6367,5.6358,5.6336,5.6278,5.622,5.616,5.6071,5.6075,5.5971,5.5973,5.5956,5.5901,5.5956,5.5937,5.5883,5.5954,5.6024,5.604,5.6117,5.6102,5.6071,5.6001,5.5946,5.5982,5.5769,5.5481,5.5081,5.4602,5.4143,5.3395,5.2703,5.2492,5.1953,5.126,5.1087,5.0912,5.0562,5.0442,5.0399,5.0264,5.0264,5.0565,5.0323,5.0028,5.0043,4.9965,4.9459,4.9257,4.9057,4.8922,4.8725,4.8707,4.8507,4.8419,4.8255,4.7868,4.7535,4.7241,4.6893,4.6268,4.5644,4.5168,4.471,4.434,4.3987,4.3616,4.3262,4.305,4.2876,4.2552,4.2207,4.1938,4.1563,4.1341,4.1306,4.0882,4.0426,4.024,4.0054,3.9969,3.9766,3.99,4.0068,3.9945,3.9976,4.0107,3.9989,3.9486,3.9198,3.8934,3.8449,3.7884,3.8172,3.8457,3.8198,3.7631,3.705,3.623,3.5057,3.3636,3.198,3.0741,5.732,5.6542,5.6411,5.6368,5.6213,5.6213,5.6179,5.6117,5.6233,5.6271,5.6278,5.6226,5.6213,5.6207,5.622,5.6185,5.6141,5.6075,5.6026,5.5905,5.5885,5.5827,5.5808,5.5726,5.5788,5.5726,5.5726,5.5768,5.5767,5.5827,5.5938,5.6052,5.604,5.599,5.5865,5.5884,5.5884,5.5826,5.5672,5.5403,5.4958,5.4554,5.4208,5.3475,5.3185,5.2856,5.2139,5.1689,5.1434,5.0756,5.0455,5.0544,5.0577,5.0564,5.0912,5.0825,5.0516,5.0398,5.0241,4.9702,4.9222,4.8881,4.8513,4.8439,4.8476,4.855,4.8476,4.8402,4.8031,4.7956,4.7697,4.7403,4.6907,4.6373,4.5895,4.5303,4.4726,4.4317,4.3861,4.3527,4.3278,4.3065,4.2802,4.2466,4.2296,4.2277,4.2172,4.2052,4.1762,4.1068,4.0849,4.0561,4.0611,4.0643,4.0592,4.0692,4.062,4.0668,4.0799,4.0657,4.0263,3.9973,3.9688,3.9156,3.8542,3.8646,3.876,3.8598,3.8196,3.7139,3.6268,3.5432,3.4052,3.2507,3.1436,5.8982,5.8126,5.748,5.6841,5.6239,5.622,5.6174,5.6185,5.6091,5.6126,5.6132,5.6136,5.616,5.6203,5.6106,5.6075,5.6029,5.5977,5.5923,5.5847,5.5787,5.5766,5.5745,5.5705,5.5684,5.5684,5.5684,5.5684,5.5724,5.5747,5.5767,5.5788,5.5808,5.5788,5.5748,5.5767,5.5767,5.5767,5.5647,5.5591,5.5363,5.5141,5.4837,5.4168,5.3752,5.335,5.2736,5.2336,5.2208,5.1958,5.1958,5.1977,5.2003,5.1893,5.1537,5.1168,5.1228,5.0941,5.0505,5.0021,4.9565,4.9215,4.8898,4.851,4.8344,4.8382,4.8382,4.8306,4.8286,4.8247,4.8153,4.7819,4.756,4.708,4.6637,4.5906,4.5173,4.467,4.416,4.3898,4.3579,4.3333,4.3099,4.286,4.2671,4.2498,4.2359,4.2252,4.2371,4.2033,4.21,4.188,4.1779,4.1743,4.1557,4.142,4.1365,4.146,4.1569,4.1349,4.1016,4.0392,3.9849,3.9567,3.9293,3.9333,3.9344,3.9364,3.8728,3.7506,3.6495,3.5681,3.4687,3.3263,3.2227,5.9429,5.861,5.7756,5.6893,5.6203,5.6106,5.6094,5.601,5.5959,5.6154,5.6402,5.617,5.6149,5.6343,5.6169,5.5975,5.5923,5.5866,5.5827,5.5766,5.5766,5.5745,5.5724,5.5722,5.5684,5.5684,5.5684,5.5684,5.5761,5.5684,5.5705,5.5761,5.5761,5.5742,5.5722,5.5703,5.5682,5.566,5.5573,5.5554,5.5561,5.5341,5.5186,5.4619,5.4375,5.3922,5.3495,5.3079,5.2824,5.2551,5.2238,5.2181,5.2095,5.1956,5.1939,5.1794,5.1686,5.1516,5.0989,5.0398,5.0045,4.9745,4.8895,4.8398,4.8838,4.884,4.8324,4.8286,4.8267,4.8267,4.8247,4.8025,4.791,4.7633,4.7387,4.6953,4.6252,4.5638,4.5311,4.504,4.4711,4.4372,4.418,4.4057,4.39,4.3685,4.3389,4.32,4.32,4.2997,4.3081,4.3031,4.2757,4.2439,4.2049,4.203,4.2199,4.2274,4.2339,4.1789,4.1281,4.0531,3.9955,3.9874,3.9908,4.0009,4.0063,3.9692,3.9103,3.8002,3.7005,3.5974,3.4937,3.3869,3.2754,5.9437,5.8588,5.7949,5.7059,5.625,5.6154,5.604,5.5865,5.5941,5.6459,5.7054,5.6519,5.6613,5.6596,5.6384,5.6037,5.5806,5.5767,5.5724,5.5724,5.5724,5.5724,5.5761,5.5857,5.5972,5.5915,5.5818,5.5915,5.6011,5.603,5.6069,5.5972,5.5915,5.5876,5.5838,5.572,5.566,5.5615,5.5551,5.5461,5.5389,5.5262,5.5172,5.5138,5.5064,5.4713,5.4248,5.3897,5.3489,5.3186,5.2791,5.2686,5.2559,5.2465,5.2367,5.2356,5.2212,5.2104,5.1748,5.0726,5.0554,5.0141,4.904,4.8616,4.9056,4.8852,4.8336,4.8265,4.8247,4.832,4.832,4.8389,4.8331,4.7992,4.7834,4.7512,4.6847,4.6288,4.6014,4.5783,4.5477,4.5144,4.5054,4.4964,4.4835,4.4665,4.457,4.457,4.4418,4.4045,4.3876,4.363,4.3339,4.2989,4.2706,4.2686,4.2901,4.3009,4.2972,4.2264,4.1598,4.0836,4.0401,4.0346,4.0447,4.0363,3.9999,3.955,3.887,3.8101,3.6908,3.5777,3.495,3.3882,3.2932,6.0264,5.9454,5.9301,5.8355,5.7101,5.6966,5.6541,5.6019,5.6557,5.7305,5.7802,5.7877,5.7649,5.7033,5.6917,5.6533,5.5976,5.5838,5.5722,5.5684,5.5684,5.5684,5.5876,5.6242,5.6626,5.6453,5.6126,5.6145,5.6222,5.6511,5.7049,5.7473,5.6896,5.6722,5.6626,5.6316,5.575,5.5704,5.5495,5.5358,5.5314,5.5255,5.5203,5.5149,5.5019,5.4886,5.4733,5.4703,5.4609,5.4424,5.4031,5.3658,5.3393,5.3123,5.3014,5.2753,5.2639,5.256,5.2069,5.1195,5.0945,5.0776,4.9636,4.848,4.8623,4.8437,4.8181,4.82,4.8273,4.8473,4.8561,4.8903,4.8876,4.7965,4.7461,4.6926,4.628,4.5903,4.5615,4.5511,4.5354,4.5159,4.4998,4.4906,4.4814,4.4682,4.457,4.457,4.457,4.457,4.457,4.4238,4.3799,4.4097,4.4035,4.3581,4.3585,4.3671,4.3313,4.2312,4.1496,4.1127,4.0799,4.0524,4.0385,4.0285,3.9864,3.9334,3.8354,3.7525,3.6387,3.5304,3.4647,3.3797,3.2673]}]]